<?xml version='1.0' encoding='UTF-8'?><gpx version="1.1" creator="JPX - https://github.com/jenetics/jpx" xmlns="http://www.topografix.com/GPX/1/1"><trk><trkseg><trkpt lat="44.515215682496155" lon="0.9334460644946958"><ele>96.0</ele><time>2026-04-13T16:50:38Z</time></trkpt><trkpt lat="44.515348934180224" lon="0.9334497777767536"><ele>96.0</ele><time>2026-04-13T16:50:39Z</time></trkpt><trkpt lat="44.51549729714735" lon="0.9334603677843801"><ele>96.0</ele><time>2026-04-13T16:50:40Z</time></trkpt><trkpt lat="44.51565104750202" lon="0.9334743426054257"><ele>96.0</ele><time>2026-04-13T16:50:41Z</time></trkpt><trkpt lat="44.51581200047217" lon="0.9334570128461569"><ele>96.33333333333334</ele><time>2026-04-13T16:50:42Z</time></trkpt><trkpt lat="44.51597151392058" lon="0.933432472415235"><ele>96.66666666666667</ele><time>2026-04-13T16:50:43Z</time></trkpt><trkpt lat="44.51614294463291" lon="0.933393603871123"><ele>97.0</ele><time>2026-04-13T16:50:44Z</time></trkpt><trkpt lat="44.51631402739728" lon="0.9333346530770467"><ele>97.66666666666667</ele><time>2026-04-13T16:50:45Z</time></trkpt><trkpt lat="44.516493882993" lon="0.93333035017147"><ele>98.33333333333334</ele><time>2026-04-13T16:50:46Z</time></trkpt><trkpt lat="44.51667958954061" lon="0.9333359142160655"><ele>99.0</ele><time>2026-04-13T16:50:47Z</time></trkpt><trkpt lat="44.516861476003186" lon="0.9333611060095276"><ele>99.0</ele><time>2026-04-13T16:50:48Z</time></trkpt><trkpt lat="44.51705066020642" lon="0.9333847615464197"><ele>99.0</ele><time>2026-04-13T16:50:49Z</time></trkpt><trkpt lat="44.51722259573674" lon="0.9334307514447178"><ele>99.0</ele><time>2026-04-13T16:50:50Z</time></trkpt><trkpt lat="44.517414874303974" lon="0.9334836852332449"><ele>98.0</ele><time>2026-04-13T16:50:51Z</time></trkpt><trkpt lat="44.5176035516074" lon="0.9335274063395428"><ele>97.0</ele><time>2026-04-13T16:50:52Z</time></trkpt><trkpt lat="44.517774999275595" lon="0.9335255743129595"><ele>96.0</ele><time>2026-04-13T16:50:53Z</time></trkpt><trkpt lat="44.517956544784965" lon="0.9334661447114616"><ele>96.0</ele><time>2026-04-13T16:50:54Z</time></trkpt><trkpt lat="44.51813599801594" lon="0.933389306568689"><ele>96.0</ele><time>2026-04-13T16:50:55Z</time></trkpt><trkpt lat="44.518318596122114" lon="0.9333204388077869"><ele>96.0</ele><time>2026-04-13T16:50:56Z</time></trkpt><trkpt lat="44.51850821003073" lon="0.9332544634810231"><ele>96.0</ele><time>2026-04-13T16:50:57Z</time></trkpt><trkpt lat="44.51869647157156" lon="0.9331787342508376"><ele>96.0</ele><time>2026-04-13T16:50:58Z</time></trkpt><trkpt lat="44.518886458709645" lon="0.933075437902931"><ele>96.0</ele><time>2026-04-13T16:50:59Z</time></trkpt><trkpt lat="44.51906470272574" lon="0.9329462366565733"><ele>94.0</ele><time>2026-04-13T16:51:00Z</time></trkpt><trkpt lat="44.51923395057311" lon="0.9327972007388262"><ele>92.0</ele><time>2026-04-13T16:51:01Z</time></trkpt><trkpt lat="44.519410921994556" lon="0.9326542166848435"><ele>90.0</ele><time>2026-04-13T16:51:02Z</time></trkpt><trkpt lat="44.519587508595926" lon="0.9325092978260596"><ele>89.33333333333333</ele><time>2026-04-13T16:51:03Z</time></trkpt><trkpt lat="44.51976711058264" lon="0.9323817381895644"><ele>88.66666666666666</ele><time>2026-04-13T16:51:04Z</time></trkpt><trkpt lat="44.519963619982974" lon="0.9323012538858607"><ele>88.0</ele><time>2026-04-13T16:51:05Z</time></trkpt><trkpt lat="44.52015301272465" lon="0.9322113586385551"><ele>88.0</ele><time>2026-04-13T16:51:06Z</time></trkpt><trkpt lat="44.52033969035857" lon="0.9321007377297958"><ele>88.0</ele><time>2026-04-13T16:51:07Z</time></trkpt><trkpt lat="44.52053466774362" lon="0.9320140883661345"><ele>88.0</ele><time>2026-04-13T16:51:08Z</time></trkpt><trkpt lat="44.52070084820207" lon="0.9319442992071073"><ele>87.25</ele><time>2026-04-13T16:51:09Z</time></trkpt><trkpt lat="44.52084373067388" lon="0.9318809105872918"><ele>86.5</ele><time>2026-04-13T16:51:10Z</time></trkpt><trkpt lat="44.52096620470827" lon="0.9318449976119642"><ele>85.75</ele><time>2026-04-13T16:51:11Z</time></trkpt><trkpt lat="44.52106948678564" lon="0.9318279910665016"><ele>85.0</ele><time>2026-04-13T16:51:12Z</time></trkpt><trkpt lat="44.52118190321677" lon="0.9318600735167302"><ele>87.0</ele><time>2026-04-13T16:51:13Z</time></trkpt><trkpt lat="44.52129437773995" lon="0.9319810115638545"><ele>89.0</ele><time>2026-04-13T16:51:14Z</time></trkpt><trkpt lat="44.52140604413188" lon="0.9321156722298747"><ele>91.0</ele><time>2026-04-13T16:51:15Z</time></trkpt><trkpt lat="44.521483591548055" lon="0.9322930793915588"><ele>93.0</ele><time>2026-04-13T16:51:16Z</time></trkpt><trkpt lat="44.52155558108624" lon="0.9324909923117263"><ele>92.33333333333333</ele><time>2026-04-13T16:51:17Z</time></trkpt><trkpt lat="44.52164058799018" lon="0.9326980978807192"><ele>91.66666666666666</ele><time>2026-04-13T16:51:18Z</time></trkpt><trkpt lat="44.521698193179546" lon="0.9329146214947079"><ele>91.0</ele><time>2026-04-13T16:51:19Z</time></trkpt><trkpt lat="44.52175906551939" lon="0.933140079494799"><ele>91.0</ele><time>2026-04-13T16:51:19.999Z</time></trkpt><trkpt lat="44.52177251365158" lon="0.9333808391442654"><ele>91.0</ele><time>2026-04-13T16:51:20.999Z</time></trkpt><trkpt lat="44.521779329558264" lon="0.9336174193139798"><ele>91.0</ele><time>2026-04-13T16:51:21.999Z</time></trkpt><trkpt lat="44.521744475631714" lon="0.9338461475744975"><ele>92.33333333333333</ele><time>2026-04-13T16:51:22.999Z</time></trkpt><trkpt lat="44.52168735758582" lon="0.9340711277906558"><ele>93.66666666666667</ele><time>2026-04-13T16:51:23.999Z</time></trkpt><trkpt lat="44.52161151930062" lon="0.9342813713502861"><ele>95.0</ele><time>2026-04-13T16:51:24.999Z</time></trkpt><trkpt lat="44.5215042465886" lon="0.9344697725228489"><ele>96.0</ele><time>2026-04-13T16:51:25.999Z</time></trkpt><trkpt lat="44.52138601138934" lon="0.9346518296499564"><ele>97.0</ele><time>2026-04-13T16:51:26.999Z</time></trkpt><trkpt lat="44.52127615018235" lon="0.9348426326052622"><ele>98.0</ele><time>2026-04-13T16:51:27.999Z</time></trkpt><trkpt lat="44.52119694836529" lon="0.9349908560894722"><ele>97.5</ele><time>2026-04-13T16:51:28.999Z</time></trkpt><trkpt lat="44.5211663330877" lon="0.9351570747814645"><ele>97.0</ele><time>2026-04-13T16:51:29.999Z</time></trkpt><trkpt lat="44.52116264545842" lon="0.9353326292922275"><ele>96.5</ele><time>2026-04-13T16:51:30.999Z</time></trkpt><trkpt lat="44.521184815169995" lon="0.9355202114060727"><ele>96.0</ele><time>2026-04-13T16:51:31.999Z</time></trkpt><trkpt lat="44.52125095097429" lon="0.9356899231551956"><ele>96.0</ele><time>2026-04-13T16:51:32.999Z</time></trkpt><trkpt lat="44.521354451757105" lon="0.9358042882181159"><ele>96.0</ele><time>2026-04-13T16:51:33.999Z</time></trkpt><trkpt lat="44.52149536842348" lon="0.9358761044109751"><ele>96.0</ele><time>2026-04-13T16:51:34.999Z</time></trkpt><trkpt lat="44.52164474230355" lon="0.9359263983509166"><ele>96.0</ele><time>2026-04-13T16:51:35.999Z</time></trkpt><trkpt lat="44.52179973544885" lon="0.9359942551180015"><ele>93.33333333333333</ele><time>2026-04-13T16:51:36.999Z</time></trkpt><trkpt lat="44.52196774989804" lon="0.936003508579455"><ele>90.66666666666666</ele><time>2026-04-13T16:51:37.999Z</time></trkpt><trkpt lat="44.5221355083258" lon="0.9360392747540891"><ele>88.0</ele><time>2026-04-13T16:51:38.999Z</time></trkpt><trkpt lat="44.522306716543255" lon="0.9360782355710179"><ele>87.33333333333333</ele><time>2026-04-13T16:51:39.999Z</time></trkpt><trkpt lat="44.5224871394771" lon="0.9361126041636282"><ele>86.66666666666667</ele><time>2026-04-13T16:51:40.999Z</time></trkpt><trkpt lat="44.522675431773344" lon="0.9361502213099214"><ele>86.0</ele><time>2026-04-13T16:51:41.999Z</time></trkpt><trkpt lat="44.52286141719071" lon="0.9361776435183035"><ele>86.66666666666667</ele><time>2026-04-13T16:51:42.999Z</time></trkpt><trkpt lat="44.523042341523585" lon="0.9362140212457706"><ele>87.33333333333333</ele><time>2026-04-13T16:51:43.999Z</time></trkpt><trkpt lat="44.52322332067316" lon="0.9362234127370694"><ele>88.0</ele><time>2026-04-13T16:51:44.999Z</time></trkpt><trkpt lat="44.523403368311136" lon="0.936240174647638"><ele>88.0</ele><time>2026-04-13T16:51:45.999Z</time></trkpt><trkpt lat="44.52358872901481" lon="0.9362801582983775"><ele>88.0</ele><time>2026-04-13T16:51:46.999Z</time></trkpt><trkpt lat="44.52376645413396" lon="0.9363499395644809"><ele>88.0</ele><time>2026-04-13T16:51:47.999Z</time></trkpt><trkpt lat="44.52393895627161" lon="0.9364356202275332"><ele>88.0</ele><time>2026-04-13T16:51:48.999Z</time></trkpt><trkpt lat="44.52410842371249" lon="0.9365317275062401"><ele>88.0</ele><time>2026-04-13T16:51:49.999Z</time></trkpt><trkpt lat="44.524278023161116" lon="0.9366050718103659"><ele>88.0</ele><time>2026-04-13T16:51:50.999Z</time></trkpt><trkpt lat="44.52443619808096" lon="0.9367280667036928"><ele>89.66666666666666</ele><time>2026-04-13T16:51:51.999Z</time></trkpt><trkpt lat="44.52460609460321" lon="0.9368186038058084"><ele>91.33333333333333</ele><time>2026-04-13T16:51:52.999Z</time></trkpt><trkpt lat="44.52476741996841" lon="0.9369370502165947"><ele>93.0</ele><time>2026-04-13T16:51:53.999Z</time></trkpt><trkpt lat="44.524928072497204" lon="0.9370609603901983"><ele>93.0</ele><time>2026-04-13T16:51:54.999Z</time></trkpt><trkpt lat="44.52508170922805" lon="0.9371993206223863"><ele>93.0</ele><time>2026-04-13T16:51:55.999Z</time></trkpt><trkpt lat="44.525260909135326" lon="0.9373097559722702"><ele>93.0</ele><time>2026-04-13T16:51:56.999Z</time></trkpt><trkpt lat="44.525433584102814" lon="0.9374298023015456"><ele>93.33333333333333</ele><time>2026-04-13T16:51:57.999Z</time></trkpt><trkpt lat="44.52559733461405" lon="0.9375470600203578"><ele>93.66666666666666</ele><time>2026-04-13T16:51:58.999Z</time></trkpt><trkpt lat="44.525740238420255" lon="0.9376584634919554"><ele>94.0</ele><time>2026-04-13T16:51:59.999Z</time></trkpt><trkpt lat="44.52587716578346" lon="0.937740020238449"><ele>93.0</ele><time>2026-04-13T16:52:00.999Z</time></trkpt><trkpt lat="44.52600795351054" lon="0.937811795483207"><ele>92.0</ele><time>2026-04-13T16:52:01.999Z</time></trkpt><trkpt lat="44.52615507891034" lon="0.9378947793652346"><ele>91.0</ele><time>2026-04-13T16:52:02.999Z</time></trkpt><trkpt lat="44.52631048169427" lon="0.9379867974382099"><ele>91.0</ele><time>2026-04-13T16:52:03.999Z</time></trkpt><trkpt lat="44.526474966447275" lon="0.9380881184756066"><ele>91.0</ele><time>2026-04-13T16:52:04.999Z</time></trkpt><trkpt lat="44.52664193866543" lon="0.9381974299465371"><ele>91.0</ele><time>2026-04-13T16:52:05.999Z</time></trkpt><trkpt lat="44.52681149373045" lon="0.9383193519799484"><ele>91.5</ele><time>2026-04-13T16:52:07Z</time></trkpt><trkpt lat="44.52696529197083" lon="0.9384394832924045"><ele>92.0</ele><time>2026-04-13T16:52:08Z</time></trkpt><trkpt lat="44.52709486155721" lon="0.9385527256495088"><ele>92.5</ele><time>2026-04-13T16:52:09Z</time></trkpt><trkpt lat="44.527201017849485" lon="0.9386203943111532"><ele>93.0</ele><time>2026-04-13T16:52:10Z</time></trkpt><trkpt lat="44.52726773582728" lon="0.9386780576974438"><ele>93.0</ele><time>2026-04-13T16:52:11Z</time></trkpt><trkpt lat="44.52734261120456" lon="0.9387475200520703"><ele>93.0</ele><time>2026-04-13T16:52:13Z</time></trkpt><trkpt lat="44.52747101847831" lon="0.9388361691889784"><ele>93.0</ele><time>2026-04-13T16:52:18Z</time></trkpt><trkpt lat="44.52757709319931" lon="0.9388628980232743"><ele>93.0</ele><time>2026-04-13T16:52:19Z</time></trkpt><trkpt lat="44.527690834665414" lon="0.9389049032132483"><ele>93.0</ele><time>2026-04-13T16:52:20Z</time></trkpt><trkpt lat="44.52781359356968" lon="0.938945314234373"><ele>93.0</ele><time>2026-04-13T16:52:21Z</time></trkpt><trkpt lat="44.52794031279343" lon="0.9390098912182079"><ele>93.0</ele><time>2026-04-13T16:52:22Z</time></trkpt><trkpt lat="44.52808291955843" lon="0.9390400003151541"><ele>93.0</ele><time>2026-04-13T16:52:23Z</time></trkpt><trkpt lat="44.52822775314678" lon="0.9390919185975994"><ele>93.66666666666667</ele><time>2026-04-13T16:52:24Z</time></trkpt><trkpt lat="44.52838278695551" lon="0.9391459492015759"><ele>94.33333333333334</ele><time>2026-04-13T16:52:25Z</time></trkpt><trkpt lat="44.52854328612402" lon="0.9392071762868996"><ele>95.0</ele><time>2026-04-13T16:52:26Z</time></trkpt><trkpt lat="44.52870779320141" lon="0.9392757865062923"><ele>94.33333333333334</ele><time>2026-04-13T16:52:27Z</time></trkpt><trkpt lat="44.52887289611821" lon="0.9393442122999028"><ele>93.66666666666667</ele><time>2026-04-13T16:52:28Z</time></trkpt><trkpt lat="44.52904261842918" lon="0.9394239247679113"><ele>93.0</ele><time>2026-04-13T16:52:29Z</time></trkpt><trkpt lat="44.529221507499436" lon="0.9394938446586825"><ele>93.0</ele><time>2026-04-13T16:52:30Z</time></trkpt><trkpt lat="44.52940079307371" lon="0.939590570031129"><ele>93.0</ele><time>2026-04-13T16:52:31Z</time></trkpt><trkpt lat="44.52959044106468" lon="0.939657992852463"><ele>93.0</ele><time>2026-04-13T16:52:32Z</time></trkpt><trkpt lat="44.52977661303412" lon="0.9397379590178002"><ele>92.33333333333333</ele><time>2026-04-13T16:52:33Z</time></trkpt><trkpt lat="44.52996185940393" lon="0.9398260494468553"><ele>91.66666666666666</ele><time>2026-04-13T16:52:34Z</time></trkpt><trkpt lat="44.53013522722843" lon="0.9399552367507304"><ele>91.0</ele><time>2026-04-13T16:52:35Z</time></trkpt><trkpt lat="44.53031878417195" lon="0.9400605591257407"><ele>90.66666666666666</ele><time>2026-04-13T16:52:36Z</time></trkpt><trkpt lat="44.530494080083535" lon="0.9401889784552357"><ele>90.33333333333333</ele><time>2026-04-13T16:52:37Z</time></trkpt><trkpt lat="44.530656710678706" lon="0.9402850681748812"><ele>90.0</ele><time>2026-04-13T16:52:38Z</time></trkpt><trkpt lat="44.53083099839683" lon="0.9403732082894937"><ele>90.0</ele><time>2026-04-13T16:52:39Z</time></trkpt><trkpt lat="44.53100453264441" lon="0.9404459188340096"><ele>90.0</ele><time>2026-04-13T16:52:40Z</time></trkpt><trkpt lat="44.5312026258851" lon="0.9405100026221058"><ele>90.0</ele><time>2026-04-13T16:52:41Z</time></trkpt><trkpt lat="44.53139078667505" lon="0.9405591609062806"><ele>89.0</ele><time>2026-04-13T16:52:42Z</time></trkpt><trkpt lat="44.53157908305052" lon="0.940638825386846"><ele>88.0</ele><time>2026-04-13T16:52:43Z</time></trkpt><trkpt lat="44.5317699413194" lon="0.9406972427873336"><ele>87.0</ele><time>2026-04-13T16:52:44Z</time></trkpt><trkpt lat="44.53195863842504" lon="0.9407627582318121"><ele>87.33333333333333</ele><time>2026-04-13T16:52:45Z</time></trkpt><trkpt lat="44.53215032685685" lon="0.9408560128958866"><ele>87.66666666666666</ele><time>2026-04-13T16:52:46Z</time></trkpt><trkpt lat="44.53232189784721" lon="0.9409775878623727"><ele>88.0</ele><time>2026-04-13T16:52:47Z</time></trkpt><trkpt lat="44.53248199135768" lon="0.941124736047212"><ele>88.0</ele><time>2026-04-13T16:52:48Z</time></trkpt><trkpt lat="44.532649200495555" lon="0.9412664183897456"><ele>88.0</ele><time>2026-04-13T16:52:49Z</time></trkpt><trkpt lat="44.53283181607857" lon="0.9413704739042298"><ele>88.0</ele><time>2026-04-13T16:52:50Z</time></trkpt><trkpt lat="44.533013255873314" lon="0.9414508619825487"><ele>88.66666666666666</ele><time>2026-04-13T16:52:51Z</time></trkpt><trkpt lat="44.533210434149744" lon="0.9415064632795024"><ele>89.33333333333333</ele><time>2026-04-13T16:52:52Z</time></trkpt><trkpt lat="44.53340247629055" lon="0.9415649783297829"><ele>90.0</ele><time>2026-04-13T16:52:53Z</time></trkpt><trkpt lat="44.53358872724051" lon="0.9416326652682506"><ele>90.0</ele><time>2026-04-13T16:52:54Z</time></trkpt><trkpt lat="44.533771977059686" lon="0.9416999823075973"><ele>90.0</ele><time>2026-04-13T16:52:55Z</time></trkpt><trkpt lat="44.53394774120227" lon="0.9418107457109895"><ele>90.0</ele><time>2026-04-13T16:52:56Z</time></trkpt><trkpt lat="44.534119641888395" lon="0.9419129875372304"><ele>90.0</ele><time>2026-04-13T16:52:57Z</time></trkpt><trkpt lat="44.53429081868153" lon="0.9420203742253508"><ele>90.0</ele><time>2026-04-13T16:52:58Z</time></trkpt><trkpt lat="44.53443796086225" lon="0.9421119895171778"><ele>90.0</ele><time>2026-04-13T16:52:59Z</time></trkpt><trkpt lat="44.53459389281509" lon="0.9421875536859899"><ele>90.25</ele><time>2026-04-13T16:53:00Z</time></trkpt><trkpt lat="44.53471883805546" lon="0.9422743454596835"><ele>90.5</ele><time>2026-04-13T16:53:01Z</time></trkpt><trkpt lat="44.534810666494494" lon="0.9423890080335284"><ele>90.75</ele><time>2026-04-13T16:53:02Z</time></trkpt><trkpt lat="44.53487663325852" lon="0.9425172096162513"><ele>91.0</ele><time>2026-04-13T16:53:03Z</time></trkpt><trkpt lat="44.534897225087214" lon="0.9426769099875735"><ele>91.0</ele><time>2026-04-13T16:53:04Z</time></trkpt><trkpt lat="44.53488497799671" lon="0.9428328489560063"><ele>91.0</ele><time>2026-04-13T16:53:05Z</time></trkpt><trkpt lat="44.5348983827634" lon="0.9429685861766819"><ele>91.0</ele><time>2026-04-13T16:53:06Z</time></trkpt><trkpt lat="44.53499389498023" lon="0.9430640343379211"><ele>91.0</ele><time>2026-04-13T16:53:07Z</time></trkpt><trkpt lat="44.53511009010052" lon="0.9431224968304899"><ele>91.0</ele><time>2026-04-13T16:53:08Z</time></trkpt><trkpt lat="44.535243226793206" lon="0.9431560157614846"><ele>91.0</ele><time>2026-04-13T16:53:09Z</time></trkpt><trkpt lat="44.53538027209533" lon="0.9432132149939324"><ele>91.0</ele><time>2026-04-13T16:53:10Z</time></trkpt><trkpt lat="44.535517868114816" lon="0.9433019446149874"><ele>91.0</ele><time>2026-04-13T16:53:11Z</time></trkpt><trkpt lat="44.53566224364099" lon="0.9434046483547484"><ele>90.33333333333333</ele><time>2026-04-13T16:53:12Z</time></trkpt><trkpt lat="44.53581112229497" lon="0.9435196568914481"><ele>89.66666666666667</ele><time>2026-04-13T16:53:12.999Z</time></trkpt><trkpt lat="44.53594638214048" lon="0.9436720113155945"><ele>89.0</ele><time>2026-04-13T16:53:13.999Z</time></trkpt><trkpt lat="44.536086600116285" lon="0.943824137241635"><ele>90.33333333333334</ele><time>2026-04-13T16:53:14.999Z</time></trkpt><trkpt lat="44.53623051666513" lon="0.9439798207662279"><ele>91.66666666666667</ele><time>2026-04-13T16:53:15.999Z</time></trkpt><trkpt lat="44.53637363870948" lon="0.9441282652014722"><ele>93.0</ele><time>2026-04-13T16:53:16.999Z</time></trkpt><trkpt lat="44.53653357245131" lon="0.9442514563319748"><ele>93.0</ele><time>2026-04-13T16:53:17.999Z</time></trkpt><trkpt lat="44.536701331899174" lon="0.944332271428049"><ele>93.0</ele><time>2026-04-13T16:53:18.999Z</time></trkpt><trkpt lat="44.536856431419785" lon="0.9443804502474629"><ele>93.0</ele><time>2026-04-13T16:53:19.999Z</time></trkpt><trkpt lat="44.53699098176846" lon="0.9444234306883804"><ele>92.5</ele><time>2026-04-13T16:53:20.999Z</time></trkpt><trkpt lat="44.537091503781994" lon="0.9444824926086144"><ele>92.0</ele><time>2026-04-13T16:53:21.999Z</time></trkpt><trkpt lat="44.537162333095274" lon="0.9445866615922822"><ele>91.5</ele><time>2026-04-13T16:53:22.999Z</time></trkpt><trkpt lat="44.53722038827676" lon="0.9447193900150823"><ele>91.0</ele><time>2026-04-13T16:53:23.999Z</time></trkpt><trkpt lat="44.53720569051756" lon="0.9449129558843402"><ele>91.0</ele><time>2026-04-13T16:53:24.999Z</time></trkpt><trkpt lat="44.53724146722459" lon="0.9451147892773132"><ele>91.0</ele><time>2026-04-13T16:53:25.999Z</time></trkpt><trkpt lat="44.537261351489605" lon="0.9453321624763455"><ele>91.0</ele><time>2026-04-13T16:53:26.999Z</time></trkpt><trkpt lat="44.53730545668957" lon="0.9455526854577145"><ele>91.0</ele><time>2026-04-13T16:53:27.999Z</time></trkpt><trkpt lat="44.53734101157854" lon="0.9457770408228185"><ele>91.0</ele><time>2026-04-13T16:53:28.999Z</time></trkpt><trkpt lat="44.537381310996416" lon="0.9459781999080362"><ele>91.0</ele><time>2026-04-13T16:53:29.999Z</time></trkpt><trkpt lat="44.53741149348703" lon="0.9461325197699341"><ele>91.0</ele><time>2026-04-13T16:53:30.999Z</time></trkpt><trkpt lat="44.53742799934968" lon="0.9462431335086935"><ele>93.5</ele><time>2026-04-13T16:53:31.999Z</time></trkpt><trkpt lat="44.53743560637296" lon="0.9463554356005922"><ele>96.0</ele><time>2026-04-13T16:53:33.999Z</time></trkpt><trkpt lat="44.53730559119906" lon="0.9464442403901993"><ele>98.5</ele><time>2026-04-13T16:53:34.999Z</time></trkpt><trkpt lat="44.53720323844686" lon="0.9465145049926524"><ele>101.0</ele><time>2026-04-13T16:53:35.999Z</time></trkpt><trkpt lat="44.53708847059671" lon="0.9465870886064605"><ele>99.75</ele><time>2026-04-13T16:53:36.999Z</time></trkpt><trkpt lat="44.53697112329809" lon="0.9466885666712325"><ele>98.5</ele><time>2026-04-13T16:53:37.999Z</time></trkpt><trkpt lat="44.53685117261845" lon="0.9468100449658547"><ele>97.25</ele><time>2026-04-13T16:53:38.999Z</time></trkpt><trkpt lat="44.53672718924723" lon="0.9469363622811925"><ele>96.0</ele><time>2026-04-13T16:53:39.999Z</time></trkpt><trkpt lat="44.53660239025426" lon="0.9470593124623312"><ele>96.0</ele><time>2026-04-13T16:53:40.999Z</time></trkpt><trkpt lat="44.536467466496546" lon="0.9471972029629192"><ele>96.0</ele><time>2026-04-13T16:53:41.999Z</time></trkpt><trkpt lat="44.5363258316053" lon="0.9473323221695837"><ele>96.0</ele><time>2026-04-13T16:53:42.999Z</time></trkpt><trkpt lat="44.53618197074195" lon="0.9474751661785589"><ele>96.66666666666666</ele><time>2026-04-13T16:53:43.999Z</time></trkpt><trkpt lat="44.53603075054274" lon="0.9476174137311129"><ele>97.33333333333333</ele><time>2026-04-13T16:53:44.999Z</time></trkpt><trkpt lat="44.53587566836904" lon="0.9477572346657691"><ele>98.0</ele><time>2026-04-13T16:53:45.999Z</time></trkpt><trkpt lat="44.53571342110331" lon="0.9478958391383615"><ele>98.0</ele><time>2026-04-13T16:53:46.999Z</time></trkpt><trkpt lat="44.535550197048835" lon="0.9480299248453443"><ele>98.0</ele><time>2026-04-13T16:53:47.999Z</time></trkpt><trkpt lat="44.53537480045893" lon="0.9481502313219794"><ele>98.0</ele><time>2026-04-13T16:53:48.999Z</time></trkpt><trkpt lat="44.53520065731528" lon="0.9482633559639225"><ele>97.0</ele><time>2026-04-13T16:53:49.999Z</time></trkpt><trkpt lat="44.535026200192846" lon="0.9483464532426468"><ele>96.0</ele><time>2026-04-13T16:53:50.999Z</time></trkpt><trkpt lat="44.53488200559675" lon="0.9484251263687336"><ele>95.0</ele><time>2026-04-13T16:53:51.999Z</time></trkpt><trkpt lat="44.534746911695656" lon="0.9484970533002987"><ele>95.0</ele><time>2026-04-13T16:53:52.999Z</time></trkpt><trkpt lat="44.534657096668965" lon="0.94872039284604"><ele>95.0</ele><time>2026-04-13T16:53:53.999Z</time></trkpt><trkpt lat="44.53455219261437" lon="0.9488313104341853"><ele>95.0</ele><time>2026-04-13T16:53:54.999Z</time></trkpt><trkpt lat="44.5344386304759" lon="0.9489092447664386"><ele>95.0</ele><time>2026-04-13T16:53:55.999Z</time></trkpt><trkpt lat="44.53435366273883" lon="0.9489832823240734"><ele>95.5</ele><time>2026-04-13T16:53:56.999Z</time></trkpt><trkpt lat="44.53426136649114" lon="0.9490513036299519"><ele>96.0</ele><time>2026-04-13T16:53:57.999Z</time></trkpt><trkpt lat="44.534255278773394" lon="0.9492437998881618"><ele>96.5</ele><time>2026-04-13T16:53:58.999Z</time></trkpt><trkpt lat="44.53424691504645" lon="0.949425092284037"><ele>97.0</ele><time>2026-04-13T16:53:59.999Z</time></trkpt><trkpt lat="44.534212218712184" lon="0.9496004673446504"><ele>99.0</ele><time>2026-04-13T16:54:00.999Z</time></trkpt><trkpt lat="44.53419248285523" lon="0.9497890380987948"><ele>101.0</ele><time>2026-04-13T16:54:01.999Z</time></trkpt><trkpt lat="44.53417204581568" lon="0.9499879971826488"><ele>103.0</ele><time>2026-04-13T16:54:02.999Z</time></trkpt><trkpt lat="44.53415377183368" lon="0.9501866958508747"><ele>105.0</ele><time>2026-04-13T16:54:03.999Z</time></trkpt><trkpt lat="44.53413814157379" lon="0.9503957763296547"><ele>106.0</ele><time>2026-04-13T16:54:04.999Z</time></trkpt><trkpt lat="44.53412714119068" lon="0.950605832830884"><ele>107.0</ele><time>2026-04-13T16:54:05.999Z</time></trkpt><trkpt lat="44.53412368606348" lon="0.9508167659451787"><ele>108.0</ele><time>2026-04-13T16:54:06.999Z</time></trkpt><trkpt lat="44.534121923413664" lon="0.9510401363619618"><ele>108.0</ele><time>2026-04-13T16:54:07.999Z</time></trkpt><trkpt lat="44.53411903135418" lon="0.9512709322675627"><ele>108.0</ele><time>2026-04-13T16:54:08.999Z</time></trkpt><trkpt lat="44.53411503050473" lon="0.9515103778909437"><ele>108.0</ele><time>2026-04-13T16:54:09.999Z</time></trkpt><trkpt lat="44.53410845699436" lon="0.9517536300428451"><ele>109.33333333333334</ele><time>2026-04-13T16:54:10.999Z</time></trkpt><trkpt lat="44.534096258724624" lon="0.9520005660721701"><ele>110.66666666666667</ele><time>2026-04-13T16:54:11.999Z</time></trkpt><trkpt lat="44.53405394207543" lon="0.9522332560896066"><ele>112.0</ele><time>2026-04-13T16:54:13Z</time></trkpt><trkpt lat="44.53397473576194" lon="0.9524504588545087"><ele>113.66666666666667</ele><time>2026-04-13T16:54:14Z</time></trkpt><trkpt lat="44.533889934347044" lon="0.9526723828121365"><ele>115.33333333333334</ele><time>2026-04-13T16:54:15Z</time></trkpt><trkpt lat="44.533806467746246" lon="0.9528953852216882"><ele>117.0</ele><time>2026-04-13T16:54:16Z</time></trkpt><trkpt lat="44.533730697866076" lon="0.9531290636510305"><ele>116.33333333333334</ele><time>2026-04-13T16:54:17Z</time></trkpt><trkpt lat="44.53366456764413" lon="0.9533531526456689"><ele>115.66666666666667</ele><time>2026-04-13T16:54:18Z</time></trkpt><trkpt lat="44.53361133646822" lon="0.9535882417434326"><ele>115.0</ele><time>2026-04-13T16:54:19Z</time></trkpt><trkpt lat="44.53353966218443" lon="0.9538108257066771"><ele>117.66666666666667</ele><time>2026-04-13T16:54:20Z</time></trkpt><trkpt lat="44.53348406960624" lon="0.9540311831400666"><ele>120.33333333333334</ele><time>2026-04-13T16:54:21Z</time></trkpt><trkpt lat="44.53343832548813" lon="0.9542378706391182"><ele>123.0</ele><time>2026-04-13T16:54:22Z</time></trkpt><trkpt lat="44.5334064630536" lon="0.9544369084093028"><ele>123.4</ele><time>2026-04-13T16:54:23Z</time></trkpt><trkpt lat="44.53339875955776" lon="0.9546162956050834"><ele>123.80000000000001</ele><time>2026-04-13T16:54:24Z</time></trkpt><trkpt lat="44.53339077053412" lon="0.9547434701246486"><ele>124.2</ele><time>2026-04-13T16:54:25Z</time></trkpt><trkpt lat="44.53339220784253" lon="0.9548447798311652"><ele>124.6</ele><time>2026-04-13T16:54:26Z</time></trkpt><trkpt lat="44.5333829438167" lon="0.9549750778690834"><ele>125.0</ele><time>2026-04-13T16:54:28Z</time></trkpt><trkpt lat="44.533533501470416" lon="0.9550510193379549"><ele>125.0</ele><time>2026-04-13T16:54:32Z</time></trkpt><trkpt lat="44.53361460573034" lon="0.9551311308254444"><ele>125.0</ele><time>2026-04-13T16:54:37Z</time></trkpt><trkpt lat="44.53355617928639" lon="0.9550825542654808"><ele>125.0</ele><time>2026-04-13T17:04:28.999Z</time></trkpt><trkpt lat="44.53362859793557" lon="0.955101065335917"><ele>125.0</ele><time>2026-04-13T17:10:21.999Z</time></trkpt><trkpt lat="44.53356574073259" lon="0.9550799208794775"><ele>125.0</ele><time>2026-04-13T17:14:06.999Z</time></trkpt><trkpt lat="44.53363097746325" lon="0.9551000123904801"><ele>125.0</ele><time>2026-04-13T17:14:11.999Z</time></trkpt><trkpt lat="44.53356553403006" lon="0.9550936818433733"><ele>125.0</ele><time>2026-04-13T17:20:04Z</time></trkpt><trkpt lat="44.5336430776577" lon="0.9550824633584809"><ele>125.0</ele><time>2026-04-13T17:22:10Z</time></trkpt><trkpt lat="44.53357487852192" lon="0.9550900160779325"><ele>125.0</ele><time>2026-04-13T17:25:14.999Z</time></trkpt><trkpt lat="44.533610410336976" lon="0.9551642439910636"><ele>125.0</ele><time>2026-04-13T17:25:57Z</time></trkpt><trkpt lat="44.53355414288738" lon="0.9552266179895027"><ele>125.0</ele><time>2026-04-13T17:26:21Z</time></trkpt><trkpt lat="44.53361520704704" lon="0.9551581816145197"><ele>125.0</ele><time>2026-04-13T17:26:50.999Z</time></trkpt><trkpt lat="44.533553893561916" lon="0.9551161975771466"><ele>125.0</ele><time>2026-04-13T17:26:58.999Z</time></trkpt><trkpt lat="44.53364252578301" lon="0.9550777836354704"><ele>125.0</ele><time>2026-04-13T17:27:46.999Z</time></trkpt><trkpt lat="44.533689869005975" lon="0.9550178491548917"><ele>125.0</ele><time>2026-04-13T17:30:44Z</time></trkpt><trkpt lat="44.53363189365085" lon="0.9550842533699283"><ele>125.0</ele><time>2026-04-13T17:31:29.999Z</time></trkpt><trkpt lat="44.533568986834695" lon="0.9550990569049538"><ele>125.0</ele><time>2026-04-13T17:32:35Z</time></trkpt><trkpt lat="44.53364017745927" lon="0.9551186448832829"><ele>125.0</ele><time>2026-04-13T17:32:54Z</time></trkpt><trkpt lat="44.533567148540804" lon="0.9550959706408618"><ele>125.0</ele><time>2026-04-13T17:33:15.999Z</time></trkpt><trkpt lat="44.53363472197503" lon="0.9551141900470292"><ele>125.0</ele><time>2026-04-13T17:34:53Z</time></trkpt><trkpt lat="44.533687870061435" lon="0.95517131827806"><ele>125.0</ele><time>2026-04-13T17:43:31.999Z</time></trkpt><trkpt lat="44.53375794916596" lon="0.9552153061366643"><ele>125.0</ele><time>2026-04-13T17:43:34.999Z</time></trkpt><trkpt lat="44.53356551547804" lon="0.9550725078847665"><ele>125.0</ele><time>2026-04-13T17:43:35.999Z</time></trkpt><trkpt lat="44.53349268794999" lon="0.9550404435476922"><ele>125.0</ele><time>2026-04-13T17:44:55Z</time></trkpt><trkpt lat="44.53344185528427" lon="0.9549697311700034"><ele>125.0</ele><time>2026-04-13T17:44:58Z</time></trkpt><trkpt lat="44.53339109115123" lon="0.955046921713778"><ele>125.0</ele><time>2026-04-13T17:45:02Z</time></trkpt><trkpt lat="44.5333984837411" lon="0.9551608650460021"><ele>125.0</ele><time>2026-04-13T17:45:04Z</time></trkpt><trkpt lat="44.53336615907063" lon="0.9552817074021938"><ele>125.0</ele><time>2026-04-13T17:45:06Z</time></trkpt><trkpt lat="44.53331240737937" lon="0.9553978015942756"><ele>125.0</ele><time>2026-04-13T17:45:08Z</time></trkpt><trkpt lat="44.53323612249763" lon="0.955535344015015"><ele>125.0</ele><time>2026-04-13T17:45:10Z</time></trkpt><trkpt lat="44.53317866473098" lon="0.955644770202489"><ele>125.0</ele><time>2026-04-13T17:45:11Z</time></trkpt><trkpt lat="44.53309821277179" lon="0.9557233023418503"><ele>125.0</ele><time>2026-04-13T17:45:12Z</time></trkpt><trkpt lat="44.53304049780718" lon="0.9558265149774161"><ele>125.0</ele><time>2026-04-13T17:45:13Z</time></trkpt><trkpt lat="44.53297329917438" lon="0.9559431645848417"><ele>125.0</ele><time>2026-04-13T17:45:14Z</time></trkpt><trkpt lat="44.53289601874359" lon="0.9560768524754614"><ele>125.0</ele><time>2026-04-13T17:45:15Z</time></trkpt><trkpt lat="44.53282442641536" lon="0.9562035048800792"><ele>125.0</ele><time>2026-04-13T17:45:16Z</time></trkpt><trkpt lat="44.532750526958324" lon="0.9563368736899345"><ele>126.5</ele><time>2026-04-13T17:45:17Z</time></trkpt><trkpt lat="44.53267715322733" lon="0.9564692933545593"><ele>128.0</ele><time>2026-04-13T17:45:18Z</time></trkpt><trkpt lat="44.53259820886009" lon="0.9566117668306157"><ele>129.5</ele><time>2026-04-13T17:45:19Z</time></trkpt><trkpt lat="44.53252266401953" lon="0.9567481047086273"><ele>131.0</ele><time>2026-04-13T17:45:20Z</time></trkpt><trkpt lat="44.53244621190674" lon="0.9568884476158238"><ele>131.25</ele><time>2026-04-13T17:45:21Z</time></trkpt><trkpt lat="44.53238764601693" lon="0.9570290298763106"><ele>131.5</ele><time>2026-04-13T17:45:22Z</time></trkpt><trkpt lat="44.53230306430419" lon="0.9571717002258799"><ele>131.75</ele><time>2026-04-13T17:45:23Z</time></trkpt><trkpt lat="44.532224883002705" lon="0.9573118424852126"><ele>132.0</ele><time>2026-04-13T17:45:24Z</time></trkpt><trkpt lat="44.532120786941626" lon="0.957412033355405"><ele>132.75</ele><time>2026-04-13T17:45:25Z</time></trkpt><trkpt lat="44.532001440780654" lon="0.9575175630306216"><ele>133.5</ele><time>2026-04-13T17:45:26Z</time></trkpt><trkpt lat="44.53187807384967" lon="0.9576257993229458"><ele>134.25</ele><time>2026-04-13T17:45:27Z</time></trkpt><trkpt lat="44.53174459129832" lon="0.9577392620948718"><ele>135.0</ele><time>2026-04-13T17:45:28Z</time></trkpt><trkpt lat="44.53162197711156" lon="0.9578668169031763"><ele>136.0</ele><time>2026-04-13T17:45:29Z</time></trkpt><trkpt lat="44.53147433252812" lon="0.9579817973391304"><ele>137.0</ele><time>2026-04-13T17:45:30Z</time></trkpt><trkpt lat="44.53132463458257" lon="0.9580895437199989"><ele>138.0</ele><time>2026-04-13T17:45:30.999Z</time></trkpt><trkpt lat="44.531197314182215" lon="0.958190104235458"><ele>138.4</ele><time>2026-04-13T17:45:31.999Z</time></trkpt><trkpt lat="44.53109314532436" lon="0.9582706996541852"><ele>138.8</ele><time>2026-04-13T17:45:32.999Z</time></trkpt><trkpt lat="44.53099914550192" lon="0.9583377212452364"><ele>139.2</ele><time>2026-04-13T17:45:33.999Z</time></trkpt><trkpt lat="44.53090943639566" lon="0.9583983170881913"><ele>139.6</ele><time>2026-04-13T17:45:34.999Z</time></trkpt><trkpt lat="44.53083480384631" lon="0.958442856846192"><ele>140.0</ele><time>2026-04-13T17:45:35.999Z</time></trkpt><trkpt lat="44.530738240532145" lon="0.9584308609531542"><ele>140.0</ele><time>2026-04-13T17:45:37.999Z</time></trkpt><trkpt lat="44.53061371721918" lon="0.9582501450718103"><ele>140.0</ele><time>2026-04-13T17:45:39.999Z</time></trkpt><trkpt lat="44.53050771814788" lon="0.9581579836112887"><ele>140.0</ele><time>2026-04-13T17:45:40.999Z</time></trkpt><trkpt lat="44.53039124581804" lon="0.9580695456763589"><ele>140.0</ele><time>2026-04-13T17:45:41.999Z</time></trkpt><trkpt lat="44.53027520596887" lon="0.9579493421861167"><ele>140.2</ele><time>2026-04-13T17:45:42.999Z</time></trkpt><trkpt lat="44.530156076284776" lon="0.9578117551939126"><ele>140.4</ele><time>2026-04-13T17:45:43.999Z</time></trkpt><trkpt lat="44.53006756943292" lon="0.9577157504720217"><ele>140.6</ele><time>2026-04-13T17:45:44.999Z</time></trkpt><trkpt lat="44.52998779225673" lon="0.9576374793679691"><ele>140.8</ele><time>2026-04-13T17:45:45.999Z</time></trkpt><trkpt lat="44.52993647106963" lon="0.9575421854062682"><ele>141.0</ele><time>2026-04-13T17:45:46.999Z</time></trkpt><trkpt lat="44.52989670510884" lon="0.9574158554851361"><ele>140.4</ele><time>2026-04-13T17:45:47.999Z</time></trkpt><trkpt lat="44.529858985426245" lon="0.9572673591796089"><ele>139.8</ele><time>2026-04-13T17:45:48.999Z</time></trkpt><trkpt lat="44.52986243212723" lon="0.9571280022461811"><ele>139.20000000000002</ele><time>2026-04-13T17:45:49.999Z</time></trkpt><trkpt lat="44.52989212275652" lon="0.9570000278772414"><ele>138.6</ele><time>2026-04-13T17:45:50.999Z</time></trkpt><trkpt lat="44.529906389860884" lon="0.9568528781061298"><ele>138.0</ele><time>2026-04-13T17:45:51.999Z</time></trkpt><trkpt lat="44.529861718786805" lon="0.9567144232782513"><ele>138.0</ele><time>2026-04-13T17:45:52.999Z</time></trkpt><trkpt lat="44.52979479037828" lon="0.9565732442058059"><ele>138.0</ele><time>2026-04-13T17:45:53.999Z</time></trkpt><trkpt lat="44.52971149680706" lon="0.9564298544692718"><ele>138.0</ele><time>2026-04-13T17:45:54.999Z</time></trkpt><trkpt lat="44.52963905215271" lon="0.9562635372920687"><ele>138.0</ele><time>2026-04-13T17:45:55.999Z</time></trkpt><trkpt lat="44.529553970712904" lon="0.956099540616515"><ele>139.0</ele><time>2026-04-13T17:45:56.999Z</time></trkpt><trkpt lat="44.5294841136189" lon="0.9559450142391064"><ele>140.0</ele><time>2026-04-13T17:45:57.999Z</time></trkpt><trkpt lat="44.52942888129259" lon="0.9558159920831384"><ele>141.0</ele><time>2026-04-13T17:45:58.999Z</time></trkpt><trkpt lat="44.529376889098515" lon="0.9556685938615244"><ele>142.0</ele><time>2026-04-13T17:45:59.999Z</time></trkpt><trkpt lat="44.5293109842251" lon="0.9555369987161113"><ele>142.0</ele><time>2026-04-13T17:46:00.999Z</time></trkpt><trkpt lat="44.52922301254684" lon="0.955420230443081"><ele>142.0</ele><time>2026-04-13T17:46:01.999Z</time></trkpt><trkpt lat="44.529088954055" lon="0.9553379259614734"><ele>142.0</ele><time>2026-04-13T17:46:02.999Z</time></trkpt><trkpt lat="44.5289408996023" lon="0.955256176114696"><ele>142.0</ele><time>2026-04-13T17:46:03.999Z</time></trkpt><trkpt lat="44.5287938541112" lon="0.9551681806399975"><ele>142.66666666666669</ele><time>2026-04-13T17:46:04.999Z</time></trkpt><trkpt lat="44.52864596198257" lon="0.9550713616281733"><ele>143.33333333333334</ele><time>2026-04-13T17:46:05.999Z</time></trkpt><trkpt lat="44.52851101656121" lon="0.9549636876619018"><ele>144.0</ele><time>2026-04-13T17:46:06.999Z</time></trkpt><trkpt lat="44.52836041315829" lon="0.9548663508855115"><ele>142.0</ele><time>2026-04-13T17:46:07.999Z</time></trkpt><trkpt lat="44.52822140853856" lon="0.9547446700455429"><ele>140.0</ele><time>2026-04-13T17:46:08.999Z</time></trkpt><trkpt lat="44.528073778122625" lon="0.9546306852846396"><ele>138.0</ele><time>2026-04-13T17:46:09.999Z</time></trkpt><trkpt lat="44.52794595822506" lon="0.9544573315973542"><ele>139.0</ele><time>2026-04-13T17:46:10.999Z</time></trkpt><trkpt lat="44.527813244380205" lon="0.9543515860078426"><ele>140.0</ele><time>2026-04-13T17:46:11.999Z</time></trkpt><trkpt lat="44.52768923791093" lon="0.954259032447016"><ele>141.0</ele><time>2026-04-13T17:46:12.999Z</time></trkpt><trkpt lat="44.52758193573608" lon="0.9542400155191237"><ele>142.0</ele><time>2026-04-13T17:46:13.999Z</time></trkpt><trkpt lat="44.527488322462126" lon="0.9542086260098697"><ele>140.6</ele><time>2026-04-13T17:46:14.999Z</time></trkpt><trkpt lat="44.52738440954911" lon="0.9541671823709321"><ele>139.2</ele><time>2026-04-13T17:46:15.999Z</time></trkpt><trkpt lat="44.52729149406752" lon="0.9541241581936111"><ele>137.8</ele><time>2026-04-13T17:46:16.999Z</time></trkpt><trkpt lat="44.52719305934451" lon="0.9540907826509689"><ele>136.4</ele><time>2026-04-13T17:46:17.999Z</time></trkpt><trkpt lat="44.52710100514638" lon="0.9540646529522829"><ele>135.0</ele><time>2026-04-13T17:46:18.999Z</time></trkpt><trkpt lat="44.52698833031848" lon="0.9540319379216851"><ele>133.75</ele><time>2026-04-13T17:46:19.999Z</time></trkpt><trkpt lat="44.526867486570836" lon="0.9540002374456427"><ele>132.5</ele><time>2026-04-13T17:46:20.999Z</time></trkpt><trkpt lat="44.526747207503604" lon="0.953973506563047"><ele>131.25</ele><time>2026-04-13T17:46:21.999Z</time></trkpt><trkpt lat="44.5266170890919" lon="0.9539403494336199"><ele>130.0</ele><time>2026-04-13T17:46:22.999Z</time></trkpt><trkpt lat="44.52647162747843" lon="0.9539332236771179"><ele>130.0</ele><time>2026-04-13T17:46:23.999Z</time></trkpt><trkpt lat="44.526330539094204" lon="0.9539722737822603"><ele>130.0</ele><time>2026-04-13T17:46:24.999Z</time></trkpt><trkpt lat="44.52620972210378" lon="0.9539753314401564"><ele>130.0</ele><time>2026-04-13T17:46:25.999Z</time></trkpt><trkpt lat="44.52609172264876" lon="0.95394504886838"><ele>130.0</ele><time>2026-04-13T17:46:26.999Z</time></trkpt><trkpt lat="44.52599158449502" lon="0.953877880002759"><ele>129.75</ele><time>2026-04-13T17:46:27.999Z</time></trkpt><trkpt lat="44.52588595025984" lon="0.953817952659053"><ele>129.5</ele><time>2026-04-13T17:46:28.999Z</time></trkpt><trkpt lat="44.525769416738534" lon="0.9537444091355427"><ele>129.25</ele><time>2026-04-13T17:46:29.999Z</time></trkpt><trkpt lat="44.52565814422926" lon="0.9536531970817768"><ele>129.0</ele><time>2026-04-13T17:46:30.999Z</time></trkpt><trkpt lat="44.52555786065138" lon="0.9535460398617609"><ele>129.0</ele><time>2026-04-13T17:46:31.999Z</time></trkpt><trkpt lat="44.52546283158719" lon="0.953413254805448"><ele>129.0</ele><time>2026-04-13T17:46:32.999Z</time></trkpt><trkpt lat="44.52536503776487" lon="0.9532410622166972"><ele>129.0</ele><time>2026-04-13T17:46:33.999Z</time></trkpt><trkpt lat="44.52526353697293" lon="0.9530948243092978"><ele>129.0</ele><time>2026-04-13T17:46:34.999Z</time></trkpt><trkpt lat="44.52518862683272" lon="0.9529622579069901"><ele>127.0</ele><time>2026-04-13T17:46:35.999Z</time></trkpt><trkpt lat="44.52510063252938" lon="0.9528675991717649"><ele>125.0</ele><time>2026-04-13T17:46:36.999Z</time></trkpt><trkpt lat="44.52501860250846" lon="0.9527865084431302"><ele>123.0</ele><time>2026-04-13T17:46:37.999Z</time></trkpt><trkpt lat="44.52493144414946" lon="0.9526821508854872"><ele>121.0</ele><time>2026-04-13T17:46:38.999Z</time></trkpt><trkpt lat="44.52484366906863" lon="0.9525711060620699"><ele>119.0</ele><time>2026-04-13T17:46:39.999Z</time></trkpt><trkpt lat="44.52475544527334" lon="0.9524368031047463"><ele>118.5</ele><time>2026-04-13T17:46:40.999Z</time></trkpt><trkpt lat="44.52463978434842" lon="0.9522580028494194"><ele>118.0</ele><time>2026-04-13T17:46:41.999Z</time></trkpt><trkpt lat="44.52454904191738" lon="0.9520894195155309"><ele>117.5</ele><time>2026-04-13T17:46:43Z</time></trkpt><trkpt lat="44.52448371028573" lon="0.9519400378232136"><ele>117.0</ele><time>2026-04-13T17:46:44Z</time></trkpt><trkpt lat="44.52443484136029" lon="0.9517894220611729"><ele>115.19999999999999</ele><time>2026-04-13T17:46:45Z</time></trkpt><trkpt lat="44.524364317082146" lon="0.9516592583709923"><ele>113.39999999999999</ele><time>2026-04-13T17:46:46Z</time></trkpt><trkpt lat="44.52432573007571" lon="0.9515681130711301"><ele>111.60000000000001</ele><time>2026-04-13T17:46:47Z</time></trkpt><trkpt lat="44.5242542927047" lon="0.9515202455290848"><ele>109.80000000000001</ele><time>2026-04-13T17:46:48Z</time></trkpt><trkpt lat="44.52413500024498" lon="0.9515353460419101"><ele>108.0</ele><time>2026-04-13T17:46:49Z</time></trkpt><trkpt lat="44.52399963246887" lon="0.9515253094554096"><ele>108.0</ele><time>2026-04-13T17:46:50Z</time></trkpt><trkpt lat="44.52386384534409" lon="0.951517204599305"><ele>108.00000000000001</ele><time>2026-04-13T17:46:51Z</time></trkpt><trkpt lat="44.52376140188783" lon="0.9515050152910453"><ele>108.00000000000001</ele><time>2026-04-13T17:46:52Z</time></trkpt><trkpt lat="44.523665641739285" lon="0.9514723459515797"><ele>108.0</ele><time>2026-04-13T17:46:53Z</time></trkpt><trkpt lat="44.52356368928523" lon="0.9514577572669695"><ele>108.0</ele><time>2026-04-13T17:46:54Z</time></trkpt><trkpt lat="44.523480467769886" lon="0.9514383661180423"><ele>108.4</ele><time>2026-04-13T17:46:55Z</time></trkpt><trkpt lat="44.52339692270188" lon="0.9514400864870021"><ele>108.80000000000001</ele><time>2026-04-13T17:46:56Z</time></trkpt><trkpt lat="44.52332288462907" lon="0.9514202094332012"><ele>109.2</ele><time>2026-04-13T17:46:57Z</time></trkpt><trkpt lat="44.52325194292212" lon="0.951398773330415"><ele>109.6</ele><time>2026-04-13T17:46:58Z</time></trkpt><trkpt lat="44.52313631193043" lon="0.951366147247914"><ele>110.0</ele><time>2026-04-13T17:47:00Z</time></trkpt><trkpt lat="44.52303577562279" lon="0.951318190937288"><ele>110.0</ele><time>2026-04-13T17:47:02Z</time></trkpt><trkpt lat="44.52298682485523" lon="0.9511877729580432"><ele>110.0</ele><time>2026-04-13T17:47:04Z</time></trkpt><trkpt lat="44.522964330595016" lon="0.9511046755605762"><ele>110.0</ele><time>2026-04-13T17:47:05Z</time></trkpt><trkpt lat="44.522951825904855" lon="0.9509882517766167"><ele>110.0</ele><time>2026-04-13T17:47:06Z</time></trkpt><trkpt lat="44.52291477948092" lon="0.9508352767847719"><ele>110.0</ele><time>2026-04-13T17:47:07Z</time></trkpt><trkpt lat="44.52288143614993" lon="0.9506696742699626"><ele>106.5</ele><time>2026-04-13T17:47:08Z</time></trkpt><trkpt lat="44.522843230132665" lon="0.9504766157472848"><ele>103.0</ele><time>2026-04-13T17:47:09Z</time></trkpt><trkpt lat="44.52280210582441" lon="0.9502780972439533"><ele>99.5</ele><time>2026-04-13T17:47:10Z</time></trkpt><trkpt lat="44.52275891843513" lon="0.9500684576570921"><ele>96.0</ele><time>2026-04-13T17:47:11Z</time></trkpt><trkpt lat="44.52272892909694" lon="0.949846625374936"><ele>95.19999999999999</ele><time>2026-04-13T17:47:12Z</time></trkpt><trkpt lat="44.522694342901794" lon="0.9496544805109737"><ele>94.39999999999999</ele><time>2026-04-13T17:47:13Z</time></trkpt><trkpt lat="44.52266879002467" lon="0.9495017774030294"><ele>93.6</ele><time>2026-04-13T17:47:14Z</time></trkpt><trkpt lat="44.52264827059835" lon="0.9493693822589947"><ele>92.8</ele><time>2026-04-13T17:47:15Z</time></trkpt><trkpt lat="44.522617808804696" lon="0.9492778093472254"><ele>92.0</ele><time>2026-04-13T17:47:16Z</time></trkpt><trkpt lat="44.52261658067608" lon="0.9491590811805009"><ele>92.0</ele><time>2026-04-13T17:47:18Z</time></trkpt><trkpt lat="44.52246807811498" lon="0.9491808518582858"><ele>92.0</ele><time>2026-04-13T17:47:21Z</time></trkpt><trkpt lat="44.52234996215733" lon="0.9492021760912644"><ele>92.0</ele><time>2026-04-13T17:47:23Z</time></trkpt><trkpt lat="44.52221865471792" lon="0.9492399413732707"><ele>92.0</ele><time>2026-04-13T17:47:25Z</time></trkpt><trkpt lat="44.52213959274088" lon="0.9492617911619702"><ele>91.8</ele><time>2026-04-13T17:47:26Z</time></trkpt><trkpt lat="44.52206333500395" lon="0.9492975499856022"><ele>91.6</ele><time>2026-04-13T17:47:27Z</time></trkpt><trkpt lat="44.52199462716786" lon="0.9493619463564511"><ele>91.39999999999999</ele><time>2026-04-13T17:47:28Z</time></trkpt><trkpt lat="44.52191842850256" lon="0.9494201050654262"><ele>91.19999999999999</ele><time>2026-04-13T17:47:29Z</time></trkpt><trkpt lat="44.52179460229486" lon="0.9495574788807783"><ele>91.0</ele><time>2026-04-13T17:47:31Z</time></trkpt><trkpt lat="44.52171536177957" lon="0.9496164078838848"><ele>91.0</ele><time>2026-04-13T17:47:32Z</time></trkpt><trkpt lat="44.521660102649705" lon="0.9497038280287021"><ele>91.0</ele><time>2026-04-13T17:47:33Z</time></trkpt><trkpt lat="44.521589781194514" lon="0.9497771997927635"><ele>91.0</ele><time>2026-04-13T17:47:34Z</time></trkpt><trkpt lat="44.521520102862134" lon="0.9498613792084367"><ele>91.0</ele><time>2026-04-13T17:47:35Z</time></trkpt><trkpt lat="44.52143955846601" lon="0.9499579581097961"><ele>91.0</ele><time>2026-04-13T17:47:36Z</time></trkpt><trkpt lat="44.52134422808487" lon="0.9500643267966448"><ele>91.5</ele><time>2026-04-13T17:47:36.999Z</time></trkpt><trkpt lat="44.521233675396985" lon="0.9501886095755607"><ele>92.0</ele><time>2026-04-13T17:47:37.999Z</time></trkpt><trkpt lat="44.52111784840661" lon="0.9503124355328973"><ele>92.5</ele><time>2026-04-13T17:47:38.999Z</time></trkpt><trkpt lat="44.52099303370879" lon="0.9504301415890283"><ele>93.0</ele><time>2026-04-13T17:47:39.999Z</time></trkpt><trkpt lat="44.5208736043351" lon="0.9505878994872968"><ele>93.0</ele><time>2026-04-13T17:47:40.999Z</time></trkpt><trkpt lat="44.52074332340703" lon="0.9507385012545331"><ele>93.0</ele><time>2026-04-13T17:47:41.999Z</time></trkpt><trkpt lat="44.52060549118227" lon="0.9508872266738634"><ele>93.0</ele><time>2026-04-13T17:47:42.999Z</time></trkpt><trkpt lat="44.5204930625337" lon="0.9510532500420628"><ele>92.5</ele><time>2026-04-13T17:47:43.999Z</time></trkpt><trkpt lat="44.520385109434415" lon="0.9512193909115906"><ele>92.0</ele><time>2026-04-13T17:47:44.999Z</time></trkpt><trkpt lat="44.52029741021071" lon="0.9513664820465954"><ele>91.5</ele><time>2026-04-13T17:47:45.999Z</time></trkpt><trkpt lat="44.5202294173899" lon="0.9515022977956487"><ele>91.0</ele><time>2026-04-13T17:47:46.999Z</time></trkpt><trkpt lat="44.52018130624716" lon="0.9516691784328315"><ele>90.66666666666666</ele><time>2026-04-13T17:47:47.999Z</time></trkpt><trkpt lat="44.52021617184521" lon="0.9518894043345189"><ele>90.33333333333333</ele><time>2026-04-13T17:47:48.999Z</time></trkpt><trkpt lat="44.52023492561549" lon="0.9520901273495785"><ele>90.0</ele><time>2026-04-13T17:47:49.999Z</time></trkpt><trkpt lat="44.520237493512795" lon="0.9523181152216054"><ele>91.33333333333333</ele><time>2026-04-13T17:47:50.999Z</time></trkpt><trkpt lat="44.52024073778795" lon="0.9525485989510184"><ele>92.66666666666666</ele><time>2026-04-13T17:47:51.999Z</time></trkpt><trkpt lat="44.520213271369734" lon="0.9527753950159769"><ele>94.0</ele><time>2026-04-13T17:47:52.999Z</time></trkpt><trkpt lat="44.52018082680085" lon="0.953010847191513"><ele>94.0</ele><time>2026-04-13T17:47:53.999Z</time></trkpt><trkpt lat="44.52018635012265" lon="0.9532235246611374"><ele>94.0</ele><time>2026-04-13T17:47:54.999Z</time></trkpt><trkpt lat="44.520165445863725" lon="0.953428066718772"><ele>94.0</ele><time>2026-04-13T17:47:55.999Z</time></trkpt><trkpt lat="44.52017233570196" lon="0.9536449341486402"><ele>94.0</ele><time>2026-04-13T17:47:56.999Z</time></trkpt><trkpt lat="44.52016322840173" lon="0.953880660819732"><ele>94.0</ele><time>2026-04-13T17:47:57.999Z</time></trkpt><trkpt lat="44.520125415687325" lon="0.9541162889666519"><ele>94.0</ele><time>2026-04-13T17:47:58.999Z</time></trkpt><trkpt lat="44.52011425234048" lon="0.9543622251344932"><ele>94.66666666666666</ele><time>2026-04-13T17:47:59.999Z</time></trkpt><trkpt lat="44.52009045184879" lon="0.9546132851275801"><ele>95.33333333333333</ele><time>2026-04-13T17:48:00.999Z</time></trkpt><trkpt lat="44.52007390480991" lon="0.9548616762773675"><ele>96.0</ele><time>2026-04-13T17:48:01.999Z</time></trkpt><trkpt lat="44.520055797664355" lon="0.9551199844887692"><ele>96.0</ele><time>2026-04-13T17:48:02.999Z</time></trkpt><trkpt lat="44.520025787485814" lon="0.9553727620699735"><ele>96.0</ele><time>2026-04-13T17:48:03.999Z</time></trkpt><trkpt lat="44.52001472275271" lon="0.9556006323751659"><ele>96.0</ele><time>2026-04-13T17:48:04.999Z</time></trkpt><trkpt lat="44.520026960707" lon="0.9558019320976682"><ele>96.5</ele><time>2026-04-13T17:48:05.999Z</time></trkpt><trkpt lat="44.52002251863506" lon="0.9559983638098769"><ele>97.0</ele><time>2026-04-13T17:48:06.999Z</time></trkpt><trkpt lat="44.52002160168314" lon="0.9561847775211566"><ele>97.5</ele><time>2026-04-13T17:48:07.999Z</time></trkpt><trkpt lat="44.520023738957114" lon="0.9563510611794774"><ele>98.0</ele><time>2026-04-13T17:48:08.999Z</time></trkpt><trkpt lat="44.52001645650308" lon="0.9565152052047545"><ele>98.0</ele><time>2026-04-13T17:48:09.999Z</time></trkpt><trkpt lat="44.519981864779574" lon="0.956666355308205"><ele>98.0</ele><time>2026-04-13T17:48:10.999Z</time></trkpt><trkpt lat="44.5198937991581" lon="0.9567700666848271"><ele>98.0</ele><time>2026-04-13T17:48:11.999Z</time></trkpt><trkpt lat="44.51978695360128" lon="0.9568296131814247"><ele>98.0</ele><time>2026-04-13T17:48:12.999Z</time></trkpt><trkpt lat="44.519668496106725" lon="0.9568412471593962"><ele>97.5</ele><time>2026-04-13T17:48:13.999Z</time></trkpt><trkpt lat="44.51954272446165" lon="0.9568692633340701"><ele>97.0</ele><time>2026-04-13T17:48:14.999Z</time></trkpt><trkpt lat="44.51942731807458" lon="0.9568809216194099"><ele>96.5</ele><time>2026-04-13T17:48:15.999Z</time></trkpt><trkpt lat="44.519330861759364" lon="0.9569866677894214"><ele>96.0</ele><time>2026-04-13T17:48:16.999Z</time></trkpt><trkpt lat="44.51924805140574" lon="0.9571545094649259"><ele>96.0</ele><time>2026-04-13T17:48:17.999Z</time></trkpt><trkpt lat="44.51919466399367" lon="0.9573522600190771"><ele>96.0</ele><time>2026-04-13T17:48:18.999Z</time></trkpt><trkpt lat="44.51914714478371" lon="0.9575630619049872"><ele>96.0</ele><time>2026-04-13T17:48:19.999Z</time></trkpt><trkpt lat="44.51912606704841" lon="0.9577822916831876"><ele>96.33333333333334</ele><time>2026-04-13T17:48:20.999Z</time></trkpt><trkpt lat="44.519086385550935" lon="0.9580067085076859"><ele>96.66666666666667</ele><time>2026-04-13T17:48:21.999Z</time></trkpt><trkpt lat="44.519058105501074" lon="0.9582396834918704"><ele>97.0</ele><time>2026-04-13T17:48:22.999Z</time></trkpt><trkpt lat="44.51902051525541" lon="0.9584739208382542"><ele>97.0</ele><time>2026-04-13T17:48:23.999Z</time></trkpt><trkpt lat="44.51895854539614" lon="0.9586972195396932"><ele>97.0</ele><time>2026-04-13T17:48:24.999Z</time></trkpt><trkpt lat="44.5188738153022" lon="0.9588868852848634"><ele>97.0</ele><time>2026-04-13T17:48:25.999Z</time></trkpt><trkpt lat="44.51877571551867" lon="0.9590755992369835"><ele>98.0</ele><time>2026-04-13T17:48:26.999Z</time></trkpt><trkpt lat="44.51866827220558" lon="0.9592607682839843"><ele>99.0</ele><time>2026-04-13T17:48:27.999Z</time></trkpt><trkpt lat="44.51855244945755" lon="0.9594567760959292"><ele>100.0</ele><time>2026-04-13T17:48:28.999Z</time></trkpt><trkpt lat="44.51843880157629" lon="0.9596519213294648"><ele>100.0</ele><time>2026-04-13T17:48:29.999Z</time></trkpt><trkpt lat="44.51832918100628" lon="0.9598476058973932"><ele>100.0</ele><time>2026-04-13T17:48:30.999Z</time></trkpt><trkpt lat="44.51822921626494" lon="0.9600568706871427"><ele>100.0</ele><time>2026-04-13T17:48:31.999Z</time></trkpt><trkpt lat="44.51810333775108" lon="0.9602410746337455"><ele>102.0</ele><time>2026-04-13T17:48:32.999Z</time></trkpt><trkpt lat="44.51799583948889" lon="0.9604347043327215"><ele>104.0</ele><time>2026-04-13T17:48:33.999Z</time></trkpt><trkpt lat="44.51788913098291" lon="0.9606236299655533"><ele>106.0</ele><time>2026-04-13T17:48:34.999Z</time></trkpt><trkpt lat="44.517784158344554" lon="0.9607988866620177"><ele>108.0</ele><time>2026-04-13T17:48:35.999Z</time></trkpt><trkpt lat="44.51767608692733" lon="0.9609815047278001"><ele>110.0</ele><time>2026-04-13T17:48:36.999Z</time></trkpt><trkpt lat="44.51756975140563" lon="0.9611666655898491"><ele>112.0</ele><time>2026-04-13T17:48:37.999Z</time></trkpt><trkpt lat="44.51747407970477" lon="0.9613298363221686"><ele>112.0</ele><time>2026-04-13T17:48:38.999Z</time></trkpt><trkpt lat="44.51737057951283" lon="0.9615028308114304"><ele>112.0</ele><time>2026-04-13T17:48:39.999Z</time></trkpt><trkpt lat="44.51727533653103" lon="0.9616673800999299"><ele>112.0</ele><time>2026-04-13T17:48:40.999Z</time></trkpt><trkpt lat="44.51718765690366" lon="0.9618188216978409"><ele>112.66666666666667</ele><time>2026-04-13T17:48:41.999Z</time></trkpt><trkpt lat="44.5170894733162" lon="0.9619884026203924"><ele>113.33333333333334</ele><time>2026-04-13T17:48:42.999Z</time></trkpt><trkpt lat="44.516986589013584" lon="0.9621661025465279"><ele>114.0</ele><time>2026-04-13T17:48:43.999Z</time></trkpt><trkpt lat="44.51689567432463" lon="0.9623258928171619"><ele>114.0</ele><time>2026-04-13T17:48:44.999Z</time></trkpt><trkpt lat="44.51681157037182" lon="0.9624756370380624"><ele>114.0</ele><time>2026-04-13T17:48:45.999Z</time></trkpt><trkpt lat="44.51673061062987" lon="0.9626314115991925"><ele>114.0</ele><time>2026-04-13T17:48:46.999Z</time></trkpt><trkpt lat="44.516650928442765" lon="0.9628001825898406"><ele>114.0</ele><time>2026-04-13T17:48:47.999Z</time></trkpt><trkpt lat="44.516590183698874" lon="0.9629969843654992"><ele>115.33333333333334</ele><time>2026-04-13T17:48:49Z</time></trkpt><trkpt lat="44.51651028046256" lon="0.9631705309444718"><ele>116.66666666666667</ele><time>2026-04-13T17:48:50Z</time></trkpt><trkpt lat="44.51644191666439" lon="0.9633605459757796"><ele>118.0</ele><time>2026-04-13T17:48:51Z</time></trkpt><trkpt lat="44.51637081838505" lon="0.9635581613980869"><ele>118.66666666666667</ele><time>2026-04-13T17:48:52Z</time></trkpt><trkpt lat="44.51629726449759" lon="0.9637626019125645"><ele>119.33333333333334</ele><time>2026-04-13T17:48:53Z</time></trkpt><trkpt lat="44.516218735054785" lon="0.9639808719845189"><ele>120.0</ele><time>2026-04-13T17:48:54Z</time></trkpt><trkpt lat="44.51614226538667" lon="0.9641923714481214"><ele>119.33333333333334</ele><time>2026-04-13T17:48:55Z</time></trkpt><trkpt lat="44.516071748994264" lon="0.964418242900357"><ele>118.66666666666667</ele><time>2026-04-13T17:48:56Z</time></trkpt><trkpt lat="44.516022344611834" lon="0.964630895752285"><ele>118.0</ele><time>2026-04-13T17:48:57Z</time></trkpt><trkpt lat="44.51595892525475" lon="0.9648106014799152"><ele>118.0</ele><time>2026-04-13T17:48:58Z</time></trkpt><trkpt lat="44.51590751567997" lon="0.9649901376751893"><ele>118.0</ele><time>2026-04-13T17:48:59Z</time></trkpt><trkpt lat="44.51586390067069" lon="0.9651872272891675"><ele>118.0</ele><time>2026-04-13T17:49:00Z</time></trkpt><trkpt lat="44.51580811063328" lon="0.9653756336589717"><ele>118.0</ele><time>2026-04-13T17:49:01Z</time></trkpt><trkpt lat="44.51575943986117" lon="0.9655643982601859"><ele>119.25</ele><time>2026-04-13T17:49:02Z</time></trkpt><trkpt lat="44.51571735462365" lon="0.9657437295501591"><ele>120.5</ele><time>2026-04-13T17:49:03Z</time></trkpt><trkpt lat="44.515645964488996" lon="0.9659128757505344"><ele>121.75</ele><time>2026-04-13T17:49:04Z</time></trkpt><trkpt lat="44.51556816981027" lon="0.966078161292993"><ele>123.0</ele><time>2026-04-13T17:49:05Z</time></trkpt><trkpt lat="44.515491017968635" lon="0.9662749937271685"><ele>122.66666666666666</ele><time>2026-04-13T17:49:06Z</time></trkpt><trkpt lat="44.51538504555889" lon="0.9664530600222908"><ele>122.33333333333333</ele><time>2026-04-13T17:49:07Z</time></trkpt><trkpt lat="44.515257201278615" lon="0.9666253647000913"><ele>122.0</ele><time>2026-04-13T17:49:08Z</time></trkpt><trkpt lat="44.515118376486434" lon="0.9667860799231189"><ele>124.66666666666666</ele><time>2026-04-13T17:49:09Z</time></trkpt><trkpt lat="44.51496067418748" lon="0.9669184604614565"><ele>127.33333333333334</ele><time>2026-04-13T17:49:10Z</time></trkpt><trkpt lat="44.51481486354656" lon="0.9670659489200243"><ele>130.0</ele><time>2026-04-13T17:49:11Z</time></trkpt><trkpt lat="44.51465761689506" lon="0.9672021928065122"><ele>131.33333333333334</ele><time>2026-04-13T17:49:12Z</time></trkpt><trkpt lat="44.51449746361087" lon="0.9673387349818874"><ele>132.66666666666666</ele><time>2026-04-13T17:49:13Z</time></trkpt><trkpt lat="44.514352076886794" lon="0.9674793142388147"><ele>134.0</ele><time>2026-04-13T17:49:14Z</time></trkpt><trkpt lat="44.51420056867207" lon="0.9676203004592973"><ele>134.0</ele><time>2026-04-13T17:49:15Z</time></trkpt><trkpt lat="44.51404255348047" lon="0.9677619913745846"><ele>134.0</ele><time>2026-04-13T17:49:16Z</time></trkpt><trkpt lat="44.51388429191505" lon="0.9679012244821706"><ele>134.0</ele><time>2026-04-13T17:49:17Z</time></trkpt><trkpt lat="44.51372521871543" lon="0.9680389862063423"><ele>132.66666666666666</ele><time>2026-04-13T17:49:18Z</time></trkpt><trkpt lat="44.51356035152611" lon="0.9681757304233894"><ele>131.33333333333334</ele><time>2026-04-13T17:49:19Z</time></trkpt><trkpt lat="44.51339898952832" lon="0.9682743171605362"><ele>130.0</ele><time>2026-04-13T17:49:20Z</time></trkpt><trkpt lat="44.51324070943581" lon="0.9683276467998232"><ele>129.66666666666669</ele><time>2026-04-13T17:49:21Z</time></trkpt><trkpt lat="44.5130637339769" lon="0.968375802119678"><ele>129.33333333333334</ele><time>2026-04-13T17:49:22Z</time></trkpt><trkpt lat="44.51289221992688" lon="0.9684650513107872"><ele>129.0</ele><time>2026-04-13T17:49:23Z</time></trkpt><trkpt lat="44.51272832715821" lon="0.9685778482810523"><ele>129.0</ele><time>2026-04-13T17:49:24Z</time></trkpt><trkpt lat="44.512570244215695" lon="0.9687095516098606"><ele>129.0</ele><time>2026-04-13T17:49:25Z</time></trkpt><trkpt lat="44.51242052952681" lon="0.9688554457226644"><ele>129.0</ele><time>2026-04-13T17:49:26Z</time></trkpt><trkpt lat="44.51226685385485" lon="0.9689859638841419"><ele>129.0</ele><time>2026-04-13T17:49:27Z</time></trkpt><trkpt lat="44.51212802839593" lon="0.9690842924060422"><ele>129.0</ele><time>2026-04-13T17:49:28Z</time></trkpt><trkpt lat="44.51197796147731" lon="0.9691773757615451"><ele>129.0</ele><time>2026-04-13T17:49:29Z</time></trkpt><trkpt lat="44.51182222376729" lon="0.9692693274774725"><ele>131.66666666666666</ele><time>2026-04-13T17:49:30Z</time></trkpt><trkpt lat="44.51166853970898" lon="0.9693667713639427"><ele>134.33333333333331</ele><time>2026-04-13T17:49:31Z</time></trkpt><trkpt lat="44.511521462679426" lon="0.9694884189257452"><ele>137.0</ele><time>2026-04-13T17:49:32Z</time></trkpt><trkpt lat="44.511382831843264" lon="0.9696415394703543"><ele>137.0</ele><time>2026-04-13T17:49:33Z</time></trkpt><trkpt lat="44.51125453032258" lon="0.9697961345270806"><ele>137.0</ele><time>2026-04-13T17:49:34Z</time></trkpt><trkpt lat="44.51113059373578" lon="0.9699646891404909"><ele>137.0</ele><time>2026-04-13T17:49:35Z</time></trkpt><trkpt lat="44.51103103307594" lon="0.9701021725575204"><ele>140.6</ele><time>2026-04-13T17:49:36Z</time></trkpt><trkpt lat="44.510942713737855" lon="0.9702081400189911"><ele>144.2</ele><time>2026-04-13T17:49:37Z</time></trkpt><trkpt lat="44.510878024790074" lon="0.9702703314624186"><ele>147.8</ele><time>2026-04-13T17:49:38Z</time></trkpt><trkpt lat="44.51093769131617" lon="0.9704348858513354"><ele>151.4</ele><time>2026-04-13T17:49:41Z</time></trkpt><trkpt lat="44.51100661723147" lon="0.9704440313251087"><ele>155.0</ele><time>2026-04-13T17:49:42Z</time></trkpt><trkpt lat="44.51109482869124" lon="0.9704570343070397"><ele>155.0</ele><time>2026-04-13T17:49:43Z</time></trkpt><trkpt lat="44.51119946606576" lon="0.9704613940471402"><ele>155.0</ele><time>2026-04-13T17:49:44Z</time></trkpt><trkpt lat="44.511315333123534" lon="0.9704790636715426"><ele>155.0</ele><time>2026-04-13T17:49:45Z</time></trkpt><trkpt lat="44.51144123189693" lon="0.9705109620526917"><ele>155.0</ele><time>2026-04-13T17:49:46Z</time></trkpt><trkpt lat="44.51157007006172" lon="0.9705795384291076"><ele>151.66666666666666</ele><time>2026-04-13T17:49:47Z</time></trkpt><trkpt lat="44.51170059470372" lon="0.9706808100783743"><ele>148.33333333333334</ele><time>2026-04-13T17:49:48Z</time></trkpt><trkpt lat="44.51185145618943" lon="0.9707766301307776"><ele>145.0</ele><time>2026-04-13T17:49:48.999Z</time></trkpt><trkpt lat="44.5120102313892" lon="0.9708366274678569"><ele>147.0</ele><time>2026-04-13T17:49:49.999Z</time></trkpt><trkpt lat="44.51218991836319" lon="0.9708706457794455"><ele>149.0</ele><time>2026-04-13T17:49:50.999Z</time></trkpt><trkpt lat="44.512359464123" lon="0.9708975977834962"><ele>151.0</ele><time>2026-04-13T17:49:51.999Z</time></trkpt><trkpt lat="44.5125360192105" lon="0.9709469039618841"><ele>151.0</ele><time>2026-04-13T17:49:52.999Z</time></trkpt><trkpt lat="44.51270757994177" lon="0.9710055941178629"><ele>151.0</ele><time>2026-04-13T17:49:53.999Z</time></trkpt><trkpt lat="44.512863218927315" lon="0.9710646235548545"><ele>151.0</ele><time>2026-04-13T17:49:54.999Z</time></trkpt><trkpt lat="44.51299902299138" lon="0.9711087619329758"><ele>150.5</ele><time>2026-04-13T17:49:55.999Z</time></trkpt><trkpt lat="44.51313500276169" lon="0.9710961641671079"><ele>150.0</ele><time>2026-04-13T17:49:56.999Z</time></trkpt><trkpt lat="44.51325770100308" lon="0.9710470216160446"><ele>149.5</ele><time>2026-04-13T17:49:57.999Z</time></trkpt><trkpt lat="44.513386873352" lon="0.9709486968905421"><ele>149.0</ele><time>2026-04-13T17:49:58.999Z</time></trkpt><trkpt lat="44.51349211973238" lon="0.9708294099951836"><ele>147.5</ele><time>2026-04-13T17:49:59.999Z</time></trkpt><trkpt lat="44.5135462335596" lon="0.9706703670333326"><ele>146.0</ele><time>2026-04-13T17:50:00.999Z</time></trkpt><trkpt lat="44.513576822310455" lon="0.9704683615691008"><ele>144.5</ele><time>2026-04-13T17:50:01.999Z</time></trkpt><trkpt lat="44.51360027243654" lon="0.9702515098515809"><ele>143.0</ele><time>2026-04-13T17:50:02.999Z</time></trkpt><trkpt lat="44.513627354447515" lon="0.9700247748184142"><ele>141.75</ele><time>2026-04-13T17:50:03.999Z</time></trkpt><trkpt lat="44.51366526442693" lon="0.9698231363105797"><ele>140.5</ele><time>2026-04-13T17:50:04.999Z</time></trkpt><trkpt lat="44.51371613607659" lon="0.9696597521451765"><ele>139.25</ele><time>2026-04-13T17:50:05.999Z</time></trkpt><trkpt lat="44.513815114187075" lon="0.9695673837381703"><ele>138.0</ele><time>2026-04-13T17:50:06.999Z</time></trkpt><trkpt lat="44.5139205910312" lon="0.969452483467456"><ele>138.75</ele><time>2026-04-13T17:50:07.999Z</time></trkpt><trkpt lat="44.514026734772536" lon="0.9693254028802161"><ele>139.5</ele><time>2026-04-13T17:50:08.999Z</time></trkpt><trkpt lat="44.514147568760606" lon="0.9692057325238956"><ele>140.25</ele><time>2026-04-13T17:50:09.999Z</time></trkpt><trkpt lat="44.51426936138657" lon="0.9690778582235735"><ele>141.0</ele><time>2026-04-13T17:50:10.999Z</time></trkpt><trkpt lat="44.514396246236295" lon="0.9689480979302056"><ele>141.0</ele><time>2026-04-13T17:50:11.999Z</time></trkpt><trkpt lat="44.51450916063254" lon="0.9688410276225274"><ele>141.0</ele><time>2026-04-13T17:50:12.999Z</time></trkpt><trkpt lat="44.5146305575201" lon="0.9687757431225413"><ele>141.0</ele><time>2026-04-13T17:50:13.999Z</time></trkpt><trkpt lat="44.51476617595892" lon="0.9688446920748931"><ele>141.0</ele><time>2026-04-13T17:50:14.999Z</time></trkpt><trkpt lat="44.514919043588456" lon="0.9688717213577793"><ele>143.75</ele><time>2026-04-13T17:50:15.999Z</time></trkpt><trkpt lat="44.51505950313451" lon="0.9689010525725771"><ele>146.5</ele><time>2026-04-13T17:50:16.999Z</time></trkpt><trkpt lat="44.5152057528277" lon="0.9688736758892573"><ele>149.25</ele><time>2026-04-13T17:50:17.999Z</time></trkpt><trkpt lat="44.515361900240585" lon="0.9688653911464251"><ele>152.0</ele><time>2026-04-13T17:50:18.999Z</time></trkpt><trkpt lat="44.51551547685841" lon="0.9688585023229588"><ele>152.33333333333331</ele><time>2026-04-13T17:50:19.999Z</time></trkpt><trkpt lat="44.515678427691036" lon="0.968843833978008"><ele>152.66666666666666</ele><time>2026-04-13T17:50:20.999Z</time></trkpt><trkpt lat="44.51584785409341" lon="0.9688334069611969"><ele>153.0</ele><time>2026-04-13T17:50:21.999Z</time></trkpt><trkpt lat="44.5159953538688" lon="0.9688386698092907"><ele>153.0</ele><time>2026-04-13T17:50:22.999Z</time></trkpt><trkpt lat="44.51613892923106" lon="0.968842567117182"><ele>153.0</ele><time>2026-04-13T17:50:23.999Z</time></trkpt><trkpt lat="44.516264526292865" lon="0.968789934002301"><ele>153.0</ele><time>2026-04-13T17:50:24.999Z</time></trkpt><trkpt lat="44.51637308987947" lon="0.968683325372579"><ele>153.0</ele><time>2026-04-13T17:50:25.999Z</time></trkpt><trkpt lat="44.51650302170695" lon="0.9685931390959027"><ele>152.66666666666666</ele><time>2026-04-13T17:50:26.999Z</time></trkpt><trkpt lat="44.51663539835256" lon="0.9684794136811777"><ele>152.33333333333331</ele><time>2026-04-13T17:50:27.999Z</time></trkpt><trkpt lat="44.51678248966342" lon="0.9683833528389623"><ele>152.0</ele><time>2026-04-13T17:50:28.999Z</time></trkpt><trkpt lat="44.516941915047845" lon="0.9683377957873964"><ele>151.0</ele><time>2026-04-13T17:50:29.999Z</time></trkpt><trkpt lat="44.51711256979706" lon="0.968328942895541"><ele>150.0</ele><time>2026-04-13T17:50:30.999Z</time></trkpt><trkpt lat="44.51728503282158" lon="0.9683452285383356"><ele>149.0</ele><time>2026-04-13T17:50:31.999Z</time></trkpt><trkpt lat="44.51745004468612" lon="0.9683816862562735"><ele>149.0</ele><time>2026-04-13T17:50:32.999Z</time></trkpt><trkpt lat="44.517620787394755" lon="0.9684716682262481"><ele>149.0</ele><time>2026-04-13T17:50:33.999Z</time></trkpt><trkpt lat="44.51778805677578" lon="0.9685594543173031"><ele>149.0</ele><time>2026-04-13T17:50:34.999Z</time></trkpt><trkpt lat="44.51793594960817" lon="0.9686387475937513"><ele>148.25</ele><time>2026-04-13T17:50:35.999Z</time></trkpt><trkpt lat="44.518070765396885" lon="0.9687152433510371"><ele>147.5</ele><time>2026-04-13T17:50:36.999Z</time></trkpt><trkpt lat="44.51817898642802" lon="0.9687944110864192"><ele>146.75</ele><time>2026-04-13T17:50:37.999Z</time></trkpt><trkpt lat="44.518245347210254" lon="0.9688927379925295"><ele>146.0</ele><time>2026-04-13T17:50:38.999Z</time></trkpt><trkpt lat="44.518302042736444" lon="0.9689999169816469"><ele>146.0</ele><time>2026-04-13T17:50:39.999Z</time></trkpt><trkpt lat="44.51835223116047" lon="0.9691099270751388"><ele>146.0</ele><time>2026-04-13T17:50:40.999Z</time></trkpt><trkpt lat="44.518396086448654" lon="0.9692185197946362"><ele>146.0</ele><time>2026-04-13T17:50:41.999Z</time></trkpt><trkpt lat="44.51844334110466" lon="0.9693241135098438"><ele>146.0</ele><time>2026-04-13T17:50:42.999Z</time></trkpt><trkpt lat="44.51848609263738" lon="0.9694230614547826"><ele>146.0</ele><time>2026-04-13T17:50:43.999Z</time></trkpt><trkpt lat="44.51853837124199" lon="0.9695173299552367"><ele>146.0</ele><time>2026-04-13T17:50:44.999Z</time></trkpt><trkpt lat="44.51859354619969" lon="0.9696070003202555"><ele>145.5</ele><time>2026-04-13T17:50:45.999Z</time></trkpt><trkpt lat="44.51863947010822" lon="0.9697008983177294"><ele>145.0</ele><time>2026-04-13T17:50:46.999Z</time></trkpt><trkpt lat="44.51869370238686" lon="0.9697845001341318"><ele>144.5</ele><time>2026-04-13T17:50:47.999Z</time></trkpt><trkpt lat="44.518758317158884" lon="0.9698552143270677"><ele>144.0</ele><time>2026-04-13T17:50:48.999Z</time></trkpt><trkpt lat="44.518825256882074" lon="0.9699180967528309"><ele>143.5</ele><time>2026-04-13T17:50:49.999Z</time></trkpt><trkpt lat="44.51888811792458" lon="0.969956083751887"><ele>143.0</ele><time>2026-04-13T17:50:50.999Z</time></trkpt><trkpt lat="44.5189468289734" lon="0.9699887115046704"><ele>143.0</ele><time>2026-04-13T17:50:51.999Z</time></trkpt><trkpt lat="44.51901017410659" lon="0.9700209485253312"><ele>143.0</ele><time>2026-04-13T17:50:52.999Z</time></trkpt><trkpt lat="44.5190737197716" lon="0.9700596694889208"><ele>143.0</ele><time>2026-04-13T17:50:53.999Z</time></trkpt><trkpt lat="44.51919057863038" lon="0.9701346972447606"><ele>143.0</ele><time>2026-04-13T17:50:56Z</time></trkpt><trkpt lat="44.519248306882865" lon="0.9701731833153107"><ele>143.0</ele><time>2026-04-13T17:50:57Z</time></trkpt><trkpt lat="44.51931855697589" lon="0.9702278967658674"><ele>143.0</ele><time>2026-04-13T17:50:58Z</time></trkpt><trkpt lat="44.51938369690914" lon="0.9702794938448757"><ele>143.33333333333331</ele><time>2026-04-13T17:50:59Z</time></trkpt><trkpt lat="44.51943844759177" lon="0.9703666100267738"><ele>143.66666666666666</ele><time>2026-04-13T17:51:00Z</time></trkpt><trkpt lat="44.519491699951956" lon="0.9704320416580285"><ele>144.0</ele><time>2026-04-13T17:51:01Z</time></trkpt><trkpt lat="44.519542139527225" lon="0.9704938994984411"><ele>144.33333333333334</ele><time>2026-04-13T17:51:02Z</time></trkpt><trkpt lat="44.51962812614985" lon="0.9705993509782462"><ele>144.66666666666669</ele><time>2026-04-13T17:51:04Z</time></trkpt><trkpt lat="44.51969951428714" lon="0.9706868996730033"><ele>145.0</ele><time>2026-04-13T17:51:06Z</time></trkpt><trkpt lat="44.519778194242356" lon="0.9707833906224159"><ele>146.2</ele><time>2026-04-13T17:51:08Z</time></trkpt><trkpt lat="44.51986357690093" lon="0.9708812209716788"><ele>147.4</ele><time>2026-04-13T17:51:10Z</time></trkpt><trkpt lat="44.519956707666196" lon="0.9709867075323287"><ele>148.6</ele><time>2026-04-13T17:51:12Z</time></trkpt><trkpt lat="44.519997176499345" lon="0.9710556843569236"><ele>149.8</ele><time>2026-04-13T17:51:13Z</time></trkpt><trkpt lat="44.52005843172741" lon="0.9711314050061451"><ele>151.0</ele><time>2026-04-13T17:51:14Z</time></trkpt><trkpt lat="44.52013895841602" lon="0.9712169769137913"><ele>151.0</ele><time>2026-04-13T17:51:15Z</time></trkpt><trkpt lat="44.52022550629019" lon="0.9713153929953516"><ele>151.0</ele><time>2026-04-13T17:51:16Z</time></trkpt><trkpt lat="44.520324182945416" lon="0.9714199516792337"><ele>151.0</ele><time>2026-04-13T17:51:17Z</time></trkpt><trkpt lat="44.520434658311096" lon="0.971470305154626"><ele>151.0</ele><time>2026-04-13T17:51:18Z</time></trkpt><trkpt lat="44.520542866487396" lon="0.9714905692287725"><ele>151.25</ele><time>2026-04-13T17:51:19Z</time></trkpt><trkpt lat="44.520654648783996" lon="0.9714769971156646"><ele>151.5</ele><time>2026-04-13T17:51:20Z</time></trkpt><trkpt lat="44.5207548649034" lon="0.9714292782870746"><ele>151.75</ele><time>2026-04-13T17:51:21Z</time></trkpt><trkpt lat="44.520846045937816" lon="0.9713340865602792"><ele>152.0</ele><time>2026-04-13T17:51:22Z</time></trkpt><trkpt lat="44.52091265925411" lon="0.9711582574768132"><ele>152.0</ele><time>2026-04-13T17:51:23Z</time></trkpt><trkpt lat="44.52097431022304" lon="0.9709935412086714"><ele>152.0</ele><time>2026-04-13T17:51:24Z</time></trkpt><trkpt lat="44.52105594382689" lon="0.9708772940759632"><ele>152.0</ele><time>2026-04-13T17:51:25Z</time></trkpt><trkpt lat="44.52112545749607" lon="0.9707893996912842"><ele>152.0</ele><time>2026-04-13T17:51:26Z</time></trkpt><trkpt lat="44.521178236617175" lon="0.9707024854065655"><ele>152.0</ele><time>2026-04-13T17:51:27Z</time></trkpt><trkpt lat="44.52128378676828" lon="0.9707434922968144"><ele>152.0</ele><time>2026-04-13T17:51:28Z</time></trkpt><trkpt lat="44.52137650614821" lon="0.9708452825274996"><ele>152.0</ele><time>2026-04-13T17:51:29Z</time></trkpt><trkpt lat="44.52147950908034" lon="0.9709147443119454"><ele>152.0</ele><time>2026-04-13T17:51:30Z</time></trkpt><trkpt lat="44.52159109666818" lon="0.9710014233835582"><ele>152.0</ele><time>2026-04-13T17:51:31Z</time></trkpt><trkpt lat="44.52168941499428" lon="0.9710895253643383"><ele>152.79999999999998</ele><time>2026-04-13T17:51:32Z</time></trkpt><trkpt lat="44.521777167525734" lon="0.9711913240566672"><ele>153.6</ele><time>2026-04-13T17:51:33Z</time></trkpt><trkpt lat="44.52184280816477" lon="0.9713055704176429"><ele>154.39999999999998</ele><time>2026-04-13T17:51:34Z</time></trkpt><trkpt lat="44.521901622203416" lon="0.9714026865406565"><ele>155.2</ele><time>2026-04-13T17:51:35Z</time></trkpt><trkpt lat="44.52195972177054" lon="0.9714993235767917"><ele>156.0</ele><time>2026-04-13T17:51:36Z</time></trkpt><trkpt lat="44.522022399262646" lon="0.9716035739200487"><ele>158.5</ele><time>2026-04-13T17:51:37Z</time></trkpt><trkpt lat="44.52208778666017" lon="0.9717197085047529"><ele>161.0</ele><time>2026-04-13T17:51:38Z</time></trkpt><trkpt lat="44.52215744755355" lon="0.9718471384610592"><ele>163.5</ele><time>2026-04-13T17:51:39Z</time></trkpt><trkpt lat="44.522231981290965" lon="0.9719825620157422"><ele>166.0</ele><time>2026-04-13T17:51:40Z</time></trkpt><trkpt lat="44.52232854648386" lon="0.9721135660050884"><ele>166.0</ele><time>2026-04-13T17:51:41Z</time></trkpt><trkpt lat="44.52241785283362" lon="0.9722636671011677"><ele>166.0</ele><time>2026-04-13T17:51:42Z</time></trkpt><trkpt lat="44.52250031839817" lon="0.9724086839823786"><ele>166.0</ele><time>2026-04-13T17:51:43Z</time></trkpt><trkpt lat="44.52258919761245" lon="0.9725667128774537"><ele>166.0</ele><time>2026-04-13T17:51:44Z</time></trkpt><trkpt lat="44.52267589739248" lon="0.9727238596847095"><ele>166.0</ele><time>2026-04-13T17:51:45Z</time></trkpt><trkpt lat="44.52276887533975" lon="0.9728872600560554"><ele>166.0</ele><time>2026-04-13T17:51:46Z</time></trkpt><trkpt lat="44.52285525917966" lon="0.973052403683038"><ele>166.0</ele><time>2026-04-13T17:51:47Z</time></trkpt><trkpt lat="44.522946238958234" lon="0.9732204948960057"><ele>166.0</ele><time>2026-04-13T17:51:48Z</time></trkpt><trkpt lat="44.522992581294" lon="0.973365590332881"><ele>168.5</ele><time>2026-04-13T17:51:49Z</time></trkpt><trkpt lat="44.52303162598152" lon="0.9734902765684426"><ele>171.0</ele><time>2026-04-13T17:51:50Z</time></trkpt><trkpt lat="44.52306952030091" lon="0.9736395403120364"><ele>173.5</ele><time>2026-04-13T17:51:51Z</time></trkpt><trkpt lat="44.523086110159504" lon="0.9738130842611468"><ele>176.0</ele><time>2026-04-13T17:51:52Z</time></trkpt><trkpt lat="44.52307466673568" lon="0.9740001106171705"><ele>175.20000000000002</ele><time>2026-04-13T17:51:53Z</time></trkpt><trkpt lat="44.5230737434833" lon="0.9741994551375447"><ele>174.4</ele><time>2026-04-13T17:51:53.999Z</time></trkpt><trkpt lat="44.52309109261959" lon="0.974335291555474"><ele>173.6</ele><time>2026-04-13T17:51:54.999Z</time></trkpt><trkpt lat="44.52313159950108" lon="0.9744653727138061"><ele>172.8</ele><time>2026-04-13T17:51:55.999Z</time></trkpt><trkpt lat="44.523191996530784" lon="0.9745720856717838"><ele>172.0</ele><time>2026-04-13T17:51:56.999Z</time></trkpt><trkpt lat="44.52332562194303" lon="0.9745892200020154"><ele>172.0</ele><time>2026-04-13T17:51:57.999Z</time></trkpt><trkpt lat="44.52344499279132" lon="0.9746509393853361"><ele>172.0</ele><time>2026-04-13T17:51:58.999Z</time></trkpt><trkpt lat="44.52358887284835" lon="0.9746754839906425"><ele>172.0</ele><time>2026-04-13T17:51:59.999Z</time></trkpt><trkpt lat="44.523707462324346" lon="0.9747448416413838"><ele>172.0</ele><time>2026-04-13T17:52:00.999Z</time></trkpt><trkpt lat="44.52381470379787" lon="0.974811383299089"><ele>171.6</ele><time>2026-04-13T17:52:01.999Z</time></trkpt><trkpt lat="44.523898645420026" lon="0.9748894615782046"><ele>171.2</ele><time>2026-04-13T17:52:02.999Z</time></trkpt><trkpt lat="44.52392310183977" lon="0.9750124663826604"><ele>170.8</ele><time>2026-04-13T17:52:03.999Z</time></trkpt><trkpt lat="44.523926764163335" lon="0.9751570343306302"><ele>170.4</ele><time>2026-04-13T17:52:04.999Z</time></trkpt><trkpt lat="44.523941042201194" lon="0.975330358930067"><ele>170.0</ele><time>2026-04-13T17:52:05.999Z</time></trkpt><trkpt lat="44.52395245548577" lon="0.9754689075093648"><ele>170.0</ele><time>2026-04-13T17:52:06.999Z</time></trkpt><trkpt lat="44.523960445827804" lon="0.9755779683097237"><ele>170.0</ele><time>2026-04-13T17:52:07.999Z</time></trkpt><trkpt lat="44.52396467286932" lon="0.9756842651765806"><ele>170.0</ele><time>2026-04-13T17:52:09.999Z</time></trkpt><trkpt lat="44.52407339003069" lon="0.9757193747770827"><ele>170.0</ele><time>2026-04-13T17:52:12.999Z</time></trkpt><trkpt lat="44.52417849645944" lon="0.9756996701201626"><ele>170.0</ele><time>2026-04-13T17:52:13.999Z</time></trkpt><trkpt lat="44.52429539173311" lon="0.9756884643194923"><ele>170.0</ele><time>2026-04-13T17:52:14.999Z</time></trkpt><trkpt lat="44.52441476408374" lon="0.9756855387923582"><ele>170.0</ele><time>2026-04-13T17:52:15.999Z</time></trkpt><trkpt lat="44.524548204784416" lon="0.9756860712329611"><ele>170.0</ele><time>2026-04-13T17:52:16.999Z</time></trkpt><trkpt lat="44.524684940997666" lon="0.9756793204260158"><ele>170.0</ele><time>2026-04-13T17:52:17.999Z</time></trkpt><trkpt lat="44.524838845632665" lon="0.975677727869721"><ele>168.66666666666666</ele><time>2026-04-13T17:52:18.999Z</time></trkpt><trkpt lat="44.52500283100494" lon="0.9756691160160187"><ele>167.33333333333334</ele><time>2026-04-13T17:52:19.999Z</time></trkpt><trkpt lat="44.52517127103753" lon="0.9756604646959468"><ele>166.0</ele><time>2026-04-13T17:52:20.999Z</time></trkpt><trkpt lat="44.5253459630721" lon="0.9756442354095468"><ele>166.66666666666669</ele><time>2026-04-13T17:52:21.999Z</time></trkpt><trkpt lat="44.52552647190984" lon="0.9756354432621333"><ele>167.33333333333334</ele><time>2026-04-13T17:52:22.999Z</time></trkpt><trkpt lat="44.52570919270067" lon="0.975631352561814"><ele>168.0</ele><time>2026-04-13T17:52:23.999Z</time></trkpt><trkpt lat="44.52588157326669" lon="0.975630460302431"><ele>168.0</ele><time>2026-04-13T17:52:24.999Z</time></trkpt><trkpt lat="44.526031787021275" lon="0.9756300133261038"><ele>168.0</ele><time>2026-04-13T17:52:25.999Z</time></trkpt><trkpt lat="44.526160394601796" lon="0.9756462846500807"><ele>168.0</ele><time>2026-04-13T17:52:26.999Z</time></trkpt><trkpt lat="44.526257762413" lon="0.9756799839091732"><ele>168.0</ele><time>2026-04-13T17:52:27.999Z</time></trkpt><trkpt lat="44.52633147013068" lon="0.9757401757064821"><ele>170.0</ele><time>2026-04-13T17:52:28.999Z</time></trkpt><trkpt lat="44.52641198609066" lon="0.9757742566931444"><ele>172.0</ele><time>2026-04-13T17:52:30.999Z</time></trkpt><trkpt lat="44.52665600493048" lon="0.9753690384688336"><ele>172.0</ele><time>2026-04-13T17:52:32.999Z</time></trkpt><trkpt lat="44.52673820182468" lon="0.9752367172999907"><ele>172.0</ele><time>2026-04-13T17:52:33.999Z</time></trkpt><trkpt lat="44.526816695085586" lon="0.975133375499485"><ele>172.0</ele><time>2026-04-13T17:52:34.999Z</time></trkpt><trkpt lat="44.52688205547597" lon="0.9750612063526407"><ele>172.0</ele><time>2026-04-13T17:52:35.999Z</time></trkpt><trkpt lat="44.52693690173193" lon="0.9749821357980164"><ele>172.0</ele><time>2026-04-13T17:52:36.999Z</time></trkpt><trkpt lat="44.52696825016924" lon="0.9748559595552356"><ele>172.0</ele><time>2026-04-13T17:52:37.999Z</time></trkpt><trkpt lat="44.52698466962951" lon="0.9746955819191202"><ele>172.0</ele><time>2026-04-13T17:52:38.999Z</time></trkpt><trkpt lat="44.52699923136116" lon="0.9745653282736202"><ele>172.0</ele><time>2026-04-13T17:52:39.999Z</time></trkpt><trkpt lat="44.52701848492333" lon="0.9744642595919706"><ele>172.0</ele><time>2026-04-13T17:52:40.999Z</time></trkpt><trkpt lat="44.52705795460061" lon="0.9743805274955938"><ele>172.0</ele><time>2026-04-13T17:52:41.999Z</time></trkpt><trkpt lat="44.52709961341128" lon="0.9742961188997729"><ele>172.0</ele><time>2026-04-13T17:52:42.999Z</time></trkpt><trkpt lat="44.52715162417788" lon="0.9742308019548499"><ele>172.0</ele><time>2026-04-13T17:52:43.999Z</time></trkpt><trkpt lat="44.5272136692175" lon="0.9741468797523553"><ele>172.0</ele><time>2026-04-13T17:52:44.999Z</time></trkpt><trkpt lat="44.52727445369788" lon="0.974050206936651"><ele>172.0</ele><time>2026-04-13T17:52:45.999Z</time></trkpt><trkpt lat="44.52733145537315" lon="0.9739484645042686"><ele>172.0</ele><time>2026-04-13T17:52:46.999Z</time></trkpt><trkpt lat="44.527390005203735" lon="0.9738830406173618"><ele>172.0</ele><time>2026-04-13T17:52:47.999Z</time></trkpt><trkpt lat="44.52743978386348" lon="0.9738184797936061"><ele>172.0</ele><time>2026-04-13T17:52:48.999Z</time></trkpt><trkpt lat="44.52747974990041" lon="0.9737491770087084"><ele>172.0</ele><time>2026-04-13T17:52:49.999Z</time></trkpt><trkpt lat="44.527528535869806" lon="0.9735878173487225"><ele>172.0</ele><time>2026-04-13T17:52:51.999Z</time></trkpt><trkpt lat="44.52753281570248" lon="0.9734930608422895"><ele>172.0</ele><time>2026-04-13T17:52:52.999Z</time></trkpt><trkpt lat="44.527492466637774" lon="0.9733987139976249"><ele>172.0</ele><time>2026-04-13T17:52:53.999Z</time></trkpt><trkpt lat="44.5274521384608" lon="0.9732765867605456"><ele>172.0</ele><time>2026-04-13T17:52:54.999Z</time></trkpt><trkpt lat="44.527398150830585" lon="0.9731310027780491"><ele>171.5</ele><time>2026-04-13T17:52:55.999Z</time></trkpt><trkpt lat="44.52734302744224" lon="0.9729513965121059"><ele>171.0</ele><time>2026-04-13T17:52:56.999Z</time></trkpt><trkpt lat="44.527280279128505" lon="0.9727645529271631"><ele>170.5</ele><time>2026-04-13T17:52:57.999Z</time></trkpt><trkpt lat="44.527217814987324" lon="0.9725724989370612"><ele>170.0</ele><time>2026-04-13T17:52:58.999Z</time></trkpt><trkpt lat="44.52714462607822" lon="0.9724105580285061"><ele>170.0</ele><time>2026-04-13T17:52:59.999Z</time></trkpt><trkpt lat="44.52708214970625" lon="0.9722715068074846"><ele>170.0</ele><time>2026-04-13T17:53:01Z</time></trkpt><trkpt lat="44.52702646653673" lon="0.972146508030658"><ele>170.0</ele><time>2026-04-13T17:53:02Z</time></trkpt><trkpt lat="44.52697782006793" lon="0.9720180904302171"><ele>170.0</ele><time>2026-04-13T17:53:03Z</time></trkpt><trkpt lat="44.526941140473625" lon="0.9719052601505835"><ele>170.0</ele><time>2026-04-13T17:53:04Z</time></trkpt><trkpt lat="44.52691074512521" lon="0.9718110823199125"><ele>168.0</ele><time>2026-04-13T17:53:05Z</time></trkpt><trkpt lat="44.526886756436895" lon="0.9717169021719199"><ele>166.0</ele><time>2026-04-13T17:53:06Z</time></trkpt><trkpt lat="44.52685188027358" lon="0.9716222682787947"><ele>164.0</ele><time>2026-04-13T17:53:07Z</time></trkpt><trkpt lat="44.52679970907848" lon="0.9715129693641559"><ele>162.0</ele><time>2026-04-13T17:53:08Z</time></trkpt><trkpt lat="44.52673738449885" lon="0.9713802738661669"><ele>160.0</ele><time>2026-04-13T17:53:09Z</time></trkpt><trkpt lat="44.5266576218404" lon="0.9712357482318292"><ele>159.0</ele><time>2026-04-13T17:53:10Z</time></trkpt><trkpt lat="44.52656491484753" lon="0.971083244531733"><ele>158.0</ele><time>2026-04-13T17:53:11Z</time></trkpt><trkpt lat="44.52649147142461" lon="0.9709419420907142"><ele>157.0</ele><time>2026-04-13T17:53:12Z</time></trkpt><trkpt lat="44.52642965027505" lon="0.9708179799794173"><ele>156.0</ele><time>2026-04-13T17:53:13Z</time></trkpt><trkpt lat="44.52637224132974" lon="0.9706877916421944"><ele>155.75</ele><time>2026-04-13T17:53:14Z</time></trkpt><trkpt lat="44.52632775706613" lon="0.9705409767958766"><ele>155.5</ele><time>2026-04-13T17:53:15Z</time></trkpt><trkpt lat="44.52629801526929" lon="0.9703733610414402"><ele>155.25</ele><time>2026-04-13T17:53:16Z</time></trkpt><trkpt lat="44.52625868062707" lon="0.9701777617074008"><ele>155.0</ele><time>2026-04-13T17:53:17Z</time></trkpt><trkpt lat="44.52620439050905" lon="0.9699916966761876"><ele>151.66666666666666</ele><time>2026-04-13T17:53:18Z</time></trkpt><trkpt lat="44.526145398033805" lon="0.9698008396376967"><ele>148.33333333333334</ele><time>2026-04-13T17:53:19Z</time></trkpt><trkpt lat="44.526086492394974" lon="0.9695889060979205"><ele>145.0</ele><time>2026-04-13T17:53:20Z</time></trkpt><trkpt lat="44.52602942130659" lon="0.9694081235130798"><ele>145.0</ele><time>2026-04-13T17:53:21Z</time></trkpt><trkpt lat="44.52595560001622" lon="0.9692212226216236"><ele>145.0</ele><time>2026-04-13T17:53:22Z</time></trkpt><trkpt lat="44.525877315843" lon="0.969007527470725"><ele>145.0</ele><time>2026-04-13T17:53:23Z</time></trkpt><trkpt lat="44.52579506646285" lon="0.9688153306796381"><ele>145.25</ele><time>2026-04-13T17:53:24Z</time></trkpt><trkpt lat="44.52572952572986" lon="0.9686597864258946"><ele>145.5</ele><time>2026-04-13T17:53:25Z</time></trkpt><trkpt lat="44.52565208361799" lon="0.968511820618006"><ele>145.75</ele><time>2026-04-13T17:53:26Z</time></trkpt><trkpt lat="44.52556367378714" lon="0.9683966897319012"><ele>146.0</ele><time>2026-04-13T17:53:27Z</time></trkpt><trkpt lat="44.52549362277694" lon="0.9682924684818729"><ele>145.66666666666666</ele><time>2026-04-13T17:53:28Z</time></trkpt><trkpt lat="44.52544030421687" lon="0.9681989442589013"><ele>145.33333333333331</ele><time>2026-04-13T17:53:29Z</time></trkpt><trkpt lat="44.52540308375617" lon="0.9681267045664367"><ele>145.0</ele><time>2026-04-13T17:53:30Z</time></trkpt><trkpt lat="44.5253288418994" lon="0.9680828105003662"><ele>144.66666666666666</ele><time>2026-04-13T17:53:33Z</time></trkpt><trkpt lat="44.52540727114482" lon="0.9680193794638144"><ele>144.33333333333334</ele><time>2026-04-13T17:53:37Z</time></trkpt><trkpt lat="44.52550056671584" lon="0.9679821954547844"><ele>144.0</ele><time>2026-04-13T17:53:39Z</time></trkpt><trkpt lat="44.525579403745255" lon="0.9679416975935597"><ele>144.0</ele><time>2026-04-13T17:53:40Z</time></trkpt><trkpt lat="44.52564090618397" lon="0.967832625651913"><ele>144.0</ele><time>2026-04-13T17:53:41Z</time></trkpt><trkpt lat="44.5257071515738" lon="0.9677387584983393"><ele>144.0</ele><time>2026-04-13T17:53:42Z</time></trkpt><trkpt lat="44.525784809323" lon="0.9676454537855297"><ele>144.0</ele><time>2026-04-13T17:53:43Z</time></trkpt><trkpt lat="44.52587835402669" lon="0.9675750866616608"><ele>144.0</ele><time>2026-04-13T17:53:44Z</time></trkpt><trkpt lat="44.525965422722614" lon="0.9674939159070415"><ele>144.4</ele><time>2026-04-13T17:53:45Z</time></trkpt><trkpt lat="44.526053557972276" lon="0.967406820940214"><ele>144.8</ele><time>2026-04-13T17:53:46Z</time></trkpt><trkpt lat="44.526126281679666" lon="0.9673089606943749"><ele>145.2</ele><time>2026-04-13T17:53:47Z</time></trkpt><trkpt lat="44.526216567392275" lon="0.9672041381670344"><ele>145.6</ele><time>2026-04-13T17:53:48Z</time></trkpt><trkpt lat="44.52631502062839" lon="0.9671070831888353"><ele>146.0</ele><time>2026-04-13T17:53:49Z</time></trkpt><trkpt lat="44.526412137794786" lon="0.9670013999774684"><ele>149.4</ele><time>2026-04-13T17:53:50Z</time></trkpt><trkpt lat="44.52648831585045" lon="0.9668900022215285"><ele>152.8</ele><time>2026-04-13T17:53:51Z</time></trkpt><trkpt lat="44.526598423619035" lon="0.9667990100137823"><ele>156.20000000000002</ele><time>2026-04-13T17:53:52Z</time></trkpt><trkpt lat="44.526665304815126" lon="0.9666984471632574"><ele>159.6</ele><time>2026-04-13T17:53:53Z</time></trkpt><trkpt lat="44.5267449076276" lon="0.9666314631680141"><ele>163.0</ele><time>2026-04-13T17:53:54Z</time></trkpt><trkpt lat="44.526823413154666" lon="0.9665454290657676"><ele>163.5</ele><time>2026-04-13T17:53:54.999Z</time></trkpt><trkpt lat="44.52690896971281" lon="0.9664796094721403"><ele>164.0</ele><time>2026-04-13T17:53:55.999Z</time></trkpt><trkpt lat="44.52698199502889" lon="0.9664172386102177"><ele>164.5</ele><time>2026-04-13T17:53:56.999Z</time></trkpt><trkpt lat="44.527046535912056" lon="0.9663660171052691"><ele>165.0</ele><time>2026-04-13T17:53:57.999Z</time></trkpt><trkpt lat="44.52712054677681" lon="0.9662976092326298"><ele>165.5</ele><time>2026-04-13T17:53:59.999Z</time></trkpt><trkpt lat="44.52717205619697" lon="0.9662435956377557"><ele>166.0</ele><time>2026-04-13T17:54:01.999Z</time></trkpt><trkpt lat="44.52730065560208" lon="0.9663686159852449"><ele>167.0</ele><time>2026-04-13T17:54:03.999Z</time></trkpt><trkpt lat="44.52738247828945" lon="0.9664374520695962"><ele>168.0</ele><time>2026-04-13T17:54:04.999Z</time></trkpt><trkpt lat="44.52747926025065" lon="0.9664901256916079"><ele>169.0</ele><time>2026-04-13T17:54:05.999Z</time></trkpt><trkpt lat="44.527553728748025" lon="0.966569279956347"><ele>170.0</ele><time>2026-04-13T17:54:06.999Z</time></trkpt><trkpt lat="44.5276563429809" lon="0.9666555116966199"><ele>171.0</ele><time>2026-04-13T17:54:07.999Z</time></trkpt><trkpt lat="44.52777102855223" lon="0.9667260065096247"><ele>172.8</ele><time>2026-04-13T17:54:08.999Z</time></trkpt><trkpt lat="44.52789507917592" lon="0.966760374255039"><ele>174.60000000000002</ele><time>2026-04-13T17:54:09.999Z</time></trkpt><trkpt lat="44.527994277714" lon="0.9668034485064091"><ele>176.4</ele><time>2026-04-13T17:54:10.999Z</time></trkpt><trkpt lat="44.528095938823135" lon="0.9668611813222462"><ele>178.2</ele><time>2026-04-13T17:54:11.999Z</time></trkpt><trkpt lat="44.52818664464436" lon="0.9669131727540383"><ele>180.0</ele><time>2026-04-13T17:54:12.999Z</time></trkpt><trkpt lat="44.528277179915555" lon="0.9669685801791208"><ele>180.0</ele><time>2026-04-13T17:54:13.999Z</time></trkpt><trkpt lat="44.528377386093375" lon="0.9670216282817947"><ele>180.0</ele><time>2026-04-13T17:54:14.999Z</time></trkpt><trkpt lat="44.52848801503945" lon="0.9670796529040316"><ele>180.0</ele><time>2026-04-13T17:54:15.999Z</time></trkpt><trkpt lat="44.52859359769228" lon="0.9671192302067307"><ele>180.0</ele><time>2026-04-13T17:54:16.999Z</time></trkpt><trkpt lat="44.52870918225444" lon="0.9671390656426814"><ele>177.6</ele><time>2026-04-13T17:54:17.999Z</time></trkpt><trkpt lat="44.52883594944516" lon="0.9671448571531289"><ele>175.2</ele><time>2026-04-13T17:54:18.999Z</time></trkpt><trkpt lat="44.52894348956222" lon="0.9671880358355669"><ele>172.8</ele><time>2026-04-13T17:54:19.999Z</time></trkpt><trkpt lat="44.529041718952556" lon="0.9672066684215738"><ele>170.4</ele><time>2026-04-13T17:54:20.999Z</time></trkpt><trkpt lat="44.529130323185484" lon="0.9672310841328889"><ele>168.0</ele><time>2026-04-13T17:54:21.999Z</time></trkpt><trkpt lat="44.52920288226453" lon="0.9672827434569927"><ele>168.0</ele><time>2026-04-13T17:54:22.999Z</time></trkpt><trkpt lat="44.52926766473937" lon="0.9673471765857623"><ele>168.0</ele><time>2026-04-13T17:54:23.999Z</time></trkpt><trkpt lat="44.52933983267438" lon="0.9674136449724848"><ele>168.0</ele><time>2026-04-13T17:54:24.999Z</time></trkpt><trkpt lat="44.529411781052886" lon="0.9674690745411284"><ele>168.0</ele><time>2026-04-13T17:54:25.999Z</time></trkpt><trkpt lat="44.52948732370489" lon="0.9675088001694874"><ele>168.0</ele><time>2026-04-13T17:54:26.999Z</time></trkpt><trkpt lat="44.52957865997561" lon="0.9675452678675802"><ele>168.0</ele><time>2026-04-13T17:54:27.999Z</time></trkpt><trkpt lat="44.52966309245154" lon="0.9675683479900904"><ele>167.2</ele><time>2026-04-13T17:54:28.999Z</time></trkpt><trkpt lat="44.52974371566283" lon="0.9675883576102978"><ele>166.4</ele><time>2026-04-13T17:54:29.999Z</time></trkpt><trkpt lat="44.52984671585057" lon="0.9676116605821103"><ele>165.6</ele><time>2026-04-13T17:54:30.999Z</time></trkpt><trkpt lat="44.529942678626135" lon="0.9676251245808448"><ele>164.79999999999998</ele><time>2026-04-13T17:54:31.999Z</time></trkpt><trkpt lat="44.530040582540686" lon="0.9676322626499537"><ele>164.0</ele><time>2026-04-13T17:54:32.999Z</time></trkpt><trkpt lat="44.530139531645" lon="0.9676135346250835"><ele>164.0</ele><time>2026-04-13T17:54:33.999Z</time></trkpt><trkpt lat="44.53024438611546" lon="0.9675732278069665"><ele>164.0</ele><time>2026-04-13T17:54:34.999Z</time></trkpt><trkpt lat="44.530330936618235" lon="0.9675640031396023"><ele>164.0</ele><time>2026-04-13T17:54:35.999Z</time></trkpt><trkpt lat="44.530398208635134" lon="0.9675561201228822"><ele>164.0</ele><time>2026-04-13T17:54:36.999Z</time></trkpt><trkpt lat="44.53052780727288" lon="0.9676116860204529"><ele>164.0</ele><time>2026-04-13T17:54:38.999Z</time></trkpt><trkpt lat="44.53060322790148" lon="0.9676208871465863"><ele>164.0</ele><time>2026-04-13T17:54:39.999Z</time></trkpt><trkpt lat="44.53068290068704" lon="0.9675795719379658"><ele>164.0</ele><time>2026-04-13T17:54:40.999Z</time></trkpt><trkpt lat="44.53075529308275" lon="0.9675326524796013"><ele>164.0</ele><time>2026-04-13T17:54:41.999Z</time></trkpt><trkpt lat="44.53081130438908" lon="0.9674464601927942"><ele>164.0</ele><time>2026-04-13T17:54:42.999Z</time></trkpt><trkpt lat="44.53084247345017" lon="0.9673304263111743"><ele>164.0</ele><time>2026-04-13T17:54:43.999Z</time></trkpt><trkpt lat="44.53085869461211" lon="0.9672447575195875"><ele>164.0</ele><time>2026-04-13T17:54:44.999Z</time></trkpt><trkpt lat="44.53088994080637" lon="0.9671055616160258"><ele>164.0</ele><time>2026-04-13T17:54:46.999Z</time></trkpt><trkpt lat="44.53092325673395" lon="0.9670081453215938"><ele>164.0</ele><time>2026-04-13T17:54:47.999Z</time></trkpt><trkpt lat="44.53097464778923" lon="0.9669114111390643"><ele>164.0</ele><time>2026-04-13T17:54:48.999Z</time></trkpt><trkpt lat="44.5310170565266" lon="0.9668318061237853"><ele>164.0</ele><time>2026-04-13T17:54:49.999Z</time></trkpt><trkpt lat="44.53106859032626" lon="0.9667749207698383"><ele>164.0</ele><time>2026-04-13T17:54:50.999Z</time></trkpt><trkpt lat="44.531147233686816" lon="0.9667317504778292"><ele>164.0</ele><time>2026-04-13T17:54:51.999Z</time></trkpt><trkpt lat="44.53123380110872" lon="0.9666739836716142"><ele>164.0</ele><time>2026-04-13T17:54:52.999Z</time></trkpt><trkpt lat="44.53130542678546" lon="0.9666149508297507"><ele>164.0</ele><time>2026-04-13T17:54:53.999Z</time></trkpt><trkpt lat="44.53137138444032" lon="0.9665399394390096"><ele>164.0</ele><time>2026-04-13T17:54:54.999Z</time></trkpt><trkpt lat="44.531442887534936" lon="0.9664612605347482"><ele>164.0</ele><time>2026-04-13T17:54:55.999Z</time></trkpt><trkpt lat="44.53150566475455" lon="0.9664246843215104"><ele>164.0</ele><time>2026-04-13T17:54:56.999Z</time></trkpt><trkpt lat="44.53157063248047" lon="0.9664245532515258"><ele>164.0</ele><time>2026-04-13T17:54:57.999Z</time></trkpt><trkpt lat="44.5316255223238" lon="0.9663558355645646"><ele>164.0</ele><time>2026-04-13T17:54:58.999Z</time></trkpt><trkpt lat="44.53176159518815" lon="0.9663062972645479"><ele>164.0</ele><time>2026-04-13T17:55:00.999Z</time></trkpt><trkpt lat="44.531856756888665" lon="0.9662766493956285"><ele>164.0</ele><time>2026-04-13T17:55:01.999Z</time></trkpt><trkpt lat="44.53194641192124" lon="0.9662081002784668"><ele>164.0</ele><time>2026-04-13T17:55:02.999Z</time></trkpt><trkpt lat="44.53203437812168" lon="0.9661704096805221"><ele>164.0</ele><time>2026-04-13T17:55:03.999Z</time></trkpt><trkpt lat="44.532119945203526" lon="0.9661859023854533"><ele>164.0</ele><time>2026-04-13T17:55:04.998Z</time></trkpt><trkpt lat="44.53223664243894" lon="0.9662262519256408"><ele>164.0</ele><time>2026-04-13T17:55:05.998Z</time></trkpt><trkpt lat="44.53235088592897" lon="0.9662528468810884"><ele>164.0</ele><time>2026-04-13T17:55:07Z</time></trkpt><trkpt lat="44.532436945867346" lon="0.966255145063593"><ele>164.0</ele><time>2026-04-13T17:55:08Z</time></trkpt><trkpt lat="44.532530076366115" lon="0.9662158160205074"><ele>164.0</ele><time>2026-04-13T17:55:09Z</time></trkpt><trkpt lat="44.532655045343816" lon="0.966146654371558"><ele>164.0</ele><time>2026-04-13T17:55:10Z</time></trkpt><trkpt lat="44.532780485657234" lon="0.9661037575123442"><ele>164.0</ele><time>2026-04-13T17:55:11Z</time></trkpt><trkpt lat="44.532913301117866" lon="0.96609068510339"><ele>164.0</ele><time>2026-04-13T17:55:12Z</time></trkpt><trkpt lat="44.53300896960276" lon="0.9660475118502014"><ele>164.0</ele><time>2026-04-13T17:55:13Z</time></trkpt><trkpt lat="44.53310640903072" lon="0.9659779904433371"><ele>164.6</ele><time>2026-04-13T17:55:14Z</time></trkpt><trkpt lat="44.53317526582948" lon="0.9658950905597008"><ele>165.2</ele><time>2026-04-13T17:55:15Z</time></trkpt><trkpt lat="44.53324024031524" lon="0.9657808923492265"><ele>165.79999999999998</ele><time>2026-04-13T17:55:16Z</time></trkpt><trkpt lat="44.5332904069258" lon="0.9656926163783144"><ele>166.39999999999998</ele><time>2026-04-13T17:55:17Z</time></trkpt><trkpt lat="44.53339018746553" lon="0.9655353788233285"><ele>167.0</ele><time>2026-04-13T17:55:19Z</time></trkpt><trkpt lat="44.53346528930872" lon="0.9654353568115611"><ele>167.0</ele><time>2026-04-13T17:55:20Z</time></trkpt><trkpt lat="44.53352664365262" lon="0.965343051252455"><ele>167.0</ele><time>2026-04-13T17:55:21Z</time></trkpt><trkpt lat="44.53360957565594" lon="0.9652753702563924"><ele>167.0</ele><time>2026-04-13T17:55:22Z</time></trkpt><trkpt lat="44.53370720077769" lon="0.9652163825557142"><ele>167.0</ele><time>2026-04-13T17:55:23Z</time></trkpt><trkpt lat="44.533824041275224" lon="0.965198310436997"><ele>167.0</ele><time>2026-04-13T17:55:24Z</time></trkpt><trkpt lat="44.533922425917446" lon="0.9651770933303971"><ele>167.2</ele><time>2026-04-13T17:55:25Z</time></trkpt><trkpt lat="44.53401626098244" lon="0.9651302937082086"><ele>167.39999999999998</ele><time>2026-04-13T17:55:26Z</time></trkpt><trkpt lat="44.53410253100505" lon="0.9650358467530563"><ele>167.60000000000002</ele><time>2026-04-13T17:55:27Z</time></trkpt><trkpt lat="44.53419137654329" lon="0.9649189400422692"><ele>167.8</ele><time>2026-04-13T17:55:28Z</time></trkpt><trkpt lat="44.53425998848655" lon="0.9648091656756383"><ele>168.0</ele><time>2026-04-13T17:55:29Z</time></trkpt><trkpt lat="44.53431767259969" lon="0.9646824998608147"><ele>167.0</ele><time>2026-04-13T17:55:30Z</time></trkpt><trkpt lat="44.5343553648985" lon="0.9645105183813637"><ele>166.0</ele><time>2026-04-13T17:55:31Z</time></trkpt><trkpt lat="44.53438663556445" lon="0.9643613696201901"><ele>165.0</ele><time>2026-04-13T17:55:32Z</time></trkpt><trkpt lat="44.53442229697788" lon="0.9642542879070719"><ele>164.0</ele><time>2026-04-13T17:55:33Z</time></trkpt><trkpt lat="44.53448189609717" lon="0.9641265520547468"><ele>163.0</ele><time>2026-04-13T17:55:35Z</time></trkpt><trkpt lat="44.53454601683468" lon="0.9640087284541468"><ele>162.83333333333334</ele><time>2026-04-13T17:55:37Z</time></trkpt><trkpt lat="44.53457596435404" lon="0.9639286403286083"><ele>162.66666666666669</ele><time>2026-04-13T17:55:38Z</time></trkpt><trkpt lat="44.53460918292735" lon="0.9638514163338651"><ele>162.5</ele><time>2026-04-13T17:55:39Z</time></trkpt><trkpt lat="44.534648967495166" lon="0.9637620205051058"><ele>162.33333333333334</ele><time>2026-04-13T17:55:40Z</time></trkpt><trkpt lat="44.53469710619113" lon="0.9636530932002852"><ele>162.16666666666666</ele><time>2026-04-13T17:55:41Z</time></trkpt><trkpt lat="44.53476570648171" lon="0.9635499477679648"><ele>162.0</ele><time>2026-04-13T17:55:42Z</time></trkpt><trkpt lat="44.53481038431744" lon="0.9634441523935939"><ele>161.5</ele><time>2026-04-13T17:55:43Z</time></trkpt><trkpt lat="44.53481936678791" lon="0.9632926487566924"><ele>161.0</ele><time>2026-04-13T17:55:44Z</time></trkpt><trkpt lat="44.53479720884184" lon="0.9631050466885173"><ele>160.5</ele><time>2026-04-13T17:55:45Z</time></trkpt><trkpt lat="44.534791671336286" lon="0.9629070104779934"><ele>160.0</ele><time>2026-04-13T17:55:46Z</time></trkpt><trkpt lat="44.53479018132194" lon="0.9627053627611343"><ele>160.0</ele><time>2026-04-13T17:55:47Z</time></trkpt><trkpt lat="44.53477145351869" lon="0.9625547806251247"><ele>160.0</ele><time>2026-04-13T17:55:48Z</time></trkpt><trkpt lat="44.53476454668954" lon="0.9624174586324159"><ele>160.0</ele><time>2026-04-13T17:55:49Z</time></trkpt><trkpt lat="44.53475519028402" lon="0.9622514520947051"><ele>160.0</ele><time>2026-04-13T17:55:50Z</time></trkpt><trkpt lat="44.53473779837168" lon="0.9621545538541427"><ele>160.0</ele><time>2026-04-13T17:55:51Z</time></trkpt><trkpt lat="44.534733881075596" lon="0.9620472381239935"><ele>159.0</ele><time>2026-04-13T17:55:52Z</time></trkpt><trkpt lat="44.534765327721786" lon="0.9619026509892401"><ele>158.0</ele><time>2026-04-13T17:55:53Z</time></trkpt><trkpt lat="44.534832339970954" lon="0.9617473405388843"><ele>157.0</ele><time>2026-04-13T17:55:54Z</time></trkpt><trkpt lat="44.534883591792294" lon="0.9615917493923734"><ele>156.0</ele><time>2026-04-13T17:55:55Z</time></trkpt><trkpt lat="44.53493750549691" lon="0.961406474173682"><ele>156.0</ele><time>2026-04-13T17:55:56Z</time></trkpt><trkpt lat="44.53500454763798" lon="0.9612345414175641"><ele>156.0</ele><time>2026-04-13T17:55:57Z</time></trkpt><trkpt lat="44.535056783991394" lon="0.9610778255692884"><ele>156.0</ele><time>2026-04-13T17:55:57.999Z</time></trkpt><trkpt lat="44.53510525131377" lon="0.9609475723774957"><ele>156.0</ele><time>2026-04-13T17:55:58.999Z</time></trkpt><trkpt lat="44.53517029855706" lon="0.9608291019141992"><ele>155.5</ele><time>2026-04-13T17:55:59.999Z</time></trkpt><trkpt lat="44.53523274622206" lon="0.960710732565388"><ele>155.0</ele><time>2026-04-13T17:56:00.999Z</time></trkpt><trkpt lat="44.53527093593689" lon="0.960563048076186"><ele>154.5</ele><time>2026-04-13T17:56:01.999Z</time></trkpt><trkpt lat="44.53530627695115" lon="0.9603845710077571"><ele>154.0</ele><time>2026-04-13T17:56:02.999Z</time></trkpt><trkpt lat="44.535340767880925" lon="0.9602210587373471"><ele>154.0</ele><time>2026-04-13T17:56:03.999Z</time></trkpt><trkpt lat="44.53537198211588" lon="0.9600896890390912"><ele>154.0</ele><time>2026-04-13T17:56:04.999Z</time></trkpt><trkpt lat="44.53540824551891" lon="0.959958221824558"><ele>154.0</ele><time>2026-04-13T17:56:05.999Z</time></trkpt><trkpt lat="44.53545027750843" lon="0.9598413795406989"><ele>154.0</ele><time>2026-04-13T17:56:06.999Z</time></trkpt><trkpt lat="44.535511526647745" lon="0.9597459591926061"><ele>154.0</ele><time>2026-04-13T17:56:07.999Z</time></trkpt><trkpt lat="44.53558174005975" lon="0.9596157584468904"><ele>152.66666666666669</ele><time>2026-04-13T17:56:08.999Z</time></trkpt><trkpt lat="44.53563187053271" lon="0.9594983705672114"><ele>151.33333333333334</ele><time>2026-04-13T17:56:09.999Z</time></trkpt><trkpt lat="44.53567130565056" lon="0.959392804677235"><ele>150.0</ele><time>2026-04-13T17:56:10.999Z</time></trkpt><trkpt lat="44.53571293325228" lon="0.9592817302596314"><ele>148.66666666666666</ele><time>2026-04-13T17:56:11.999Z</time></trkpt><trkpt lat="44.53574361294344" lon="0.9591873668210539"><ele>147.33333333333331</ele><time>2026-04-13T17:56:12.999Z</time></trkpt><trkpt lat="44.53578328922593" lon="0.959084507892438"><ele>146.0</ele><time>2026-04-13T17:56:13.999Z</time></trkpt><trkpt lat="44.53581470573427" lon="0.9589699778552702"><ele>145.66666666666666</ele><time>2026-04-13T17:56:14.999Z</time></trkpt><trkpt lat="44.53580730024819" lon="0.9588663502586454"><ele>145.33333333333331</ele><time>2026-04-13T17:56:15.999Z</time></trkpt><trkpt lat="44.53582123404418" lon="0.9587384299352711"><ele>145.0</ele><time>2026-04-13T17:56:16.999Z</time></trkpt><trkpt lat="44.535839100043916" lon="0.9585969602605273"><ele>144.66666666666666</ele><time>2026-04-13T17:56:17.999Z</time></trkpt><trkpt lat="44.5358555543306" lon="0.9584710181155395"><ele>144.33333333333334</ele><time>2026-04-13T17:56:18.999Z</time></trkpt><trkpt lat="44.53588776887778" lon="0.9583674372648949"><ele>144.0</ele><time>2026-04-13T17:56:19.999Z</time></trkpt><trkpt lat="44.53588204607069" lon="0.9582422777372399"><ele>142.2</ele><time>2026-04-13T17:56:20.999Z</time></trkpt><trkpt lat="44.53593335460044" lon="0.9581232952477191"><ele>140.4</ele><time>2026-04-13T17:56:22.999Z</time></trkpt><trkpt lat="44.53600643914588" lon="0.9580831980442205"><ele>138.6</ele><time>2026-04-13T17:56:24.999Z</time></trkpt><trkpt lat="44.53610410163199" lon="0.958182428882558"><ele>136.8</ele><time>2026-04-13T17:56:27.999Z</time></trkpt><trkpt lat="44.53622499537796" lon="0.9582118061946001"><ele>135.0</ele><time>2026-04-13T17:56:29.999Z</time></trkpt><trkpt lat="44.53634356958371" lon="0.9582467725042796"><ele>135.0</ele><time>2026-04-13T17:56:31.999Z</time></trkpt><trkpt lat="44.53644867225072" lon="0.9583031737766794"><ele>135.0</ele><time>2026-04-13T17:56:33.999Z</time></trkpt><trkpt lat="44.5365810392162" lon="0.9583692549882248"><ele>135.0</ele><time>2026-04-13T17:56:35.999Z</time></trkpt><trkpt lat="44.536668242526595" lon="0.9584068348185246"><ele>135.0</ele><time>2026-04-13T17:56:36.999Z</time></trkpt><trkpt lat="44.536784913999895" lon="0.9584526966446529"><ele>135.0</ele><time>2026-04-13T17:56:37.999Z</time></trkpt><trkpt lat="44.53692193981993" lon="0.9585063660079182"><ele>135.0</ele><time>2026-04-13T17:56:38.999Z</time></trkpt><trkpt lat="44.537074336413674" lon="0.9585545839417816"><ele>135.0</ele><time>2026-04-13T17:56:39.999Z</time></trkpt><trkpt lat="44.53724772592175" lon="0.9585665031783794"><ele>130.66666666666666</ele><time>2026-04-13T17:56:40.999Z</time></trkpt><trkpt lat="44.53740397991773" lon="0.9585807399502697"><ele>126.33333333333333</ele><time>2026-04-13T17:56:41.999Z</time></trkpt><trkpt lat="44.53755480433274" lon="0.9585725858368245"><ele>122.0</ele><time>2026-04-13T17:56:42.999Z</time></trkpt><trkpt lat="44.537720357817705" lon="0.9585262827342845"><ele>121.66666666666666</ele><time>2026-04-13T17:56:43.999Z</time></trkpt><trkpt lat="44.537889728010974" lon="0.9584476635513534"><ele>121.33333333333334</ele><time>2026-04-13T17:56:44.999Z</time></trkpt><trkpt lat="44.53806950554917" lon="0.9583730518252912"><ele>121.0</ele><time>2026-04-13T17:56:45.999Z</time></trkpt><trkpt lat="44.53823578663072" lon="0.9583337911617865"><ele>121.0</ele><time>2026-04-13T17:56:46.999Z</time></trkpt><trkpt lat="44.538369239491146" lon="0.9582449032230904"><ele>121.0</ele><time>2026-04-13T17:56:47.999Z</time></trkpt><trkpt lat="44.53848598562561" lon="0.9581687190276861"><ele>121.0</ele><time>2026-04-13T17:56:48.999Z</time></trkpt><trkpt lat="44.53857799700862" lon="0.9581061269428396"><ele>121.0</ele><time>2026-04-13T17:56:49.999Z</time></trkpt><trkpt lat="44.538652147914895" lon="0.9580694975545173"><ele>121.00000000000001</ele><time>2026-04-13T17:56:50.999Z</time></trkpt><trkpt lat="44.5387270969779" lon="0.9580604206310268"><ele>121.0</ele><time>2026-04-13T17:56:52.999Z</time></trkpt><trkpt lat="44.538710194003926" lon="0.9581621168523117"><ele>121.0</ele><time>2026-04-13T17:56:54.999Z</time></trkpt><trkpt lat="44.538694656045806" lon="0.9582590747041566"><ele>121.0</ele><time>2026-04-13T17:56:55.999Z</time></trkpt><trkpt lat="44.538686709775874" lon="0.9583793746424502"><ele>121.00000000000001</ele><time>2026-04-13T17:56:56.999Z</time></trkpt><trkpt lat="44.53866799243503" lon="0.9585212642722897"><ele>121.0</ele><time>2026-04-13T17:56:57.999Z</time></trkpt><trkpt lat="44.538648993289215" lon="0.9586592486485409"><ele>122.0</ele><time>2026-04-13T17:56:58.999Z</time></trkpt><trkpt lat="44.53862275118137" lon="0.9588269433928371"><ele>123.0</ele><time>2026-04-13T17:56:59.999Z</time></trkpt><trkpt lat="44.538587087898954" lon="0.9589876441829854"><ele>124.0</ele><time>2026-04-13T17:57:00.999Z</time></trkpt><trkpt lat="44.53857376979864" lon="0.9591609064142481"><ele>125.0</ele><time>2026-04-13T17:57:01.999Z</time></trkpt><trkpt lat="44.538543683407894" lon="0.959354268818263"><ele>125.33333333333333</ele><time>2026-04-13T17:57:02.999Z</time></trkpt><trkpt lat="44.53851490910065" lon="0.9595692795895555"><ele>125.66666666666666</ele><time>2026-04-13T17:57:03.999Z</time></trkpt><trkpt lat="44.53848368451166" lon="0.9597851865157491"><ele>126.0</ele><time>2026-04-13T17:57:04.999Z</time></trkpt><trkpt lat="44.53844856482928" lon="0.9600121655057893"><ele>126.5</ele><time>2026-04-13T17:57:05.999Z</time></trkpt><trkpt lat="44.53841853061443" lon="0.960227048931354"><ele>127.0</ele><time>2026-04-13T17:57:06.998Z</time></trkpt><trkpt lat="44.53838873664631" lon="0.9603994649407531"><ele>127.5</ele><time>2026-04-13T17:57:07.998Z</time></trkpt><trkpt lat="44.5383773572239" lon="0.9605810601161644"><ele>128.0</ele><time>2026-04-13T17:57:08.998Z</time></trkpt><trkpt lat="44.53837109025278" lon="0.9607708822471582"><ele>128.5</ele><time>2026-04-13T17:57:09.998Z</time></trkpt><trkpt lat="44.538393196862465" lon="0.9609446538435201"><ele>129.0</ele><time>2026-04-13T17:57:10.998Z</time></trkpt><trkpt lat="44.5384550566158" lon="0.9611429586532239"><ele>129.5</ele><time>2026-04-13T17:57:11.998Z</time></trkpt><trkpt lat="44.53853301636302" lon="0.9613445634204494"><ele>130.0</ele><time>2026-04-13T17:57:13Z</time></trkpt><trkpt lat="44.5386091172727" lon="0.961541020709636"><ele>131.33333333333334</ele><time>2026-04-13T17:57:14Z</time></trkpt><trkpt lat="44.538679256222515" lon="0.9617539294509154"><ele>132.66666666666666</ele><time>2026-04-13T17:57:15Z</time></trkpt><trkpt lat="44.538748364206874" lon="0.961977695432319"><ele>134.0</ele><time>2026-04-13T17:57:16Z</time></trkpt><trkpt lat="44.538790602416924" lon="0.9622153224560658"><ele>136.33333333333331</ele><time>2026-04-13T17:57:17Z</time></trkpt><trkpt lat="44.53882251274101" lon="0.9624575311526476"><ele>138.66666666666666</ele><time>2026-04-13T17:57:18Z</time></trkpt><trkpt lat="44.53883663651903" lon="0.9626976370482482"><ele>141.0</ele><time>2026-04-13T17:57:19Z</time></trkpt><trkpt lat="44.53886092432663" lon="0.962889292401248"><ele>141.0</ele><time>2026-04-13T17:57:20Z</time></trkpt><trkpt lat="44.53885188301412" lon="0.9630538047360815"><ele>141.0</ele><time>2026-04-13T17:57:21Z</time></trkpt><trkpt lat="44.538837516090524" lon="0.9631873250213712"><ele>141.0</ele><time>2026-04-13T17:57:22Z</time></trkpt><trkpt lat="44.53882193149465" lon="0.963297836939017"><ele>141.0</ele><time>2026-04-13T17:57:23Z</time></trkpt><trkpt lat="44.538796818340366" lon="0.9633867765464768"><ele>141.0</ele><time>2026-04-13T17:57:24Z</time></trkpt><trkpt lat="44.53876172824956" lon="0.963552983367853"><ele>140.66666666666666</ele><time>2026-04-13T17:57:26Z</time></trkpt><trkpt lat="44.53904798196613" lon="0.9637812604793633"><ele>140.33333333333331</ele><time>2026-04-13T17:57:27Z</time></trkpt><trkpt lat="44.53911386293213" lon="0.9639060895530621"><ele>140.0</ele><time>2026-04-13T17:57:28Z</time></trkpt><trkpt lat="44.53915367753784" lon="0.9639987848158864"><ele>140.0</ele><time>2026-04-13T17:57:29Z</time></trkpt><trkpt lat="44.53913036192213" lon="0.9641179712449773"><ele>140.0</ele><time>2026-04-13T17:57:30Z</time></trkpt><trkpt lat="44.53910315327816" lon="0.9642414871541201"><ele>140.0</ele><time>2026-04-13T17:57:31Z</time></trkpt><trkpt lat="44.53907844886017" lon="0.9643748083381966"><ele>140.0</ele><time>2026-04-13T17:57:32Z</time></trkpt><trkpt lat="44.539098808028" lon="0.9644995284282454"><ele>140.0</ele><time>2026-04-13T17:57:33Z</time></trkpt><trkpt lat="44.53913372923976" lon="0.9646555689705021"><ele>141.4</ele><time>2026-04-13T17:57:34Z</time></trkpt><trkpt lat="44.539183070327695" lon="0.9648185273947756"><ele>142.8</ele><time>2026-04-13T17:57:35Z</time></trkpt><trkpt lat="44.5392212886932" lon="0.964952350438312"><ele>144.2</ele><time>2026-04-13T17:57:36Z</time></trkpt><trkpt lat="44.539232418051476" lon="0.965090777631004"><ele>145.6</ele><time>2026-04-13T17:57:37Z</time></trkpt><trkpt lat="44.53923509929595" lon="0.9652432090290817"><ele>147.0</ele><time>2026-04-13T17:57:38Z</time></trkpt><trkpt lat="44.53923253278394" lon="0.9654250725037006"><ele>148.0</ele><time>2026-04-13T17:57:39Z</time></trkpt><trkpt lat="44.53921999574367" lon="0.965609764367903"><ele>149.0</ele><time>2026-04-13T17:57:40Z</time></trkpt><trkpt lat="44.53922340450193" lon="0.9657993051042932"><ele>150.0</ele><time>2026-04-13T17:57:41Z</time></trkpt><trkpt lat="44.53924111726736" lon="0.9659972485155109"><ele>151.0</ele><time>2026-04-13T17:57:42Z</time></trkpt><trkpt lat="44.539295596179194" lon="0.9661584198751684"><ele>151.5</ele><time>2026-04-13T17:57:43Z</time></trkpt><trkpt lat="44.53936586709454" lon="0.9663364296352657"><ele>152.0</ele><time>2026-04-13T17:57:44Z</time></trkpt><trkpt lat="44.53943589346334" lon="0.9665127892926582"><ele>152.5</ele><time>2026-04-13T17:57:45Z</time></trkpt><trkpt lat="44.539491199660354" lon="0.9666740553534031"><ele>153.0</ele><time>2026-04-13T17:57:46Z</time></trkpt><trkpt lat="44.539518398140146" lon="0.966819537713609"><ele>153.0</ele><time>2026-04-13T17:57:47Z</time></trkpt><trkpt lat="44.539538283731865" lon="0.9669411103325066"><ele>153.0</ele><time>2026-04-13T17:57:48Z</time></trkpt><trkpt lat="44.53956371198857" lon="0.9670477539325212"><ele>153.0</ele><time>2026-04-13T17:57:49Z</time></trkpt><trkpt lat="44.53961392591515" lon="0.9671511472144645"><ele>153.0</ele><time>2026-04-13T17:57:50Z</time></trkpt><trkpt lat="44.539690237060775" lon="0.9672228245281177"><ele>153.0</ele><time>2026-04-13T17:57:51Z</time></trkpt><trkpt lat="44.53976954265135" lon="0.9672723278444446"><ele>153.0</ele><time>2026-04-13T17:57:52Z</time></trkpt><trkpt lat="44.53985084150462" lon="0.9673469674550332"><ele>152.25</ele><time>2026-04-13T17:57:53Z</time></trkpt><trkpt lat="44.53992875115162" lon="0.9674427813265715"><ele>151.5</ele><time>2026-04-13T17:57:54Z</time></trkpt><trkpt lat="44.54002882694766" lon="0.9675600166905087"><ele>150.75</ele><time>2026-04-13T17:57:55Z</time></trkpt><trkpt lat="44.54013353969132" lon="0.9676851824759751"><ele>150.0</ele><time>2026-04-13T17:57:56Z</time></trkpt><trkpt lat="44.54022272028143" lon="0.9678378014301983"><ele>151.0</ele><time>2026-04-13T17:57:57Z</time></trkpt><trkpt lat="44.5402988334836" lon="0.9680124020847648"><ele>152.0</ele><time>2026-04-13T17:57:58Z</time></trkpt><trkpt lat="44.54037655750918" lon="0.9681545888186532"><ele>153.0</ele><time>2026-04-13T17:57:59Z</time></trkpt><trkpt lat="44.54046489040137" lon="0.9682706774523385"><ele>154.0</ele><time>2026-04-13T17:58:00Z</time></trkpt><trkpt lat="44.54059436253871" lon="0.9683525559930111"><ele>155.5</ele><time>2026-04-13T17:58:01Z</time></trkpt><trkpt lat="44.54074248338631" lon="0.9684050403567932"><ele>157.0</ele><time>2026-04-13T17:58:02Z</time></trkpt><trkpt lat="44.54089188887319" lon="0.9684598990210442"><ele>158.5</ele><time>2026-04-13T17:58:03Z</time></trkpt><trkpt lat="44.54102634237737" lon="0.9685147042774839"><ele>160.0</ele><time>2026-04-13T17:58:03.999Z</time></trkpt><trkpt lat="44.54112997608968" lon="0.9685687338723874"><ele>160.0</ele><time>2026-04-13T17:58:04.999Z</time></trkpt><trkpt lat="44.541202917442995" lon="0.9685852012794411"><ele>160.0</ele><time>2026-04-13T17:58:05.999Z</time></trkpt><trkpt lat="44.54128851380252" lon="0.9685178382268108"><ele>160.0</ele><time>2026-04-13T17:58:07.999Z</time></trkpt><trkpt lat="44.5412815519611" lon="0.968405040709097"><ele>160.0</ele><time>2026-04-13T17:58:08.999Z</time></trkpt><trkpt lat="44.541275336096646" lon="0.9682741482969688"><ele>160.0</ele><time>2026-04-13T17:58:09.999Z</time></trkpt><trkpt lat="44.54126610855411" lon="0.9681257900732245"><ele>159.4</ele><time>2026-04-13T17:58:10.999Z</time></trkpt><trkpt lat="44.54125720698018" lon="0.9679868956320683"><ele>158.8</ele><time>2026-04-13T17:58:11.999Z</time></trkpt><trkpt lat="44.541298309868665" lon="0.9678707668398161"><ele>158.2</ele><time>2026-04-13T17:58:12.999Z</time></trkpt><trkpt lat="44.54137603365809" lon="0.9677861756591932"><ele>157.6</ele><time>2026-04-13T17:58:13.999Z</time></trkpt><trkpt lat="44.54147877512903" lon="0.9677302757334779"><ele>157.0</ele><time>2026-04-13T17:58:14.999Z</time></trkpt><trkpt lat="44.54158056512485" lon="0.967680008234116"><ele>157.0</ele><time>2026-04-13T17:58:15.999Z</time></trkpt><trkpt lat="44.54169446593612" lon="0.9676197822804372"><ele>157.0</ele><time>2026-04-13T17:58:16.999Z</time></trkpt><trkpt lat="44.54181310923" lon="0.9675440697209488"><ele>157.0</ele><time>2026-04-13T17:58:17.999Z</time></trkpt><trkpt lat="44.541930384235314" lon="0.9674761143464131"><ele>157.0</ele><time>2026-04-13T17:58:18.999Z</time></trkpt><trkpt lat="44.5420259645094" lon="0.967429928169942"><ele>159.6</ele><time>2026-04-13T17:58:19.999Z</time></trkpt><trkpt lat="44.542121487367694" lon="0.967356855202805"><ele>162.2</ele><time>2026-04-13T17:58:20.999Z</time></trkpt><trkpt lat="44.542205974182224" lon="0.9672529929857568"><ele>164.8</ele><time>2026-04-13T17:58:21.999Z</time></trkpt><trkpt lat="44.54228192556693" lon="0.9671637531619325"><ele>167.4</ele><time>2026-04-13T17:58:22.999Z</time></trkpt><trkpt lat="44.54233752038479" lon="0.9670179453125403"><ele>170.0</ele><time>2026-04-13T17:58:23.999Z</time></trkpt><trkpt lat="44.54237708453486" lon="0.9669459354242012"><ele>170.0</ele><time>2026-04-13T17:58:24.999Z</time></trkpt><trkpt lat="44.54247545815389" lon="0.9668727485751616"><ele>170.0</ele><time>2026-04-13T17:58:25.999Z</time></trkpt><trkpt lat="44.54258223970838" lon="0.9668526689221236"><ele>170.0</ele><time>2026-04-13T17:58:26.999Z</time></trkpt><trkpt lat="44.542702513366606" lon="0.9668665924511937"><ele>170.0</ele><time>2026-04-13T17:58:27.999Z</time></trkpt><trkpt lat="44.54281927742815" lon="0.966935921600735"><ele>172.2</ele><time>2026-04-13T17:58:28.999Z</time></trkpt><trkpt lat="44.542910594978004" lon="0.9669914783008157"><ele>174.4</ele><time>2026-04-13T17:58:29.999Z</time></trkpt><trkpt lat="44.543003498562825" lon="0.9670369043980984"><ele>176.60000000000002</ele><time>2026-04-13T17:58:30.999Z</time></trkpt><trkpt lat="44.54309867002803" lon="0.9670690312250223"><ele>178.8</ele><time>2026-04-13T17:58:31.999Z</time></trkpt><trkpt lat="44.54322759550473" lon="0.9671303337555944"><ele>181.0</ele><time>2026-04-13T17:58:32.999Z</time></trkpt><trkpt lat="44.5433348594271" lon="0.967196317654863"><ele>181.0</ele><time>2026-04-13T17:58:33.999Z</time></trkpt><trkpt lat="44.543445894222934" lon="0.9672583309219035"><ele>181.0</ele><time>2026-04-13T17:58:34.999Z</time></trkpt><trkpt lat="44.54355581715453" lon="0.9673453493884698"><ele>181.0</ele><time>2026-04-13T17:58:35.999Z</time></trkpt><trkpt lat="44.5436631457042" lon="0.9674398389447162"><ele>181.0</ele><time>2026-04-13T17:58:36.999Z</time></trkpt><trkpt lat="44.54375673991303" lon="0.9675030406738759"><ele>181.60000000000002</ele><time>2026-04-13T17:58:37.999Z</time></trkpt><trkpt lat="44.543828903539165" lon="0.967551855894001"><ele>182.2</ele><time>2026-04-13T17:58:38.999Z</time></trkpt><trkpt lat="44.543930968758225" lon="0.9675862576806619"><ele>182.8</ele><time>2026-04-13T17:58:40.999Z</time></trkpt><trkpt lat="44.543997793791" lon="0.9676241312617155"><ele>183.39999999999998</ele><time>2026-04-13T17:58:42.999Z</time></trkpt><trkpt lat="44.544093071312915" lon="0.9677333387783636"><ele>184.0</ele><time>2026-04-13T17:58:44.999Z</time></trkpt><trkpt lat="44.54415186616759" lon="0.9677932225865865"><ele>184.0</ele><time>2026-04-13T17:58:45.999Z</time></trkpt><trkpt lat="44.54426165089643" lon="0.9678879734833185"><ele>184.0</ele><time>2026-04-13T17:58:47.999Z</time></trkpt><trkpt lat="44.54432562329082" lon="0.9679306359681737"><ele>184.0</ele><time>2026-04-13T17:58:48.999Z</time></trkpt><trkpt lat="44.544390290329325" lon="0.9679643858395709"><ele>184.0</ele><time>2026-04-13T17:58:49.999Z</time></trkpt><trkpt lat="44.54445491350837" lon="0.9679922544468044"><ele>184.0</ele><time>2026-04-13T17:58:50.999Z</time></trkpt><trkpt lat="44.54452230278802" lon="0.9680208603729059"><ele>184.0</ele><time>2026-04-13T17:58:51.999Z</time></trkpt><trkpt lat="44.54463915422537" lon="0.9680730858524474"><ele>185.33333333333334</ele><time>2026-04-13T17:58:53.999Z</time></trkpt><trkpt lat="44.544763046289575" lon="0.9681367569150301"><ele>186.66666666666669</ele><time>2026-04-13T17:58:55.999Z</time></trkpt><trkpt lat="44.54482506797486" lon="0.9681696758591632"><ele>188.0</ele><time>2026-04-13T17:58:56.999Z</time></trkpt><trkpt lat="44.54488464770195" lon="0.968201955230867"><ele>189.33333333333334</ele><time>2026-04-13T17:58:57.999Z</time></trkpt><trkpt lat="44.544961072220346" lon="0.9682433609281441"><ele>190.66666666666666</ele><time>2026-04-13T17:58:59.999Z</time></trkpt><trkpt lat="44.54505316075476" lon="0.9682679552691211"><ele>192.0</ele><time>2026-04-13T17:59:01.999Z</time></trkpt><trkpt lat="44.54510617492325" lon="0.968319881966257"><ele>192.0</ele><time>2026-04-13T17:59:02.999Z</time></trkpt><trkpt lat="44.545176010330316" lon="0.9683566405269098"><ele>192.0</ele><time>2026-04-13T17:59:03.999Z</time></trkpt><trkpt lat="44.54527073318925" lon="0.9683840373025356"><ele>192.0</ele><time>2026-04-13T17:59:04.999Z</time></trkpt><trkpt lat="44.545374610669164" lon="0.9684493940437865"><ele>192.0</ele><time>2026-04-13T17:59:05.999Z</time></trkpt><trkpt lat="44.5454643857501" lon="0.968506361222309"><ele>192.0</ele><time>2026-04-13T17:59:06.999Z</time></trkpt><trkpt lat="44.54551967650227" lon="0.968558803379746"><ele>192.6</ele><time>2026-04-13T17:59:07.999Z</time></trkpt><trkpt lat="44.54559530219663" lon="0.9686179760190117"><ele>193.2</ele><time>2026-04-13T17:59:09.999Z</time></trkpt><trkpt lat="44.545678629753034" lon="0.9684404992473182"><ele>193.8</ele><time>2026-04-13T17:59:11.999Z</time></trkpt><trkpt lat="44.54571675464832" lon="0.96833391772972"><ele>194.4</ele><time>2026-04-13T17:59:12.998Z</time></trkpt><trkpt lat="44.54572765371971" lon="0.9681746540875878"><ele>195.0</ele><time>2026-04-13T17:59:14.998Z</time></trkpt><trkpt lat="44.54608582296804" lon="0.9681603229100283"><ele>193.75</ele><time>2026-04-13T17:59:16.998Z</time></trkpt><trkpt lat="44.54622696014554" lon="0.9681488593369599"><ele>192.5</ele><time>2026-04-13T17:59:17.998Z</time></trkpt><trkpt lat="44.54637361262026" lon="0.968155506438096"><ele>191.25</ele><time>2026-04-13T17:59:19Z</time></trkpt><trkpt lat="44.546524087698025" lon="0.9681547487968262"><ele>190.0</ele><time>2026-04-13T17:59:20Z</time></trkpt><trkpt lat="44.5466551964829" lon="0.9681393555040699"><ele>190.0</ele><time>2026-04-13T17:59:21Z</time></trkpt><trkpt lat="44.546757577173494" lon="0.968125154199561"><ele>190.0</ele><time>2026-04-13T17:59:22Z</time></trkpt><trkpt lat="44.54684400098086" lon="0.9680798500732216"><ele>190.0</ele><time>2026-04-13T17:59:23Z</time></trkpt><trkpt lat="44.54691914200037" lon="0.9680035972158261"><ele>190.0</ele><time>2026-04-13T17:59:24Z</time></trkpt><trkpt lat="44.54697923341294" lon="0.9679007390667015"><ele>190.0</ele><time>2026-04-13T17:59:25Z</time></trkpt><trkpt lat="44.547057045606266" lon="0.9678214151914422"><ele>187.5</ele><time>2026-04-13T17:59:26Z</time></trkpt><trkpt lat="44.547158800914644" lon="0.9677726764507258"><ele>185.0</ele><time>2026-04-13T17:59:27Z</time></trkpt><trkpt lat="44.54727317539623" lon="0.9677131321692458"><ele>182.5</ele><time>2026-04-13T17:59:28Z</time></trkpt><trkpt lat="44.54740353520592" lon="0.9676222429205906"><ele>180.0</ele><time>2026-04-13T17:59:29Z</time></trkpt><trkpt lat="44.547526590164765" lon="0.9674816231106788"><ele>180.0</ele><time>2026-04-13T17:59:30Z</time></trkpt><trkpt lat="44.54763322578824" lon="0.9673364649111468"><ele>180.0</ele><time>2026-04-13T17:59:31Z</time></trkpt><trkpt lat="44.54772313099233" lon="0.9672144142584094"><ele>180.0</ele><time>2026-04-13T17:59:32Z</time></trkpt><trkpt lat="44.54781945575645" lon="0.967100852229016"><ele>180.0</ele><time>2026-04-13T17:59:33Z</time></trkpt><trkpt lat="44.547925699337526" lon="0.9670201937266475"><ele>177.66666666666666</ele><time>2026-04-13T17:59:34Z</time></trkpt><trkpt lat="44.548066125049" lon="0.9669848185116952"><ele>175.33333333333331</ele><time>2026-04-13T17:59:35Z</time></trkpt><trkpt lat="44.548228001258316" lon="0.9669778689736088"><ele>173.0</ele><time>2026-04-13T17:59:36Z</time></trkpt><trkpt lat="44.54838615857268" lon="0.9669708479713226"><ele>173.0</ele><time>2026-04-13T17:59:37Z</time></trkpt><trkpt lat="44.54850645479526" lon="0.9669645499481886"><ele>173.0</ele><time>2026-04-13T17:59:38Z</time></trkpt><trkpt lat="44.54860085767268" lon="0.9669803962167296"><ele>173.0</ele><time>2026-04-13T17:59:39Z</time></trkpt><trkpt lat="44.54868632256257" lon="0.9670011294303847"><ele>173.0</ele><time>2026-04-13T17:59:40Z</time></trkpt><trkpt lat="44.54875064150113" lon="0.9670603803850424"><ele>173.0</ele><time>2026-04-13T17:59:41Z</time></trkpt><trkpt lat="44.548787999119426" lon="0.9671877305626987"><ele>172.5</ele><time>2026-04-13T17:59:42Z</time></trkpt><trkpt lat="44.548795421688176" lon="0.9673735294248581"><ele>172.0</ele><time>2026-04-13T17:59:43Z</time></trkpt><trkpt lat="44.54884402163309" lon="0.9675064868101355"><ele>171.5</ele><time>2026-04-13T17:59:44Z</time></trkpt><trkpt lat="44.548932436680396" lon="0.9676251745819747"><ele>171.0</ele><time>2026-04-13T17:59:45Z</time></trkpt><trkpt lat="44.54904509377598" lon="0.9677336705163041"><ele>170.0</ele><time>2026-04-13T17:59:46Z</time></trkpt><trkpt lat="44.54916975167167" lon="0.9678673441192819"><ele>169.0</ele><time>2026-04-13T17:59:47Z</time></trkpt><trkpt lat="44.5493017847842" lon="0.9680342112285579"><ele>168.0</ele><time>2026-04-13T17:59:48Z</time></trkpt><trkpt lat="44.549441520874794" lon="0.9682109831547305"><ele>166.66666666666666</ele><time>2026-04-13T17:59:49Z</time></trkpt><trkpt lat="44.54955909011506" lon="0.9683993113819578"><ele>165.33333333333331</ele><time>2026-04-13T17:59:50Z</time></trkpt><trkpt lat="44.549675216546525" lon="0.9685576570109413"><ele>164.0</ele><time>2026-04-13T17:59:51Z</time></trkpt><trkpt lat="44.54981468407427" lon="0.9686815638123922"><ele>164.0</ele><time>2026-04-13T17:59:52Z</time></trkpt><trkpt lat="44.549955577798904" lon="0.9687927697568708"><ele>164.0</ele><time>2026-04-13T17:59:53Z</time></trkpt><trkpt lat="44.550067384746626" lon="0.9689027424430492"><ele>164.0</ele><time>2026-04-13T17:59:54Z</time></trkpt><trkpt lat="44.550199628181794" lon="0.9689736395954326"><ele>164.0</ele><time>2026-04-13T17:59:55Z</time></trkpt><trkpt lat="44.550348171559634" lon="0.9690539233129741"><ele>162.5</ele><time>2026-04-13T17:59:56Z</time></trkpt><trkpt lat="44.550480270684986" lon="0.9690927845073303"><ele>161.0</ele><time>2026-04-13T17:59:57Z</time></trkpt><trkpt lat="44.55060765243681" lon="0.9690979355940104"><ele>159.5</ele><time>2026-04-13T17:59:58Z</time></trkpt><trkpt lat="44.55073319193656" lon="0.9690895815030847"><ele>158.0</ele><time>2026-04-13T17:59:59Z</time></trkpt><trkpt lat="44.55085040884199" lon="0.969052341233649"><ele>158.0</ele><time>2026-04-13T18:00:00Z</time></trkpt><trkpt lat="44.550967365686475" lon="0.9689980892764913"><ele>158.0</ele><time>2026-04-13T18:00:01Z</time></trkpt><trkpt lat="44.551071655127004" lon="0.969001552610609"><ele>158.0</ele><time>2026-04-13T18:00:02Z</time></trkpt><trkpt lat="44.55119233465143" lon="0.9690288689677989"><ele>158.0</ele><time>2026-04-13T18:00:03Z</time></trkpt><trkpt lat="44.551288045658545" lon="0.9690755460200292"><ele>155.4</ele><time>2026-04-13T18:00:04Z</time></trkpt><trkpt lat="44.55135388190508" lon="0.9690782181535795"><ele>152.8</ele><time>2026-04-13T18:00:05Z</time></trkpt><trkpt lat="44.55143686245002" lon="0.9690139275641714"><ele>150.2</ele><time>2026-04-13T18:00:06Z</time></trkpt><trkpt lat="44.55153869742143" lon="0.9688971803568455"><ele>147.6</ele><time>2026-04-13T18:00:07Z</time></trkpt><trkpt lat="44.55164256772107" lon="0.9687577252570639"><ele>145.0</ele><time>2026-04-13T18:00:08Z</time></trkpt><trkpt lat="44.551732949146555" lon="0.9686672334491881"><ele>145.0</ele><time>2026-04-13T18:00:09Z</time></trkpt><trkpt lat="44.551822338985346" lon="0.9685841056542321"><ele>145.0</ele><time>2026-04-13T18:00:09.999Z</time></trkpt><trkpt lat="44.55190362732452" lon="0.9685067923143508"><ele>145.0</ele><time>2026-04-13T18:00:10.999Z</time></trkpt><trkpt lat="44.55195232156224" lon="0.9684048859840187"><ele>145.0</ele><time>2026-04-13T18:00:11.999Z</time></trkpt><trkpt lat="44.55197214198676" lon="0.9682794941160301"><ele>145.0</ele><time>2026-04-13T18:00:12.999Z</time></trkpt><trkpt lat="44.551994565218536" lon="0.9681258482010954"><ele>146.4</ele><time>2026-04-13T18:00:13.999Z</time></trkpt><trkpt lat="44.552011387051486" lon="0.967970392723034"><ele>147.8</ele><time>2026-04-13T18:00:14.999Z</time></trkpt><trkpt lat="44.55201538314139" lon="0.9678457545015791"><ele>149.2</ele><time>2026-04-13T18:00:15.999Z</time></trkpt><trkpt lat="44.552012631309935" lon="0.9677261447880064"><ele>150.6</ele><time>2026-04-13T18:00:16.999Z</time></trkpt><trkpt lat="44.55201092362179" lon="0.9676106778222464"><ele>152.0</ele><time>2026-04-13T18:00:17.999Z</time></trkpt><trkpt lat="44.551993392919" lon="0.9674853285629563"><ele>152.16666666666666</ele><time>2026-04-13T18:00:18.999Z</time></trkpt><trkpt lat="44.55197623198835" lon="0.9673290134464885"><ele>152.33333333333331</ele><time>2026-04-13T18:00:19.999Z</time></trkpt><trkpt lat="44.55196644128258" lon="0.9672038152511537"><ele>152.5</ele><time>2026-04-13T18:00:20.999Z</time></trkpt><trkpt lat="44.55195639875469" lon="0.9670878513901688"><ele>152.66666666666666</ele><time>2026-04-13T18:00:21.999Z</time></trkpt><trkpt lat="44.551958181308805" lon="0.9669973089977717"><ele>152.83333333333334</ele><time>2026-04-13T18:00:22.999Z</time></trkpt><trkpt lat="44.55195493136519" lon="0.9669055658913516"><ele>153.0</ele><time>2026-04-13T18:00:23.999Z</time></trkpt><trkpt lat="44.55195208751596" lon="0.9668049863831191"><ele>153.5</ele><time>2026-04-13T18:00:24.999Z</time></trkpt><trkpt lat="44.551959882608244" lon="0.9666660444232716"><ele>154.0</ele><time>2026-04-13T18:00:25.999Z</time></trkpt><trkpt lat="44.55197709305521" lon="0.9664982849905912"><ele>154.5</ele><time>2026-04-13T18:00:26.999Z</time></trkpt><trkpt lat="44.551997486057026" lon="0.9663319117867573"><ele>155.0</ele><time>2026-04-13T18:00:27.999Z</time></trkpt><trkpt lat="44.55204256241772" lon="0.9661441980819414"><ele>152.5</ele><time>2026-04-13T18:00:28.999Z</time></trkpt><trkpt lat="44.552099910508616" lon="0.965988026939385"><ele>150.0</ele><time>2026-04-13T18:00:29.999Z</time></trkpt><trkpt lat="44.55212899863271" lon="0.9658643471966951"><ele>147.5</ele><time>2026-04-13T18:00:30.999Z</time></trkpt><trkpt lat="44.552163254857284" lon="0.9657864081374112"><ele>145.0</ele><time>2026-04-13T18:00:31.999Z</time></trkpt><trkpt lat="44.552218240573445" lon="0.9657325350897222"><ele>142.5</ele><time>2026-04-13T18:00:32.999Z</time></trkpt><trkpt lat="44.55229871603515" lon="0.9657257151872218"><ele>140.0</ele><time>2026-04-13T18:00:33.999Z</time></trkpt><trkpt lat="44.55236981698057" lon="0.9657013102306257"><ele>140.0</ele><time>2026-04-13T18:00:34.999Z</time></trkpt><trkpt lat="44.55245157303839" lon="0.9656611451729369"><ele>140.0</ele><time>2026-04-13T18:00:35.999Z</time></trkpt><trkpt lat="44.55253372722597" lon="0.9656115069699693"><ele>140.0</ele><time>2026-04-13T18:00:37.999Z</time></trkpt><trkpt lat="44.5526094783202" lon="0.965594484820747"><ele>140.0</ele><time>2026-04-13T18:01:03.999Z</time></trkpt><trkpt lat="44.552519569952274" lon="0.9656296754815361"><ele>140.0</ele><time>2026-04-13T18:01:09.999Z</time></trkpt><trkpt lat="44.552357133698116" lon="0.9657090144822023"><ele>140.0</ele><time>2026-04-13T18:01:11.999Z</time></trkpt><trkpt lat="44.552282601461116" lon="0.9657497627633139"><ele>140.0</ele><time>2026-04-13T18:01:12.999Z</time></trkpt><trkpt lat="44.552202258985766" lon="0.9657701271964667"><ele>140.0</ele><time>2026-04-13T18:01:13.999Z</time></trkpt><trkpt lat="44.55213128223078" lon="0.9658980266476223"><ele>140.0</ele><time>2026-04-13T18:01:15.999Z</time></trkpt><trkpt lat="44.5520970430181" lon="0.9660258771127895"><ele>140.0</ele><time>2026-04-13T18:01:16.999Z</time></trkpt><trkpt lat="44.55206006075273" lon="0.9661676652398732"><ele>143.25</ele><time>2026-04-13T18:01:17.998Z</time></trkpt><trkpt lat="44.552022777463606" lon="0.9663223723118444"><ele>146.5</ele><time>2026-04-13T18:01:18.998Z</time></trkpt><trkpt lat="44.55198136696875" lon="0.966493695898476"><ele>149.75</ele><time>2026-04-13T18:01:19.998Z</time></trkpt><trkpt lat="44.551962894877825" lon="0.966667046260991"><ele>153.0</ele><time>2026-04-13T18:01:20.998Z</time></trkpt><trkpt lat="44.55196557380957" lon="0.9668051120458924"><ele>153.0</ele><time>2026-04-13T18:01:21.998Z</time></trkpt><trkpt lat="44.55196525736187" lon="0.9669138519135735"><ele>153.0</ele><time>2026-04-13T18:01:22.998Z</time></trkpt><trkpt lat="44.55196065254471" lon="0.9670101548657313"><ele>153.0</ele><time>2026-04-13T18:01:23.998Z</time></trkpt><trkpt lat="44.551965908854214" lon="0.9671693927192311"><ele>153.0</ele><time>2026-04-13T18:01:26Z</time></trkpt><trkpt lat="44.55198044726362" lon="0.9672725202132301"><ele>153.0</ele><time>2026-04-13T18:01:27Z</time></trkpt><trkpt lat="44.551987465946816" lon="0.9673887592733043"><ele>153.0</ele><time>2026-04-13T18:01:28Z</time></trkpt><trkpt lat="44.55199495589446" lon="0.9675153698012432"><ele>152.8</ele><time>2026-04-13T18:01:29Z</time></trkpt><trkpt lat="44.55200699452643" lon="0.9676655823465593"><ele>152.60000000000002</ele><time>2026-04-13T18:01:30Z</time></trkpt><trkpt lat="44.552014680773766" lon="0.9678354963028315"><ele>152.39999999999998</ele><time>2026-04-13T18:01:31Z</time></trkpt><trkpt lat="44.5520153661043" lon="0.9679819244635408"><ele>152.2</ele><time>2026-04-13T18:01:32Z</time></trkpt><trkpt lat="44.55200613430085" lon="0.9681224058710225"><ele>152.0</ele><time>2026-04-13T18:01:33Z</time></trkpt><trkpt lat="44.55198008556316" lon="0.9682963507410847"><ele>150.6</ele><time>2026-04-13T18:01:34Z</time></trkpt><trkpt lat="44.55194275435971" lon="0.9684341003535489"><ele>149.2</ele><time>2026-04-13T18:01:35Z</time></trkpt><trkpt lat="44.55190327813483" lon="0.9685379225744194"><ele>147.8</ele><time>2026-04-13T18:01:36Z</time></trkpt><trkpt lat="44.55183833471639" lon="0.9686147619019778"><ele>146.4</ele><time>2026-04-13T18:01:37Z</time></trkpt><trkpt lat="44.55176099893421" lon="0.9686886946595121"><ele>145.0</ele><time>2026-04-13T18:01:38Z</time></trkpt><trkpt lat="44.55167365262713" lon="0.9687626815171461"><ele>145.0</ele><time>2026-04-13T18:01:39Z</time></trkpt><trkpt lat="44.5515680761544" lon="0.9688489198507039"><ele>145.0</ele><time>2026-04-13T18:01:40Z</time></trkpt><trkpt lat="44.55148840640037" lon="0.9689388489841214"><ele>145.0</ele><time>2026-04-13T18:01:41Z</time></trkpt><trkpt lat="44.55141055542551" lon="0.9690194366924202"><ele>145.0</ele><time>2026-04-13T18:01:42Z</time></trkpt><trkpt lat="44.55135095209453" lon="0.9690779708607007"><ele>145.0</ele><time>2026-04-13T18:01:43Z</time></trkpt><trkpt lat="44.551273816337385" lon="0.9691017332732539"><ele>147.6</ele><time>2026-04-13T18:01:44Z</time></trkpt><trkpt lat="44.55119657389993" lon="0.9690970324248362"><ele>150.2</ele><time>2026-04-13T18:01:45Z</time></trkpt><trkpt lat="44.551113526097254" lon="0.9690582597552934"><ele>152.8</ele><time>2026-04-13T18:01:46Z</time></trkpt><trkpt lat="44.551030087345474" lon="0.969004155420606"><ele>155.4</ele><time>2026-04-13T18:01:47Z</time></trkpt><trkpt lat="44.55092071021127" lon="0.9690055621006614"><ele>158.0</ele><time>2026-04-13T18:01:48Z</time></trkpt><trkpt lat="44.550805585664264" lon="0.9690248329362949"><ele>158.0</ele><time>2026-04-13T18:01:49Z</time></trkpt><trkpt lat="44.55068486719905" lon="0.9690800802057394"><ele>158.0</ele><time>2026-04-13T18:01:50Z</time></trkpt><trkpt lat="44.550563979042906" lon="0.9691044730195518"><ele>158.0</ele><time>2026-04-13T18:01:51Z</time></trkpt><trkpt lat="44.550421478474895" lon="0.9690892876317385"><ele>158.0</ele><time>2026-04-13T18:01:52Z</time></trkpt><trkpt lat="44.55028106889033" lon="0.969030197592884"><ele>160.0</ele><time>2026-04-13T18:01:53Z</time></trkpt><trkpt lat="44.55013091231932" lon="0.9689570314484177"><ele>162.0</ele><time>2026-04-13T18:01:54Z</time></trkpt><trkpt lat="44.549997766236395" lon="0.9688554370709792"><ele>164.0</ele><time>2026-04-13T18:01:55Z</time></trkpt><trkpt lat="44.54987356338927" lon="0.9687224176522248"><ele>164.0</ele><time>2026-04-13T18:01:56Z</time></trkpt><trkpt lat="44.54974474046537" lon="0.9685642713685364"><ele>164.0</ele><time>2026-04-13T18:01:57Z</time></trkpt><trkpt lat="44.549614333241905" lon="0.9684287684306805"><ele>164.0</ele><time>2026-04-13T18:01:58Z</time></trkpt><trkpt lat="44.54948794963355" lon="0.9682905081023457"><ele>165.33333333333331</ele><time>2026-04-13T18:01:59Z</time></trkpt><trkpt lat="44.549378323784275" lon="0.9681168111561974"><ele>166.66666666666666</ele><time>2026-04-13T18:02:00Z</time></trkpt><trkpt lat="44.54926067470144" lon="0.9679438394294438"><ele>168.0</ele><time>2026-04-13T18:02:01Z</time></trkpt><trkpt lat="44.54914316869317" lon="0.9678017413537713"><ele>168.0</ele><time>2026-04-13T18:02:02Z</time></trkpt><trkpt lat="44.54902431700709" lon="0.9676756765061978"><ele>168.0</ele><time>2026-04-13T18:02:03Z</time></trkpt><trkpt lat="44.54892285249926" lon="0.9675631930971247"><ele>168.0</ele><time>2026-04-13T18:02:04Z</time></trkpt><trkpt lat="44.54883896855798" lon="0.9674701824301079"><ele>168.0</ele><time>2026-04-13T18:02:05Z</time></trkpt><trkpt lat="44.54879521378849" lon="0.9673344769663318"><ele>168.60000000000002</ele><time>2026-04-13T18:02:06Z</time></trkpt><trkpt lat="44.54877517715993" lon="0.9671841388416681"><ele>169.20000000000002</ele><time>2026-04-13T18:02:07Z</time></trkpt><trkpt lat="44.548744828774275" lon="0.9670664110784527"><ele>169.8</ele><time>2026-04-13T18:02:08Z</time></trkpt><trkpt lat="44.548684364577966" lon="0.9669920694870551"><ele>170.4</ele><time>2026-04-13T18:02:09Z</time></trkpt><trkpt lat="44.548605770793905" lon="0.9669514891930958"><ele>171.0</ele><time>2026-04-13T18:02:10Z</time></trkpt><trkpt lat="44.54851099455274" lon="0.966952085504514"><ele>171.5</ele><time>2026-04-13T18:02:11Z</time></trkpt><trkpt lat="44.54839480033312" lon="0.9669710839426735"><ele>172.0</ele><time>2026-04-13T18:02:12Z</time></trkpt><trkpt lat="44.54825972508351" lon="0.9669974533039665"><ele>172.5</ele><time>2026-04-13T18:02:12.999Z</time></trkpt><trkpt lat="44.54813220651768" lon="0.9670025576559335"><ele>173.0</ele><time>2026-04-13T18:02:13.999Z</time></trkpt><trkpt lat="44.54799732406619" lon="0.9670454211232518"><ele>173.0</ele><time>2026-04-13T18:02:14.999Z</time></trkpt><trkpt lat="44.547879152830674" lon="0.9670858098041268"><ele>173.0</ele><time>2026-04-13T18:02:15.999Z</time></trkpt><trkpt lat="44.547776289653356" lon="0.9671610490249666"><ele>173.0</ele><time>2026-04-13T18:02:16.999Z</time></trkpt><trkpt lat="44.54768374511789" lon="0.9672606270159874"><ele>173.0</ele><time>2026-04-13T18:02:17.999Z</time></trkpt><trkpt lat="44.547592642104235" lon="0.9674031727415158"><ele>174.75</ele><time>2026-04-13T18:02:18.999Z</time></trkpt><trkpt lat="44.54749669846046" lon="0.9675399257137978"><ele>176.5</ele><time>2026-04-13T18:02:19.999Z</time></trkpt><trkpt lat="44.54738746974284" lon="0.9676725173025954"><ele>178.25</ele><time>2026-04-13T18:02:20.999Z</time></trkpt><trkpt lat="44.54725216806642" lon="0.9677778934482696"><ele>180.0</ele><time>2026-04-13T18:02:21.999Z</time></trkpt><trkpt lat="44.547114267628345" lon="0.9678480368026179"><ele>182.0</ele><time>2026-04-13T18:02:22.999Z</time></trkpt><trkpt lat="44.54700081922846" lon="0.9679024446610507"><ele>184.0</ele><time>2026-04-13T18:02:23.999Z</time></trkpt><trkpt lat="44.54691877843861" lon="0.9679804056485521"><ele>186.0</ele><time>2026-04-13T18:02:24.999Z</time></trkpt><trkpt lat="44.546844680798294" lon="0.9680932942324703"><ele>188.0</ele><time>2026-04-13T18:02:25.999Z</time></trkpt><trkpt lat="44.54675509739648" lon="0.9681621683174123"><ele>190.0</ele><time>2026-04-13T18:02:26.999Z</time></trkpt><trkpt lat="44.54662817800769" lon="0.9681854039073051"><ele>190.0</ele><time>2026-04-13T18:02:27.999Z</time></trkpt><trkpt lat="44.54649954683403" lon="0.9681799928924101"><ele>190.0</ele><time>2026-04-13T18:02:28.999Z</time></trkpt><trkpt lat="44.54636570565729" lon="0.9681780816385591"><ele>190.0</ele><time>2026-04-13T18:02:29.999Z</time></trkpt><trkpt lat="44.546226262223676" lon="0.9681772368889592"><ele>190.0</ele><time>2026-04-13T18:02:30.999Z</time></trkpt><trkpt lat="44.54609393379035" lon="0.9681725258830347"><ele>191.0</ele><time>2026-04-13T18:02:31.999Z</time></trkpt><trkpt lat="44.54598680005282" lon="0.9681763020462104"><ele>192.0</ele><time>2026-04-13T18:02:32.999Z</time></trkpt><trkpt lat="44.545902458902596" lon="0.9681956949415367"><ele>193.0</ele><time>2026-04-13T18:02:33.999Z</time></trkpt><trkpt lat="44.545827903723705" lon="0.9682426549780362"><ele>194.0</ele><time>2026-04-13T18:02:34.999Z</time></trkpt><trkpt lat="44.54573526037809" lon="0.9683090888643792"><ele>195.0</ele><time>2026-04-13T18:02:36.999Z</time></trkpt><trkpt lat="44.54568030577959" lon="0.9684017689395978"><ele>195.33333333333334</ele><time>2026-04-13T18:02:38.999Z</time></trkpt><trkpt lat="44.54563992391357" lon="0.9685419434413947"><ele>195.66666666666669</ele><time>2026-04-13T18:02:40.999Z</time></trkpt><trkpt lat="44.54553630707441" lon="0.9685572434626153"><ele>196.0</ele><time>2026-04-13T18:02:42.999Z</time></trkpt><trkpt lat="44.54547196058175" lon="0.9685341558618293"><ele>196.33333333333334</ele><time>2026-04-13T18:02:43.999Z</time></trkpt><trkpt lat="44.545422784162334" lon="0.9684412237712974"><ele>196.66666666666669</ele><time>2026-04-13T18:02:44.999Z</time></trkpt><trkpt lat="44.54535839103336" lon="0.9684216595184912"><ele>197.0</ele><time>2026-04-13T18:02:45.999Z</time></trkpt><trkpt lat="44.54529901842881" lon="0.9683770411015526"><ele>196.0</ele><time>2026-04-13T18:02:46.999Z</time></trkpt><trkpt lat="44.545223746624764" lon="0.9683403005415968"><ele>195.0</ele><time>2026-04-13T18:02:47.999Z</time></trkpt><trkpt lat="44.545152664818886" lon="0.9683089558426744"><ele>194.0</ele><time>2026-04-13T18:02:48.999Z</time></trkpt><trkpt lat="44.545092688024546" lon="0.9682742621152398"><ele>193.0</ele><time>2026-04-13T18:02:49.999Z</time></trkpt><trkpt lat="44.544985141184" lon="0.9682026441081794"><ele>192.0</ele><time>2026-04-13T18:02:51.999Z</time></trkpt><trkpt lat="44.54486584975297" lon="0.9681421081417105"><ele>192.0</ele><time>2026-04-13T18:02:53.999Z</time></trkpt><trkpt lat="44.544783474019646" lon="0.9680919811531664"><ele>192.0</ele><time>2026-04-13T18:02:55.999Z</time></trkpt><trkpt lat="44.54469315465338" lon="0.9680497453816784"><ele>192.0</ele><time>2026-04-13T18:03:04.999Z</time></trkpt><trkpt lat="44.54457643037606" lon="0.968001875533294"><ele>192.0</ele><time>2026-04-13T18:03:06.999Z</time></trkpt><trkpt lat="44.544512014985365" lon="0.9679838362477003"><ele>192.0</ele><time>2026-04-13T18:03:07.999Z</time></trkpt><trkpt lat="44.54440769964439" lon="0.9679353896466016"><ele>190.39999999999998</ele><time>2026-04-13T18:03:09.999Z</time></trkpt><trkpt lat="44.54430794297441" lon="0.9678605880121459"><ele>188.79999999999998</ele><time>2026-04-13T18:03:11.999Z</time></trkpt><trkpt lat="44.54421378639376" lon="0.967741586748644"><ele>187.2</ele><time>2026-04-13T18:03:13.999Z</time></trkpt><trkpt lat="44.54414489050193" lon="0.9677259818717115"><ele>185.6</ele><time>2026-04-13T18:03:14.999Z</time></trkpt><trkpt lat="44.544084919614626" lon="0.9676771649348519"><ele>184.0</ele><time>2026-04-13T18:03:15.999Z</time></trkpt><trkpt lat="44.54399418890053" lon="0.9675766736404833"><ele>184.2</ele><time>2026-04-13T18:03:17.999Z</time></trkpt><trkpt lat="44.54393528733076" lon="0.9675137266784875"><ele>184.39999999999998</ele><time>2026-04-13T18:03:19.999Z</time></trkpt><trkpt lat="44.543880013880866" lon="0.9674238740446538"><ele>184.6</ele><time>2026-04-13T18:03:21.998Z</time></trkpt><trkpt lat="44.54385328234523" lon="0.967307442790368"><ele>184.8</ele><time>2026-04-13T18:03:23.998Z</time></trkpt><trkpt lat="44.54381306202808" lon="0.9672233460608455"><ele>185.0</ele><time>2026-04-13T18:03:24.998Z</time></trkpt><trkpt lat="44.54346119480535" lon="0.9672730192833436"><ele>184.0</ele><time>2026-04-13T18:03:26.998Z</time></trkpt><trkpt lat="44.543383169576984" lon="0.9672138722325332"><ele>183.0</ele><time>2026-04-13T18:03:27.998Z</time></trkpt><trkpt lat="44.54328887674286" lon="0.9671494477642059"><ele>182.0</ele><time>2026-04-13T18:03:28.998Z</time></trkpt><trkpt lat="44.54316315976941" lon="0.9670841076706703"><ele>181.0</ele><time>2026-04-13T18:03:29.998Z</time></trkpt><trkpt lat="44.54303214819335" lon="0.9670339931392583"><ele>181.0</ele><time>2026-04-13T18:03:31Z</time></trkpt><trkpt lat="44.5429199283893" lon="0.9669924988802051"><ele>181.0</ele><time>2026-04-13T18:03:32Z</time></trkpt><trkpt lat="44.54282256119142" lon="0.9669484802797349"><ele>181.0</ele><time>2026-04-13T18:03:33Z</time></trkpt><trkpt lat="44.54273937837354" lon="0.9669224078669949"><ele>181.0</ele><time>2026-04-13T18:03:34Z</time></trkpt><trkpt lat="44.542650469672296" lon="0.9669177098140734"><ele>181.0</ele><time>2026-04-13T18:03:35Z</time></trkpt><trkpt lat="44.542570305971296" lon="0.9668879471399573"><ele>178.8</ele><time>2026-04-13T18:03:36Z</time></trkpt><trkpt lat="44.542489112718606" lon="0.9668821878399797"><ele>176.60000000000002</ele><time>2026-04-13T18:03:37Z</time></trkpt><trkpt lat="44.54240149768549" lon="0.9669335221384657"><ele>174.4</ele><time>2026-04-13T18:03:38Z</time></trkpt><trkpt lat="44.542317164609784" lon="0.9670326596771982"><ele>172.2</ele><time>2026-04-13T18:03:39Z</time></trkpt><trkpt lat="44.54223984137129" lon="0.9671561398483"><ele>170.0</ele><time>2026-04-13T18:03:40Z</time></trkpt><trkpt lat="44.5421703765136" lon="0.9672535173014172"><ele>170.0</ele><time>2026-04-13T18:03:41Z</time></trkpt><trkpt lat="44.542105301495134" lon="0.9673446653434774"><ele>170.0</ele><time>2026-04-13T18:03:42Z</time></trkpt><trkpt lat="44.542028752436806" lon="0.9674314298570292"><ele>170.0</ele><time>2026-04-13T18:03:43Z</time></trkpt><trkpt lat="44.54195352717939" lon="0.9674899574668305"><ele>170.0</ele><time>2026-04-13T18:03:44Z</time></trkpt><trkpt lat="44.54184884293242" lon="0.9675267370812694"><ele>170.0</ele><time>2026-04-13T18:03:45Z</time></trkpt><trkpt lat="44.541732673038226" lon="0.9675807950917964"><ele>167.4</ele><time>2026-04-13T18:03:46Z</time></trkpt><trkpt lat="44.541600464415914" lon="0.9676542600140009"><ele>164.8</ele><time>2026-04-13T18:03:47Z</time></trkpt><trkpt lat="44.54149064565952" lon="0.9677296679847104"><ele>162.2</ele><time>2026-04-13T18:03:48Z</time></trkpt><trkpt lat="44.54141107517597" lon="0.9677886376184476"><ele>159.6</ele><time>2026-04-13T18:03:49Z</time></trkpt><trkpt lat="44.541338862256005" lon="0.9678478124066129"><ele>157.0</ele><time>2026-04-13T18:03:50Z</time></trkpt><trkpt lat="44.54128366807632" lon="0.9679215485005732"><ele>157.0</ele><time>2026-04-13T18:03:51Z</time></trkpt><trkpt lat="44.541250081298216" lon="0.968021684884214"><ele>157.0</ele><time>2026-04-13T18:03:52Z</time></trkpt><trkpt lat="44.5412491421661" lon="0.9681428249716494"><ele>157.0</ele><time>2026-04-13T18:03:53Z</time></trkpt><trkpt lat="44.541277100556464" lon="0.9682728532154171"><ele>157.0</ele><time>2026-04-13T18:03:54Z</time></trkpt><trkpt lat="44.54128733831053" lon="0.9683879399521045"><ele>157.0</ele><time>2026-04-13T18:03:55Z</time></trkpt><trkpt lat="44.54129077479776" lon="0.9684867987273186"><ele>157.0</ele><time>2026-04-13T18:03:56Z</time></trkpt><trkpt lat="44.541224292528725" lon="0.9685973128657626"><ele>157.6</ele><time>2026-04-13T18:03:58Z</time></trkpt><trkpt lat="44.54113651851128" lon="0.9685949890266156"><ele>158.2</ele><time>2026-04-13T18:03:59Z</time></trkpt><trkpt lat="44.54103423868206" lon="0.9685414492551262"><ele>158.8</ele><time>2026-04-13T18:04:00Z</time></trkpt><trkpt lat="44.540938264716225" lon="0.9684840422767603"><ele>159.4</ele><time>2026-04-13T18:04:01Z</time></trkpt><trkpt lat="44.540853590356335" lon="0.9684509162567754"><ele>160.0</ele><time>2026-04-13T18:04:02Z</time></trkpt><trkpt lat="44.540724668915956" lon="0.9683976190120965"><ele>159.25</ele><time>2026-04-13T18:04:03Z</time></trkpt><trkpt lat="44.54059185747793" lon="0.9683265104864628"><ele>158.5</ele><time>2026-04-13T18:04:04Z</time></trkpt><trkpt lat="44.540467059131174" lon="0.9682438538125379"><ele>157.75</ele><time>2026-04-13T18:04:05Z</time></trkpt><trkpt lat="44.540360292181475" lon="0.9681297288730595"><ele>157.0</ele><time>2026-04-13T18:04:06Z</time></trkpt><trkpt lat="44.54026748132794" lon="0.9679778033316642"><ele>157.0</ele><time>2026-04-13T18:04:07Z</time></trkpt><trkpt lat="44.540197569468226" lon="0.9678067366594647"><ele>157.0</ele><time>2026-04-13T18:04:08Z</time></trkpt><trkpt lat="44.54012416627435" lon="0.967665645414188"><ele>157.0</ele><time>2026-04-13T18:04:09Z</time></trkpt><trkpt lat="44.54003601787296" lon="0.9675369665997271"><ele>157.0</ele><time>2026-04-13T18:04:10Z</time></trkpt><trkpt lat="44.53990971305618" lon="0.967411278865755"><ele>156.2</ele><time>2026-04-13T18:04:11Z</time></trkpt><trkpt lat="44.539802368322704" lon="0.9673106789321424"><ele>155.39999999999998</ele><time>2026-04-13T18:04:12Z</time></trkpt><trkpt lat="44.539732624579734" lon="0.967217838830748"><ele>154.60000000000002</ele><time>2026-04-13T18:04:13Z</time></trkpt><trkpt lat="44.539669809640436" lon="0.9671521226912959"><ele>153.8</ele><time>2026-04-13T18:04:14Z</time></trkpt><trkpt lat="44.53960386778807" lon="0.9670780244175938"><ele>153.0</ele><time>2026-04-13T18:04:15Z</time></trkpt><trkpt lat="44.539547224170356" lon="0.9669882724423147"><ele>153.0</ele><time>2026-04-13T18:04:16Z</time></trkpt><trkpt lat="44.53950983168731" lon="0.9668482674530552"><ele>153.0</ele><time>2026-04-13T18:04:17Z</time></trkpt><trkpt lat="44.53947974345256" lon="0.9666798664522772"><ele>153.0</ele><time>2026-04-13T18:04:17.999Z</time></trkpt><trkpt lat="44.5394355967917" lon="0.9665037880349869"><ele>153.0</ele><time>2026-04-13T18:04:18.999Z</time></trkpt><trkpt lat="44.539371618547044" lon="0.9663255389555819"><ele>153.0</ele><time>2026-04-13T18:04:19.999Z</time></trkpt><trkpt lat="44.53930302917886" lon="0.9661405014394909"><ele>153.0</ele><time>2026-04-13T18:04:20.999Z</time></trkpt><trkpt lat="44.53925493733946" lon="0.9659725052001572"><ele>153.0</ele><time>2026-04-13T18:04:21.999Z</time></trkpt><trkpt lat="44.539224188214064" lon="0.9658233656688539"><ele>153.0</ele><time>2026-04-13T18:04:22.999Z</time></trkpt><trkpt lat="44.53921406478539" lon="0.9656507491404553"><ele>152.5</ele><time>2026-04-13T18:04:23.999Z</time></trkpt><trkpt lat="44.539218965783434" lon="0.9654519019227903"><ele>152.0</ele><time>2026-04-13T18:04:24.999Z</time></trkpt><trkpt lat="44.53923225645224" lon="0.9652675128385126"><ele>151.5</ele><time>2026-04-13T18:04:25.999Z</time></trkpt><trkpt lat="44.53924565755987" lon="0.9651063893148111"><ele>151.0</ele><time>2026-04-13T18:04:26.999Z</time></trkpt><trkpt lat="44.53921760122072" lon="0.9649568890766147"><ele>150.2</ele><time>2026-04-13T18:04:27.999Z</time></trkpt><trkpt lat="44.53917859703123" lon="0.9648191704884619"><ele>149.39999999999998</ele><time>2026-04-13T18:04:28.999Z</time></trkpt><trkpt lat="44.539151588422044" lon="0.9646773675436717"><ele>148.6</ele><time>2026-04-13T18:04:29.999Z</time></trkpt><trkpt lat="44.5391131834049" lon="0.964551207906145"><ele>147.79999999999998</ele><time>2026-04-13T18:04:30.999Z</time></trkpt><trkpt lat="44.53907861775527" lon="0.9644236590489036"><ele>147.0</ele><time>2026-04-13T18:04:31.999Z</time></trkpt><trkpt lat="44.53907141130393" lon="0.9642806182881639"><ele>145.6</ele><time>2026-04-13T18:04:32.999Z</time></trkpt><trkpt lat="44.5390989938139" lon="0.9641304959025107"><ele>144.2</ele><time>2026-04-13T18:04:33.999Z</time></trkpt><trkpt lat="44.53911079667932" lon="0.9640196911122567"><ele>142.8</ele><time>2026-04-13T18:04:34.999Z</time></trkpt><trkpt lat="44.539124433234" lon="0.9639086320410395"><ele>141.4</ele><time>2026-04-13T18:04:35.999Z</time></trkpt><trkpt lat="44.53908787854073" lon="0.9637892569389643"><ele>140.0</ele><time>2026-04-13T18:04:36.999Z</time></trkpt><trkpt lat="44.53899781958797" lon="0.963668133772526"><ele>140.0</ele><time>2026-04-13T18:04:37.999Z</time></trkpt><trkpt lat="44.538932858496345" lon="0.9635496543106896"><ele>140.0</ele><time>2026-04-13T18:04:38.999Z</time></trkpt><trkpt lat="44.53889213059947" lon="0.9634608795706303"><ele>140.0</ele><time>2026-04-13T18:04:39.999Z</time></trkpt><trkpt lat="44.53884883505426" lon="0.9633361608459203"><ele>140.0</ele><time>2026-04-13T18:04:41.999Z</time></trkpt><trkpt lat="44.53882945644399" lon="0.9632084417220836"><ele>140.0</ele><time>2026-04-13T18:05:25.998Z</time></trkpt><trkpt lat="44.53887500843503" lon="0.9631266557242959"><ele>140.0</ele><time>2026-04-13T18:05:26.998Z</time></trkpt><trkpt lat="44.538880234582905" lon="0.962996809202903"><ele>140.25</ele><time>2026-04-13T18:05:27.998Z</time></trkpt><trkpt lat="44.538878414703376" lon="0.9628624724454493"><ele>140.5</ele><time>2026-04-13T18:05:28.998Z</time></trkpt><trkpt lat="44.5388712860103" lon="0.9627189059573412"><ele>140.75</ele><time>2026-04-13T18:05:29.998Z</time></trkpt><trkpt lat="44.53886138459697" lon="0.9625566428159246"><ele>141.0</ele><time>2026-04-13T18:05:30.998Z</time></trkpt><trkpt lat="44.538845513169754" lon="0.962365841056895"><ele>143.0</ele><time>2026-04-13T18:05:31.998Z</time></trkpt><trkpt lat="44.53881672784955" lon="0.962167155367067"><ele>145.0</ele><time>2026-04-13T18:05:32.998Z</time></trkpt><trkpt lat="44.53875979683783" lon="0.9619714659468159"><ele>147.0</ele><time>2026-04-13T18:05:33.998Z</time></trkpt><trkpt lat="44.538696012767666" lon="0.9617728957266288"><ele>141.33333333333334</ele><time>2026-04-13T18:05:34.998Z</time></trkpt><trkpt lat="44.53862527686096" lon="0.9615577310052298"><ele>135.66666666666669</ele><time>2026-04-13T18:05:35.998Z</time></trkpt><trkpt lat="44.538552579241056" lon="0.9613357793516477"><ele>130.0</ele><time>2026-04-13T18:05:37Z</time></trkpt><trkpt lat="44.538482996731744" lon="0.961119578485594"><ele>130.0</ele><time>2026-04-13T18:05:38Z</time></trkpt><trkpt lat="44.53842146401245" lon="0.9609349739800153"><ele>130.0</ele><time>2026-04-13T18:05:39Z</time></trkpt><trkpt lat="44.53839408608914" lon="0.9607572222735911"><ele>130.0</ele><time>2026-04-13T18:05:40Z</time></trkpt><trkpt lat="44.538388852002036" lon="0.9605567058190858"><ele>130.0</ele><time>2026-04-13T18:05:41Z</time></trkpt><trkpt lat="44.53841723612509" lon="0.9603409980101912"><ele>129.33333333333334</ele><time>2026-04-13T18:05:42Z</time></trkpt><trkpt lat="44.53845367131111" lon="0.960115153106892"><ele>128.66666666666666</ele><time>2026-04-13T18:05:43Z</time></trkpt><trkpt lat="44.53848616475956" lon="0.9598823161491378"><ele>128.0</ele><time>2026-04-13T18:05:44Z</time></trkpt><trkpt lat="44.538523462946046" lon="0.9596438558204726"><ele>127.33333333333333</ele><time>2026-04-13T18:05:45Z</time></trkpt><trkpt lat="44.53855565650771" lon="0.9594018078405524"><ele>126.66666666666666</ele><time>2026-04-13T18:05:46Z</time></trkpt><trkpt lat="44.53859072143946" lon="0.9591489020163294"><ele>126.0</ele><time>2026-04-13T18:05:47Z</time></trkpt><trkpt lat="44.53863009603299" lon="0.958907750433732"><ele>125.75</ele><time>2026-04-13T18:05:48Z</time></trkpt><trkpt lat="44.538649591961494" lon="0.9587100370765567"><ele>125.5</ele><time>2026-04-13T18:05:49Z</time></trkpt><trkpt lat="44.538679888267666" lon="0.9585324747045738"><ele>125.25</ele><time>2026-04-13T18:05:50Z</time></trkpt><trkpt lat="44.53869761780224" lon="0.9583919555416469"><ele>125.0</ele><time>2026-04-13T18:05:51Z</time></trkpt><trkpt lat="44.53871147300338" lon="0.9582683396753857"><ele>124.2</ele><time>2026-04-13T18:05:52Z</time></trkpt><trkpt lat="44.538729811798454" lon="0.9581643232699567"><ele>123.4</ele><time>2026-04-13T18:05:53Z</time></trkpt><trkpt lat="44.53875922810417" lon="0.9580773729002569"><ele>122.6</ele><time>2026-04-13T18:05:55Z</time></trkpt><trkpt lat="44.538598244576114" lon="0.9580822856535279"><ele>121.8</ele><time>2026-04-13T18:05:57Z</time></trkpt><trkpt lat="44.53853481347504" lon="0.9581236963255395"><ele>121.0</ele><time>2026-04-13T18:05:58Z</time></trkpt><trkpt lat="44.53845630519342" lon="0.9581520429997736"><ele>121.0</ele><time>2026-04-13T18:05:59Z</time></trkpt><trkpt lat="44.538383517329656" lon="0.9582279883531837"><ele>121.0</ele><time>2026-04-13T18:06:00Z</time></trkpt><trkpt lat="44.53829331913153" lon="0.9582808461984113"><ele>121.0</ele><time>2026-04-13T18:06:01Z</time></trkpt><trkpt lat="44.53818833416753" lon="0.9583027739003587"><ele>121.0</ele><time>2026-04-13T18:06:02Z</time></trkpt><trkpt lat="44.538086158753615" lon="0.9583321109485882"><ele>121.0</ele><time>2026-04-13T18:06:03Z</time></trkpt><trkpt lat="44.53798702669195" lon="0.9583836146311996"><ele>121.19999999999999</ele><time>2026-04-13T18:06:04Z</time></trkpt><trkpt lat="44.537884898854514" lon="0.9584097092916835"><ele>121.39999999999999</ele><time>2026-04-13T18:06:05Z</time></trkpt><trkpt lat="44.53779812321662" lon="0.958428763778467"><ele>121.6</ele><time>2026-04-13T18:06:06Z</time></trkpt><trkpt lat="44.537709525855725" lon="0.9584634515341699"><ele>121.8</ele><time>2026-04-13T18:06:07Z</time></trkpt><trkpt lat="44.5376115134305" lon="0.9585264977775829"><ele>122.0</ele><time>2026-04-13T18:06:08Z</time></trkpt><trkpt lat="44.53749059426504" lon="0.9585631405545202"><ele>122.0</ele><time>2026-04-13T18:06:09Z</time></trkpt><trkpt lat="44.537359808499865" lon="0.9585727180638307"><ele>122.0</ele><time>2026-04-13T18:06:10Z</time></trkpt><trkpt lat="44.53723287360881" lon="0.9585379690959985"><ele>122.0</ele><time>2026-04-13T18:06:11Z</time></trkpt><trkpt lat="44.53710285984349" lon="0.9585292305869657"><ele>122.0</ele><time>2026-04-13T18:06:12Z</time></trkpt><trkpt lat="44.5369767044484" lon="0.9584833243738209"><ele>124.25</ele><time>2026-04-13T18:06:13Z</time></trkpt><trkpt lat="44.53684431466098" lon="0.9584504865254077"><ele>126.5</ele><time>2026-04-13T18:06:14Z</time></trkpt><trkpt lat="44.536710375364166" lon="0.9583917803628033"><ele>128.75</ele><time>2026-04-13T18:06:15Z</time></trkpt><trkpt lat="44.53658207875937" lon="0.9583227570666742"><ele>131.0</ele><time>2026-04-13T18:06:16Z</time></trkpt><trkpt lat="44.53645984644704" lon="0.9582627160508779"><ele>131.0</ele><time>2026-04-13T18:06:17Z</time></trkpt><trkpt lat="44.53633675083262" lon="0.9581959530293238"><ele>131.0</ele><time>2026-04-13T18:06:18Z</time></trkpt><trkpt lat="44.53622536355998" lon="0.9581628975336219"><ele>131.0</ele><time>2026-04-13T18:06:19Z</time></trkpt><trkpt lat="44.53612484673483" lon="0.9581430662657965"><ele>131.0</ele><time>2026-04-13T18:06:20Z</time></trkpt><trkpt lat="44.53604612325704" lon="0.9581282226535328"><ele>131.0</ele><time>2026-04-13T18:06:21Z</time></trkpt><trkpt lat="44.535956049254764" lon="0.9580849398041605"><ele>131.66666666666666</ele><time>2026-04-13T18:06:23Z</time></trkpt><trkpt lat="44.53587298841942" lon="0.9581631119936389"><ele>132.33333333333331</ele><time>2026-04-13T18:06:24.999Z</time></trkpt><trkpt lat="44.53584033927463" lon="0.9582505830813168"><ele>133.0</ele><time>2026-04-13T18:06:25.999Z</time></trkpt><trkpt lat="44.535807488577966" lon="0.9583311883986092"><ele>133.66666666666666</ele><time>2026-04-13T18:06:26.999Z</time></trkpt><trkpt lat="44.53576844398942" lon="0.9584113710661963"><ele>134.33333333333334</ele><time>2026-04-13T18:06:27.999Z</time></trkpt><trkpt lat="44.535714119975594" lon="0.9584925771364744"><ele>135.0</ele><time>2026-04-13T18:06:28.999Z</time></trkpt><trkpt lat="44.53582296023632" lon="0.9587771283164048"><ele>136.25</ele><time>2026-04-13T18:06:29.999Z</time></trkpt><trkpt lat="44.53580736184988" lon="0.9589390395405124"><ele>137.5</ele><time>2026-04-13T18:06:30.999Z</time></trkpt><trkpt lat="44.53579303256855" lon="0.959061258998016"><ele>138.75</ele><time>2026-04-13T18:06:31.999Z</time></trkpt><trkpt lat="44.535780879443124" lon="0.9591623214154055"><ele>140.0</ele><time>2026-04-13T18:06:32.999Z</time></trkpt><trkpt lat="44.53538345887951" lon="0.9590762004883887"><ele>141.6</ele><time>2026-04-13T18:06:33.999Z</time></trkpt><trkpt lat="44.535346110409705" lon="0.9592393977506437"><ele>143.2</ele><time>2026-04-13T18:06:34.999Z</time></trkpt><trkpt lat="44.53532140833167" lon="0.9593754990906996"><ele>144.8</ele><time>2026-04-13T18:06:35.999Z</time></trkpt><trkpt lat="44.53530397689355" lon="0.9594728212542694"><ele>146.4</ele><time>2026-04-13T18:06:36.999Z</time></trkpt><trkpt lat="44.535278212070445" lon="0.9595663734355772"><ele>148.0</ele><time>2026-04-13T18:06:37.999Z</time></trkpt><trkpt lat="44.53523027533195" lon="0.9597070836699315"><ele>148.0</ele><time>2026-04-13T18:06:38.999Z</time></trkpt><trkpt lat="44.53519026236695" lon="0.9598245351983631"><ele>148.0</ele><time>2026-04-13T18:06:39.999Z</time></trkpt><trkpt lat="44.535157104173805" lon="0.9599218656628711"><ele>148.0</ele><time>2026-04-13T18:06:40.999Z</time></trkpt><trkpt lat="44.53511541142281" lon="0.9600442479075463"><ele>148.0</ele><time>2026-04-13T18:06:41.999Z</time></trkpt><trkpt lat="44.53531533608886" lon="0.9603452736389013"><ele>149.5</ele><time>2026-04-13T18:06:42.999Z</time></trkpt><trkpt lat="44.53528155233472" lon="0.9605115374700857"><ele>151.0</ele><time>2026-04-13T18:06:43.999Z</time></trkpt><trkpt lat="44.53524801791346" lon="0.9606863755133638"><ele>152.5</ele><time>2026-04-13T18:06:44.999Z</time></trkpt><trkpt lat="44.53519928873008" lon="0.960821393480103"><ele>154.0</ele><time>2026-04-13T18:06:45.999Z</time></trkpt><trkpt lat="44.53513660207261" lon="0.9609385833561449"><ele>154.5</ele><time>2026-04-13T18:06:46.999Z</time></trkpt><trkpt lat="44.53507220665904" lon="0.9610610692180096"><ele>155.0</ele><time>2026-04-13T18:06:47.999Z</time></trkpt><trkpt lat="44.53500903782281" lon="0.9612126979552407"><ele>155.5</ele><time>2026-04-13T18:06:48.999Z</time></trkpt><trkpt lat="44.53495863024265" lon="0.9613644410312485"><ele>156.0</ele><time>2026-04-13T18:06:49.999Z</time></trkpt><trkpt lat="44.5349007400263" lon="0.9615321452124538"><ele>156.0</ele><time>2026-04-13T18:06:50.999Z</time></trkpt><trkpt lat="44.53485795649224" lon="0.9616875621585607"><ele>156.0</ele><time>2026-04-13T18:06:51.999Z</time></trkpt><trkpt lat="44.53481304000872" lon="0.9618360694692049"><ele>156.0</ele><time>2026-04-13T18:06:52.999Z</time></trkpt><trkpt lat="44.534770300005704" lon="0.9619564066803086"><ele>156.0</ele><time>2026-04-13T18:06:53.999Z</time></trkpt><trkpt lat="44.53474463904326" lon="0.9620672354405472"><ele>156.0</ele><time>2026-04-13T18:06:54.999Z</time></trkpt><trkpt lat="44.534735954502324" lon="0.9622400871336627"><ele>156.0</ele><time>2026-04-13T18:06:56.999Z</time></trkpt><trkpt lat="44.53477690925952" lon="0.9623628139255749"><ele>156.0</ele><time>2026-04-13T18:06:58.999Z</time></trkpt><trkpt lat="44.53476670201897" lon="0.96248355587873"><ele>156.0</ele><time>2026-04-13T18:07:00.999Z</time></trkpt><trkpt lat="44.53476887660112" lon="0.9625853764656863"><ele>156.0</ele><time>2026-04-13T18:07:03.999Z</time></trkpt><trkpt lat="44.5347931741675" lon="0.9626901239268806"><ele>156.0</ele><time>2026-04-13T18:07:45Z</time></trkpt><trkpt lat="44.534797791491805" lon="0.9627810243418783"><ele>156.0</ele><time>2026-04-13T18:07:46Z</time></trkpt><trkpt lat="44.534798727388136" lon="0.9628892928401541"><ele>156.8</ele><time>2026-04-13T18:07:47Z</time></trkpt><trkpt lat="44.53481247023003" lon="0.963046486404812"><ele>157.6</ele><time>2026-04-13T18:07:48Z</time></trkpt><trkpt lat="44.53482078240598" lon="0.9632055786990293"><ele>158.4</ele><time>2026-04-13T18:07:49Z</time></trkpt><trkpt lat="44.53482524867373" lon="0.963328674474485"><ele>159.2</ele><time>2026-04-13T18:07:50Z</time></trkpt><trkpt lat="44.53481212393088" lon="0.9634491145969888"><ele>160.0</ele><time>2026-04-13T18:07:51Z</time></trkpt><trkpt lat="44.534772902581" lon="0.9635653813017823"><ele>159.8</ele><time>2026-04-13T18:07:52Z</time></trkpt><trkpt lat="44.534700879017684" lon="0.9636946889783793"><ele>159.6</ele><time>2026-04-13T18:07:53Z</time></trkpt><trkpt lat="44.53462812631163" lon="0.9638204485095766"><ele>159.4</ele><time>2026-04-13T18:07:54Z</time></trkpt><trkpt lat="44.53457875191255" lon="0.9639356113329686"><ele>159.2</ele><time>2026-04-13T18:07:55Z</time></trkpt><trkpt lat="44.53453107520178" lon="0.9640435380396187"><ele>159.0</ele><time>2026-04-13T18:07:56Z</time></trkpt><trkpt lat="44.53449394116388" lon="0.9641224424967767"><ele>160.0</ele><time>2026-04-13T18:07:57Z</time></trkpt><trkpt lat="44.53442544349823" lon="0.9642893418530117"><ele>161.0</ele><time>2026-04-13T18:07:59Z</time></trkpt><trkpt lat="44.53437741905746" lon="0.9644251996861902"><ele>162.0</ele><time>2026-04-13T18:08:00Z</time></trkpt><trkpt lat="44.534333284528074" lon="0.964587839472657"><ele>163.0</ele><time>2026-04-13T18:08:01Z</time></trkpt><trkpt lat="44.53428472596038" lon="0.9647526704124282"><ele>163.0</ele><time>2026-04-13T18:08:02Z</time></trkpt><trkpt lat="44.534233927421816" lon="0.9648859933604811"><ele>163.0</ele><time>2026-04-13T18:08:03Z</time></trkpt><trkpt lat="44.534159048523506" lon="0.9649767462363281"><ele>163.0</ele><time>2026-04-13T18:08:04Z</time></trkpt><trkpt lat="44.53406558446502" lon="0.9650672157348028"><ele>163.0</ele><time>2026-04-13T18:08:05Z</time></trkpt><trkpt lat="44.5339677781945" lon="0.9651678353067961"><ele>163.0</ele><time>2026-04-13T18:08:06Z</time></trkpt><trkpt lat="44.533867413516596" lon="0.9652282043609469"><ele>164.0</ele><time>2026-04-13T18:08:07Z</time></trkpt><trkpt lat="44.533742946111396" lon="0.9652325642187651"><ele>165.0</ele><time>2026-04-13T18:08:08Z</time></trkpt><trkpt lat="44.53362689333683" lon="0.9652664305967352"><ele>166.0</ele><time>2026-04-13T18:08:09Z</time></trkpt><trkpt lat="44.533506655941125" lon="0.9653415580017166"><ele>167.0</ele><time>2026-04-13T18:08:10Z</time></trkpt><trkpt lat="44.533439302512896" lon="0.9654575682880172"><ele>167.0</ele><time>2026-04-13T18:08:11Z</time></trkpt><trkpt lat="44.53336881446443" lon="0.9655862114584483"><ele>167.0</ele><time>2026-04-13T18:08:12Z</time></trkpt><trkpt lat="44.53330521043629" lon="0.9656876660466335"><ele>167.0</ele><time>2026-04-13T18:08:13Z</time></trkpt><trkpt lat="44.53325190317597" lon="0.9657590218554429"><ele>167.0</ele><time>2026-04-13T18:08:14Z</time></trkpt><trkpt lat="44.533183951191845" lon="0.965868206554461"><ele>167.0</ele><time>2026-04-13T18:08:15Z</time></trkpt><trkpt lat="44.53310248244402" lon="0.965982762536621"><ele>167.0</ele><time>2026-04-13T18:08:16Z</time></trkpt><trkpt lat="44.533012059968165" lon="0.9660704537258367"><ele>167.0</ele><time>2026-04-13T18:08:17Z</time></trkpt><trkpt lat="44.53289955348375" lon="0.9661258208490728"><ele>167.0</ele><time>2026-04-13T18:08:18Z</time></trkpt><trkpt lat="44.532761685144216" lon="0.9661542601266645"><ele>167.0</ele><time>2026-04-13T18:08:19Z</time></trkpt><trkpt lat="44.53261523575924" lon="0.9661787010333183"><ele>166.25</ele><time>2026-04-13T18:08:20Z</time></trkpt><trkpt lat="44.53248228888929" lon="0.9662268080771812"><ele>165.5</ele><time>2026-04-13T18:08:21Z</time></trkpt><trkpt lat="44.53236253214448" lon="0.9662513627713704"><ele>164.75</ele><time>2026-04-13T18:08:22Z</time></trkpt><trkpt lat="44.53226115739656" lon="0.9662408096856522"><ele>164.0</ele><time>2026-04-13T18:08:23Z</time></trkpt><trkpt lat="44.53216190493284" lon="0.9662120545986941"><ele>164.0</ele><time>2026-04-13T18:08:24Z</time></trkpt><trkpt lat="44.5320710912854" lon="0.9661804194626864"><ele>164.0</ele><time>2026-04-13T18:08:25Z</time></trkpt><trkpt lat="44.53195877945073" lon="0.9661790847526921"><ele>164.0</ele><time>2026-04-13T18:08:26Z</time></trkpt><trkpt lat="44.53187524588395" lon="0.9662172964623089"><ele>164.0</ele><time>2026-04-13T18:08:27Z</time></trkpt><trkpt lat="44.53179882512196" lon="0.9662945203432067"><ele>164.0</ele><time>2026-04-13T18:08:28Z</time></trkpt><trkpt lat="44.531727149743524" lon="0.966338821700173"><ele>164.0</ele><time>2026-04-13T18:08:28.999Z</time></trkpt><trkpt lat="44.531637631194855" lon="0.9663616375507457"><ele>164.0</ele><time>2026-04-13T18:08:29.999Z</time></trkpt><trkpt lat="44.5315663216109" lon="0.9663876054064015"><ele>164.0</ele><time>2026-04-13T18:08:30.999Z</time></trkpt><trkpt lat="44.531491857147586" lon="0.9664745946643256"><ele>164.0</ele><time>2026-04-13T18:08:31.999Z</time></trkpt><trkpt lat="44.531413360732344" lon="0.9665087297871187"><ele>164.0</ele><time>2026-04-13T18:08:32.999Z</time></trkpt><trkpt lat="44.53132792132101" lon="0.966588173349"><ele>164.0</ele><time>2026-04-13T18:08:33.999Z</time></trkpt><trkpt lat="44.53124476365953" lon="0.9666837397428603"><ele>164.0</ele><time>2026-04-13T18:08:34.999Z</time></trkpt><trkpt lat="44.531163710441255" lon="0.9667665486446123"><ele>164.0</ele><time>2026-04-13T18:08:35.999Z</time></trkpt><trkpt lat="44.53106884288056" lon="0.966817343561865"><ele>164.0</ele><time>2026-04-13T18:08:36.999Z</time></trkpt><trkpt lat="44.530996551296894" lon="0.9668722151727462"><ele>164.0</ele><time>2026-04-13T18:08:37.999Z</time></trkpt><trkpt lat="44.53093868026347" lon="0.9669907334167254"><ele>164.0</ele><time>2026-04-13T18:08:38.999Z</time></trkpt><trkpt lat="44.530896420186544" lon="0.9671021181208351"><ele>163.99999999999997</ele><time>2026-04-13T18:08:39.999Z</time></trkpt><trkpt lat="44.5308591704506" lon="0.9672137084886893"><ele>164.0</ele><time>2026-04-13T18:08:40.999Z</time></trkpt><trkpt lat="44.53082843012308" lon="0.9673041332441623"><ele>164.0</ele><time>2026-04-13T18:08:41.999Z</time></trkpt><trkpt lat="44.53081114080228" lon="0.9673902471229792"><ele>164.0</ele><time>2026-04-13T18:08:42.999Z</time></trkpt><trkpt lat="44.53078381098966" lon="0.9674897667371308"><ele>164.0</ele><time>2026-04-13T18:08:43.999Z</time></trkpt><trkpt lat="44.53073948501619" lon="0.9675623774542315"><ele>163.99999999999997</ele><time>2026-04-13T18:08:44.999Z</time></trkpt><trkpt lat="44.5306730167279" lon="0.9676175555304596"><ele>164.0</ele><time>2026-04-13T18:08:45.999Z</time></trkpt><trkpt lat="44.53058316834703" lon="0.9676451022417704"><ele>164.0</ele><time>2026-04-13T18:08:46.999Z</time></trkpt><trkpt lat="44.53048587616032" lon="0.9676610684358209"><ele>164.0</ele><time>2026-04-13T18:08:47.999Z</time></trkpt><trkpt lat="44.53040286077877" lon="0.9676167994900277"><ele>164.0</ele><time>2026-04-13T18:08:48.999Z</time></trkpt><trkpt lat="44.530304602682186" lon="0.9675713158303418"><ele>164.0</ele><time>2026-04-13T18:08:49.999Z</time></trkpt><trkpt lat="44.53021729320374" lon="0.9675905688555455"><ele>164.0</ele><time>2026-04-13T18:08:50.999Z</time></trkpt><trkpt lat="44.53010495286061" lon="0.9676294067988495"><ele>164.0</ele><time>2026-04-13T18:08:51.999Z</time></trkpt><trkpt lat="44.52998572441542" lon="0.9676493881495017"><ele>164.0</ele><time>2026-04-13T18:08:52.999Z</time></trkpt><trkpt lat="44.529856194582095" lon="0.9676508576605903"><ele>164.0</ele><time>2026-04-13T18:08:53.999Z</time></trkpt><trkpt lat="44.529710130070676" lon="0.9676138123083179"><ele>164.0</ele><time>2026-04-13T18:08:54.999Z</time></trkpt><trkpt lat="44.529585011551106" lon="0.9675749483972983"><ele>164.79999999999998</ele><time>2026-04-13T18:08:55.999Z</time></trkpt><trkpt lat="44.52947750436702" lon="0.967536628475607"><ele>165.6</ele><time>2026-04-13T18:08:56.999Z</time></trkpt><trkpt lat="44.5293803107241" lon="0.9674675937616066"><ele>166.4</ele><time>2026-04-13T18:08:57.999Z</time></trkpt><trkpt lat="44.529282133595935" lon="0.9674073259612102"><ele>167.2</ele><time>2026-04-13T18:08:58.999Z</time></trkpt><trkpt lat="44.52919158380012" lon="0.9673260670979295"><ele>168.0</ele><time>2026-04-13T18:08:59.999Z</time></trkpt><trkpt lat="44.52910633742507" lon="0.9672657649121769"><ele>168.0</ele><time>2026-04-13T18:09:00.999Z</time></trkpt><trkpt lat="44.52903392649009" lon="0.9672189452610456"><ele>168.0</ele><time>2026-04-13T18:09:01.999Z</time></trkpt><trkpt lat="44.528928335081986" lon="0.9671949736004752"><ele>168.0</ele><time>2026-04-13T18:09:02.999Z</time></trkpt><trkpt lat="44.52882224102533" lon="0.9671579610638624"><ele>168.0</ele><time>2026-04-13T18:09:03.999Z</time></trkpt><trkpt lat="44.52868658468036" lon="0.9671348866383442"><ele>168.0</ele><time>2026-04-13T18:09:04.999Z</time></trkpt><trkpt lat="44.52855962127233" lon="0.9671062199849892"><ele>171.0</ele><time>2026-04-13T18:09:05.999Z</time></trkpt><trkpt lat="44.528437238578256" lon="0.9670809971269005"><ele>174.0</ele><time>2026-04-13T18:09:06.999Z</time></trkpt><trkpt lat="44.52831320500412" lon="0.9670172481319282"><ele>177.0</ele><time>2026-04-13T18:09:07.999Z</time></trkpt><trkpt lat="44.528181284976704" lon="0.9669363682613866"><ele>180.0</ele><time>2026-04-13T18:09:08.999Z</time></trkpt><trkpt lat="44.52804099396981" lon="0.9668700938985557"><ele>180.0</ele><time>2026-04-13T18:09:09.999Z</time></trkpt><trkpt lat="44.52790390574312" lon="0.9667808158709816"><ele>180.0</ele><time>2026-04-13T18:09:10.999Z</time></trkpt><trkpt lat="44.527780868240335" lon="0.9667134162485548"><ele>180.0</ele><time>2026-04-13T18:09:11.999Z</time></trkpt><trkpt lat="44.52768214553265" lon="0.9666648865346418"><ele>180.0</ele><time>2026-04-13T18:09:12.999Z</time></trkpt><trkpt lat="44.52758248406281" lon="0.9666254623597442"><ele>178.2</ele><time>2026-04-13T18:09:13.999Z</time></trkpt><trkpt lat="44.52746877480746" lon="0.9665214757602513"><ele>176.4</ele><time>2026-04-13T18:09:14.999Z</time></trkpt><trkpt lat="44.527365900345686" lon="0.9664239972349168"><ele>174.60000000000002</ele><time>2026-04-13T18:09:15.999Z</time></trkpt><trkpt lat="44.527275791933256" lon="0.9663674791198028"><ele>172.8</ele><time>2026-04-13T18:09:16.999Z</time></trkpt><trkpt lat="44.52720676133542" lon="0.9663048790389666"><ele>171.0</ele><time>2026-04-13T18:09:17.999Z</time></trkpt><trkpt lat="44.5271291776119" lon="0.9662250993155517"><ele>171.0</ele><time>2026-04-13T18:09:19.999Z</time></trkpt><trkpt lat="44.52710452300076" lon="0.9661256465345519"><ele>171.0</ele><time>2026-04-13T18:09:31.999Z</time></trkpt><trkpt lat="44.52710947230321" lon="0.966015202563119"><ele>171.0</ele><time>2026-04-13T18:09:33.999Z</time></trkpt><trkpt lat="44.52708463942203" lon="0.9658777661928578"><ele>171.0</ele><time>2026-04-13T18:09:35.999Z</time></trkpt><trkpt lat="44.52706346769192" lon="0.9657615417400301"><ele>171.0</ele><time>2026-04-13T18:09:37.999Z</time></trkpt><trkpt lat="44.527049742150275" lon="0.9655907362861504"><ele>171.0</ele><time>2026-04-13T18:09:39.998Z</time></trkpt><trkpt lat="44.52704705791324" lon="0.9654348162186276"><ele>171.0</ele><time>2026-04-13T18:09:41.998Z</time></trkpt><trkpt lat="44.5270554958908" lon="0.9653003895418951"><ele>171.0</ele><time>2026-04-13T18:09:43.998Z</time></trkpt><trkpt lat="44.52703169194385" lon="0.9651630335240479"><ele>171.0</ele><time>2026-04-13T18:09:45.998Z</time></trkpt><trkpt lat="44.52702176164501" lon="0.965033094885787"><ele>171.0</ele><time>2026-04-13T18:09:47.998Z</time></trkpt><trkpt lat="44.52702995835836" lon="0.9649087665646873"><ele>170.83333333333334</ele><time>2026-04-13T18:09:49.999Z</time></trkpt><trkpt lat="44.52702680653718" lon="0.9647866008232332"><ele>170.66666666666666</ele><time>2026-04-13T18:09:51.999Z</time></trkpt><trkpt lat="44.52705676512182" lon="0.9646640490372861"><ele>170.5</ele><time>2026-04-13T18:09:53.999Z</time></trkpt><trkpt lat="44.52709156630805" lon="0.9645788957238923"><ele>170.33333333333331</ele><time>2026-04-13T18:09:54.999Z</time></trkpt><trkpt lat="44.527124719208544" lon="0.9644899427568631"><ele>170.16666666666666</ele><time>2026-04-13T18:09:55.999Z</time></trkpt><trkpt lat="44.52716324242297" lon="0.964372680467884"><ele>170.0</ele><time>2026-04-13T18:09:56.999Z</time></trkpt><trkpt lat="44.52724182051051" lon="0.9642439710111901"><ele>168.0</ele><time>2026-04-13T18:09:57.999Z</time></trkpt><trkpt lat="44.52732500584124" lon="0.9641048209212304"><ele>166.0</ele><time>2026-04-13T18:09:59Z</time></trkpt><trkpt lat="44.52742020134601" lon="0.9639411161233203"><ele>164.0</ele><time>2026-04-13T18:10:00Z</time></trkpt><trkpt lat="44.52752554988461" lon="0.9637868433149844"><ele>162.0</ele><time>2026-04-13T18:10:01Z</time></trkpt><trkpt lat="44.52762347161865" lon="0.9636318216736041"><ele>162.0</ele><time>2026-04-13T18:10:02Z</time></trkpt><trkpt lat="44.5277431152566" lon="0.9634711025594277"><ele>162.0</ele><time>2026-04-13T18:10:03Z</time></trkpt><trkpt lat="44.527864006825695" lon="0.963290864705137"><ele>162.0</ele><time>2026-04-13T18:10:04Z</time></trkpt><trkpt lat="44.52798318299186" lon="0.9631132471879584"><ele>161.66666666666666</ele><time>2026-04-13T18:10:05Z</time></trkpt><trkpt lat="44.52810797232027" lon="0.9629260086565692"><ele>161.33333333333331</ele><time>2026-04-13T18:10:06Z</time></trkpt><trkpt lat="44.528229027988175" lon="0.9627373945407015"><ele>161.0</ele><time>2026-04-13T18:10:07Z</time></trkpt><trkpt lat="44.528355650356154" lon="0.9625458948732117"><ele>161.66666666666666</ele><time>2026-04-13T18:10:08Z</time></trkpt><trkpt lat="44.52849187512279" lon="0.962347661623622"><ele>162.33333333333334</ele><time>2026-04-13T18:10:09Z</time></trkpt><trkpt lat="44.5286375975024" lon="0.9621585404951648"><ele>163.0</ele><time>2026-04-13T18:10:10Z</time></trkpt><trkpt lat="44.528753654162664" lon="0.9619343851373277"><ele>161.66666666666669</ele><time>2026-04-13T18:10:11Z</time></trkpt><trkpt lat="44.52888095158666" lon="0.9617141912812367"><ele>160.33333333333334</ele><time>2026-04-13T18:10:12Z</time></trkpt><trkpt lat="44.52900412195961" lon="0.9614949065289312"><ele>159.0</ele><time>2026-04-13T18:10:13Z</time></trkpt><trkpt lat="44.52909454374991" lon="0.9613009425197672"><ele>159.0</ele><time>2026-04-13T18:10:14Z</time></trkpt><trkpt lat="44.52916994968414" lon="0.9611191210611506"><ele>159.0</ele><time>2026-04-13T18:10:15Z</time></trkpt><trkpt lat="44.5292630865907" lon="0.9609451531777736"><ele>159.0</ele><time>2026-04-13T18:10:16Z</time></trkpt><trkpt lat="44.52932843981918" lon="0.9607361659959432"><ele>159.33333333333334</ele><time>2026-04-13T18:10:17Z</time></trkpt><trkpt lat="44.52935405667714" lon="0.9605203724043258"><ele>159.66666666666669</ele><time>2026-04-13T18:10:17.999Z</time></trkpt><trkpt lat="44.52938598392245" lon="0.960266596263989"><ele>160.0</ele><time>2026-04-13T18:10:18.999Z</time></trkpt><trkpt lat="44.529408932430265" lon="0.9600284847962295"><ele>159.33333333333334</ele><time>2026-04-13T18:10:19.999Z</time></trkpt><trkpt lat="44.529475412344354" lon="0.9598484314576536"><ele>158.66666666666666</ele><time>2026-04-13T18:10:20.999Z</time></trkpt><trkpt lat="44.52955916126208" lon="0.9596614359147925"><ele>158.0</ele><time>2026-04-13T18:10:21.999Z</time></trkpt><trkpt lat="44.5296583879808" lon="0.9594684000868564"><ele>155.33333333333331</ele><time>2026-04-13T18:10:22.999Z</time></trkpt><trkpt lat="44.529762613165154" lon="0.9592550086517406"><ele>152.66666666666666</ele><time>2026-04-13T18:10:23.999Z</time></trkpt><trkpt lat="44.52988211625348" lon="0.9590762241336082"><ele>150.0</ele><time>2026-04-13T18:10:24.999Z</time></trkpt><trkpt lat="44.52999856992662" lon="0.9588966431308569"><ele>148.66666666666666</ele><time>2026-04-13T18:10:25.999Z</time></trkpt><trkpt lat="44.53010140225529" lon="0.9587405919005072"><ele>147.33333333333331</ele><time>2026-04-13T18:10:26.999Z</time></trkpt><trkpt lat="44.53026009255998" lon="0.9586864245581074"><ele>146.0</ele><time>2026-04-13T18:10:27.999Z</time></trkpt><trkpt lat="44.53041664618655" lon="0.9586372319196808"><ele>144.0</ele><time>2026-04-13T18:10:28.999Z</time></trkpt><trkpt lat="44.53058768482675" lon="0.9585822250897049"><ele>142.0</ele><time>2026-04-13T18:10:29.999Z</time></trkpt><trkpt lat="44.53075187695117" lon="0.9585182907231788"><ele>140.0</ele><time>2026-04-13T18:10:30.999Z</time></trkpt><trkpt lat="44.53093366410792" lon="0.9584293395780688"><ele>140.0</ele><time>2026-04-13T18:10:31.999Z</time></trkpt><trkpt lat="44.53110655789822" lon="0.9583042669894536"><ele>140.0</ele><time>2026-04-13T18:10:32.999Z</time></trkpt><trkpt lat="44.531267169875264" lon="0.9581612127261001"><ele>140.0</ele><time>2026-04-13T18:10:33.999Z</time></trkpt><trkpt lat="44.531439561598525" lon="0.9580334512861174"><ele>139.33333333333331</ele><time>2026-04-13T18:10:34.999Z</time></trkpt><trkpt lat="44.53159592031582" lon="0.9578970080143943"><ele>138.66666666666666</ele><time>2026-04-13T18:10:35.999Z</time></trkpt><trkpt lat="44.531770570893286" lon="0.9577559217437113"><ele>138.0</ele><time>2026-04-13T18:10:36.999Z</time></trkpt><trkpt lat="44.531919036077745" lon="0.9576381929349171"><ele>137.0</ele><time>2026-04-13T18:10:37.999Z</time></trkpt><trkpt lat="44.53205595848897" lon="0.9575326601555748"><ele>136.0</ele><time>2026-04-13T18:10:38.999Z</time></trkpt><trkpt lat="44.53217133042821" lon="0.9574081063845495"><ele>135.0</ele><time>2026-04-13T18:10:39.999Z</time></trkpt><trkpt lat="44.5322909957168" lon="0.957241202699658"><ele>134.0</ele><time>2026-04-13T18:10:40.999Z</time></trkpt><trkpt lat="44.53240353741539" lon="0.957039799244595"><ele>133.0</ele><time>2026-04-13T18:10:41.999Z</time></trkpt><trkpt lat="44.532501238957046" lon="0.9568363566706942"><ele>132.0</ele><time>2026-04-13T18:10:42.999Z</time></trkpt><trkpt lat="44.53261922728315" lon="0.9566293131238268"><ele>131.66666666666666</ele><time>2026-04-13T18:10:43.999Z</time></trkpt><trkpt lat="44.532737599785705" lon="0.9564194196885354"><ele>131.33333333333331</ele><time>2026-04-13T18:10:44.999Z</time></trkpt><trkpt lat="44.53284572747179" lon="0.9562305610121521"><ele>131.0</ele><time>2026-04-13T18:10:45.999Z</time></trkpt><trkpt lat="44.53293848981148" lon="0.9560610349532421"><ele>129.5</ele><time>2026-04-13T18:10:46.999Z</time></trkpt><trkpt lat="44.53302481664631" lon="0.9559064139125302"><ele>128.0</ele><time>2026-04-13T18:10:47.999Z</time></trkpt><trkpt lat="44.533100918176864" lon="0.9557656184951765"><ele>126.5</ele><time>2026-04-13T18:10:48.999Z</time></trkpt><trkpt lat="44.533183425173405" lon="0.9556364536528186"><ele>125.0</ele><time>2026-04-13T18:10:49.999Z</time></trkpt><trkpt lat="44.5332556789034" lon="0.9555012274356617"><ele>125.0</ele><time>2026-04-13T18:10:50.999Z</time></trkpt><trkpt lat="44.533325642476974" lon="0.9553584356274727"><ele>125.0</ele><time>2026-04-13T18:10:51.999Z</time></trkpt><trkpt lat="44.53337213092594" lon="0.9552218422426463"><ele>125.0</ele><time>2026-04-13T18:10:52.999Z</time></trkpt><trkpt lat="44.53340211450227" lon="0.9550861199566114"><ele>125.0</ele><time>2026-04-13T18:10:53.999Z</time></trkpt><trkpt lat="44.533421620294874" lon="0.9549605079723067"><ele>125.0</ele><time>2026-04-13T18:10:54.999Z</time></trkpt><trkpt lat="44.53340872143448" lon="0.9548376165831837"><ele>124.99999999999999</ele><time>2026-04-13T18:10:55.999Z</time></trkpt><trkpt lat="44.533424727361655" lon="0.9547281471049254"><ele>125.0</ele><time>2026-04-13T18:10:56.999Z</time></trkpt><trkpt lat="44.53341680618472" lon="0.9546181590846038"><ele>125.0</ele><time>2026-04-13T18:10:57.999Z</time></trkpt><trkpt lat="44.533428551915755" lon="0.9545164772446243"><ele>125.0</ele><time>2026-04-13T18:10:58.999Z</time></trkpt><trkpt lat="44.53344038316434" lon="0.9544022486442347"><ele>124.99999999999999</ele><time>2026-04-13T18:10:59.999Z</time></trkpt><trkpt lat="44.53345188574861" lon="0.9542836368019767"><ele>125.0</ele><time>2026-04-13T18:11:00.999Z</time></trkpt><trkpt lat="44.533485761533655" lon="0.9541779482086491"><ele>124.66666666666666</ele><time>2026-04-13T18:11:01.999Z</time></trkpt><trkpt lat="44.53349764518281" lon="0.9540668222729958"><ele>124.33333333333333</ele><time>2026-04-13T18:11:02.999Z</time></trkpt><trkpt lat="44.533521490993884" lon="0.953957818065553"><ele>124.0</ele><time>2026-04-13T18:11:03.999Z</time></trkpt><trkpt lat="44.53354843977651" lon="0.9538537804262063"><ele>123.66666666666666</ele><time>2026-04-13T18:11:04.999Z</time></trkpt><trkpt lat="44.53357915749187" lon="0.953745490600208"><ele>123.33333333333333</ele><time>2026-04-13T18:11:05.999Z</time></trkpt><trkpt lat="44.53360914961348" lon="0.9536397753764637"><ele>123.0</ele><time>2026-04-13T18:11:06.999Z</time></trkpt><trkpt lat="44.53363779778802" lon="0.9535345685997078"><ele>123.0</ele><time>2026-04-13T18:11:07.999Z</time></trkpt><trkpt lat="44.533665478055724" lon="0.953430167608812"><ele>123.00000000000001</ele><time>2026-04-13T18:11:08.999Z</time></trkpt><trkpt lat="44.53369074543625" lon="0.9533306697867595"><ele>123.00000000000001</ele><time>2026-04-13T18:11:09.999Z</time></trkpt><trkpt lat="44.53372675391082" lon="0.9532180101058466"><ele>123.0</ele><time>2026-04-13T18:11:10.999Z</time></trkpt><trkpt lat="44.533768254682485" lon="0.9530815388706688"><ele>123.0</ele><time>2026-04-13T18:11:11.999Z</time></trkpt><trkpt lat="44.533825981387814" lon="0.952923259614525"><ele>121.0</ele><time>2026-04-13T18:11:12.999Z</time></trkpt><trkpt lat="44.53388938527684" lon="0.9527409421779139"><ele>119.0</ele><time>2026-04-13T18:11:13.999Z</time></trkpt><trkpt lat="44.53397088757848" lon="0.9525628799320776"><ele>117.0</ele><time>2026-04-13T18:11:14.999Z</time></trkpt><trkpt lat="44.534040943245174" lon="0.9523358797032769"><ele>115.33333333333334</ele><time>2026-04-13T18:11:15.999Z</time></trkpt><trkpt lat="44.53410473241829" lon="0.9521094732570481"><ele>113.66666666666667</ele><time>2026-04-13T18:11:16.999Z</time></trkpt><trkpt lat="44.534136858297735" lon="0.9518721520686654"><ele>112.0</ele><time>2026-04-13T18:11:17.999Z</time></trkpt><trkpt lat="44.534148063756824" lon="0.9516243311417412"><ele>110.66666666666667</ele><time>2026-04-13T18:11:18.999Z</time></trkpt><trkpt lat="44.53414526573294" lon="0.9513566937885329"><ele>109.33333333333334</ele><time>2026-04-13T18:11:19.999Z</time></trkpt><trkpt lat="44.534141001857925" lon="0.9510950425832836"><ele>108.0</ele><time>2026-04-13T18:11:20.999Z</time></trkpt><trkpt lat="44.53414959275788" lon="0.9508227997252157"><ele>108.0</ele><time>2026-04-13T18:11:21.999Z</time></trkpt><trkpt lat="44.5341627101146" lon="0.950560812007854"><ele>108.0</ele><time>2026-04-13T18:11:22.999Z</time></trkpt><trkpt lat="44.53417249680302" lon="0.950284201367484"><ele>108.0</ele><time>2026-04-13T18:11:23.999Z</time></trkpt><trkpt lat="44.53419933250277" lon="0.9500109082566512"><ele>107.0</ele><time>2026-04-13T18:11:24.999Z</time></trkpt><trkpt lat="44.534218868039304" lon="0.9497532539926486"><ele>106.0</ele><time>2026-04-13T18:11:25.999Z</time></trkpt><trkpt lat="44.5342440278777" lon="0.9495365144150474"><ele>105.0</ele><time>2026-04-13T18:11:26.999Z</time></trkpt><trkpt lat="44.534261553375636" lon="0.9493476424399722"><ele>103.4</ele><time>2026-04-13T18:11:27.999Z</time></trkpt><trkpt lat="44.53427710141207" lon="0.9491796519853438"><ele>101.8</ele><time>2026-04-13T18:11:28.999Z</time></trkpt><trkpt lat="44.53430731243348" lon="0.9490430784692461"><ele>100.19999999999999</ele><time>2026-04-13T18:11:29.999Z</time></trkpt><trkpt lat="44.53435882779652" lon="0.9489379405183819"><ele>98.6</ele><time>2026-04-13T18:11:30.999Z</time></trkpt><trkpt lat="44.53444659863211" lon="0.9488610173039645"><ele>97.0</ele><time>2026-04-13T18:11:31.999Z</time></trkpt><trkpt lat="44.534574498577165" lon="0.9489105185687418"><ele>96.6</ele><time>2026-04-13T18:11:32.999Z</time></trkpt><trkpt lat="44.53467760368104" lon="0.9488466599251021"><ele>96.19999999999999</ele><time>2026-04-13T18:11:33.999Z</time></trkpt><trkpt lat="44.53474767531547" lon="0.9487392433600665"><ele>95.8</ele><time>2026-04-13T18:11:34.999Z</time></trkpt><trkpt lat="44.53479492244969" lon="0.9486444361053659"><ele>95.4</ele><time>2026-04-13T18:11:35.999Z</time></trkpt><trkpt lat="44.53484227646165" lon="0.9485326846352745"><ele>95.0</ele><time>2026-04-13T18:11:36.999Z</time></trkpt><trkpt lat="44.534914858644164" lon="0.9484450352968118"><ele>95.0</ele><time>2026-04-13T18:11:37.999Z</time></trkpt><trkpt lat="44.53502082570306" lon="0.9483862454075925"><ele>95.0</ele><time>2026-04-13T18:11:38.999Z</time></trkpt><trkpt lat="44.53514064076933" lon="0.9483306264622792"><ele>95.0</ele><time>2026-04-13T18:11:39.999Z</time></trkpt><trkpt lat="44.535270566856695" lon="0.9482632495591289"><ele>95.0</ele><time>2026-04-13T18:11:40.999Z</time></trkpt><trkpt lat="44.53540856216579" lon="0.9481787944942826"><ele>96.0</ele><time>2026-04-13T18:11:41.998Z</time></trkpt><trkpt lat="44.535542074763136" lon="0.9480844434856404"><ele>97.0</ele><time>2026-04-13T18:11:42.998Z</time></trkpt><trkpt lat="44.53567815383497" lon="0.9479850106060159"><ele>98.0</ele><time>2026-04-13T18:11:43.998Z</time></trkpt><trkpt lat="44.53581886274134" lon="0.9478672414533996"><ele>98.0</ele><time>2026-04-13T18:11:44.998Z</time></trkpt><trkpt lat="44.53597073674264" lon="0.9477478560717195"><ele>98.0</ele><time>2026-04-13T18:11:45.998Z</time></trkpt><trkpt lat="44.53611939858523" lon="0.9476031482486993"><ele>98.0</ele><time>2026-04-13T18:11:46.998Z</time></trkpt><trkpt lat="44.53626465190547" lon="0.9474563056326536"><ele>97.33333333333333</ele><time>2026-04-13T18:11:47.998Z</time></trkpt><trkpt lat="44.53641792443127" lon="0.9473099488390178"><ele>96.66666666666666</ele><time>2026-04-13T18:11:48.998Z</time></trkpt><trkpt lat="44.53656547276136" lon="0.9471632686543268"><ele>96.0</ele><time>2026-04-13T18:11:49.998Z</time></trkpt><trkpt lat="44.53671797991192" lon="0.9470153751049539"><ele>96.0</ele><time>2026-04-13T18:11:50.998Z</time></trkpt><trkpt lat="44.536871929723915" lon="0.9468594743606097"><ele>96.0</ele><time>2026-04-13T18:11:51.998Z</time></trkpt><trkpt lat="44.53701646661165" lon="0.9467250124577894"><ele>96.0</ele><time>2026-04-13T18:11:52.998Z</time></trkpt><trkpt lat="44.53714399394283" lon="0.9466103957013469"><ele>97.0</ele><time>2026-04-13T18:11:53.998Z</time></trkpt><trkpt lat="44.53725127993598" lon="0.9465256889976148"><ele>98.0</ele><time>2026-04-13T18:11:54.999Z</time></trkpt><trkpt lat="44.537341683144405" lon="0.9464595209548837"><ele>99.0</ele><time>2026-04-13T18:11:55.999Z</time></trkpt><trkpt lat="44.537416072867366" lon="0.9464197041726901"><ele>100.0</ele><time>2026-04-13T18:11:56.999Z</time></trkpt><trkpt lat="44.537503704692135" lon="0.9463859131679139"><ele>101.0</ele><time>2026-04-13T18:11:58.999Z</time></trkpt><trkpt lat="44.53747203577889" lon="0.946185165237236"><ele>101.0</ele><time>2026-04-13T18:12:00.999Z</time></trkpt><trkpt lat="44.53743007543197" lon="0.9460672838615631"><ele>101.0</ele><time>2026-04-13T18:12:01.999Z</time></trkpt><trkpt lat="44.537390195775174" lon="0.9459198726808173"><ele>101.0</ele><time>2026-04-13T18:12:02.999Z</time></trkpt><trkpt lat="44.53735977588708" lon="0.9457354584893378"><ele>101.0</ele><time>2026-04-13T18:12:03.999Z</time></trkpt><trkpt lat="44.537326841259116" lon="0.9455405379722523"><ele>97.66666666666666</ele><time>2026-04-13T18:12:04.999Z</time></trkpt><trkpt lat="44.537286137661475" lon="0.9453359365300595"><ele>94.33333333333333</ele><time>2026-04-13T18:12:05.999Z</time></trkpt><trkpt lat="44.53725143419543" lon="0.9451131240508633"><ele>91.0</ele><time>2026-04-13T18:12:06.999Z</time></trkpt><trkpt lat="44.537226040869655" lon="0.9448792454067828"><ele>91.0</ele><time>2026-04-13T18:12:07.999Z</time></trkpt><trkpt lat="44.53720570662566" lon="0.9446850494164682"><ele>91.0</ele><time>2026-04-13T18:12:08.999Z</time></trkpt><trkpt lat="44.53718254638127" lon="0.9445276381857439"><ele>91.0</ele><time>2026-04-13T18:12:09.999Z</time></trkpt><trkpt lat="44.53708913765858" lon="0.9444220787413976"><ele>91.0</ele><time>2026-04-13T18:12:10.999Z</time></trkpt><trkpt lat="44.536969737127144" lon="0.9443464300133503"><ele>91.66666666666666</ele><time>2026-04-13T18:12:11.999Z</time></trkpt><trkpt lat="44.53682675798462" lon="0.9443111046252641"><ele>92.33333333333333</ele><time>2026-04-13T18:12:12.999Z</time></trkpt><trkpt lat="44.536680891026826" lon="0.9442863602611328"><ele>93.0</ele><time>2026-04-13T18:12:13.999Z</time></trkpt><trkpt lat="44.536527482849905" lon="0.9442199970365057"><ele>93.0</ele><time>2026-04-13T18:12:14.999Z</time></trkpt><trkpt lat="44.53639960249492" lon="0.9440958997182185"><ele>93.0</ele><time>2026-04-13T18:12:15.999Z</time></trkpt><trkpt lat="44.53626125994809" lon="0.9439538625766237"><ele>93.0</ele><time>2026-04-13T18:12:16.999Z</time></trkpt><trkpt lat="44.53611330727798" lon="0.9438220825948405"><ele>91.66666666666667</ele><time>2026-04-13T18:12:17.999Z</time></trkpt><trkpt lat="44.535981875378326" lon="0.943651342832297"><ele>90.33333333333334</ele><time>2026-04-13T18:12:18.999Z</time></trkpt><trkpt lat="44.53584101692684" lon="0.9435095748987811"><ele>89.0</ele><time>2026-04-13T18:12:19.999Z</time></trkpt><trkpt lat="44.53566839865397" lon="0.9433922845376786"><ele>89.66666666666667</ele><time>2026-04-13T18:12:20.999Z</time></trkpt><trkpt lat="44.535501673264406" lon="0.9432784186801991"><ele>90.33333333333333</ele><time>2026-04-13T18:12:21.999Z</time></trkpt><trkpt lat="44.53534875800017" lon="0.9431669815994069"><ele>91.0</ele><time>2026-04-13T18:12:22.999Z</time></trkpt><trkpt lat="44.53519786625161" lon="0.9430994424510857"><ele>91.0</ele><time>2026-04-13T18:12:23.999Z</time></trkpt><trkpt lat="44.53508291345671" lon="0.9430594730028776"><ele>91.0</ele><time>2026-04-13T18:12:24.999Z</time></trkpt><trkpt lat="44.53498065653325" lon="0.942993463030915"><ele>91.0</ele><time>2026-04-13T18:12:25.999Z</time></trkpt><trkpt lat="44.534901307740384" lon="0.9429043326698754"><ele>91.0</ele><time>2026-04-13T18:12:26.999Z</time></trkpt><trkpt lat="44.53486834869104" lon="0.9427446804536104"><ele>91.0</ele><time>2026-04-13T18:12:27.999Z</time></trkpt><trkpt lat="44.534907594237595" lon="0.9425759916406774"><ele>91.0</ele><time>2026-04-13T18:12:28.999Z</time></trkpt><trkpt lat="44.53487748252139" lon="0.9424056201719727"><ele>91.0</ele><time>2026-04-13T18:12:29.999Z</time></trkpt><trkpt lat="44.53476302521872" lon="0.9422748359103549"><ele>91.0</ele><time>2026-04-13T18:12:30.999Z</time></trkpt><trkpt lat="44.53463371467807" lon="0.9421799342861605"><ele>90.66666666666666</ele><time>2026-04-13T18:12:31.999Z</time></trkpt><trkpt lat="44.53448566539987" lon="0.9420981876943058"><ele>90.33333333333333</ele><time>2026-04-13T18:12:32.999Z</time></trkpt><trkpt lat="44.53433181071295" lon="0.9420160918502887"><ele>90.0</ele><time>2026-04-13T18:12:33.999Z</time></trkpt><trkpt lat="44.534184551591885" lon="0.9419024889931545"><ele>90.0</ele><time>2026-04-13T18:12:34.999Z</time></trkpt><trkpt lat="44.53402526440187" lon="0.9418056500802465"><ele>90.0</ele><time>2026-04-13T18:12:35.999Z</time></trkpt><trkpt lat="44.533860145004695" lon="0.9417129551833368"><ele>90.0</ele><time>2026-04-13T18:12:36.999Z</time></trkpt><trkpt lat="44.53368405466908" lon="0.941649409892164"><ele>90.0</ele><time>2026-04-13T18:12:37.999Z</time></trkpt><trkpt lat="44.533503159080226" lon="0.9415685953915292"><ele>90.0</ele><time>2026-04-13T18:12:38.999Z</time></trkpt><trkpt lat="44.53331411024436" lon="0.9415113765531355"><ele>90.0</ele><time>2026-04-13T18:12:39.999Z</time></trkpt><trkpt lat="44.533133976624015" lon="0.9414485412603073"><ele>90.0</ele><time>2026-04-13T18:12:40.999Z</time></trkpt><trkpt lat="44.532950327518385" lon="0.9414007097446241"><ele>90.0</ele><time>2026-04-13T18:12:41.999Z</time></trkpt><trkpt lat="44.53277754958969" lon="0.941305139480882"><ele>90.0</ele><time>2026-04-13T18:12:42.999Z</time></trkpt><trkpt lat="44.532625232174155" lon="0.9411933833997518"><ele>89.33333333333333</ele><time>2026-04-13T18:12:43.999Z</time></trkpt><trkpt lat="44.53247404813314" lon="0.9410611259296577"><ele>88.66666666666666</ele><time>2026-04-13T18:12:44.999Z</time></trkpt><trkpt lat="44.53231788055228" lon="0.9409271321227392"><ele>88.0</ele><time>2026-04-13T18:12:45.999Z</time></trkpt><trkpt lat="44.53216251732955" lon="0.9408047921855618"><ele>87.66666666666666</ele><time>2026-04-13T18:12:46.999Z</time></trkpt><trkpt lat="44.53198338244146" lon="0.9407338554818574"><ele>87.33333333333333</ele><time>2026-04-13T18:12:47.999Z</time></trkpt><trkpt lat="44.531803677486565" lon="0.9406628611285882"><ele>87.0</ele><time>2026-04-13T18:12:48.999Z</time></trkpt><trkpt lat="44.53161810568898" lon="0.9406074000475927"><ele>87.0</ele><time>2026-04-13T18:12:49.999Z</time></trkpt><trkpt lat="44.53143228366026" lon="0.9405652233895389"><ele>87.0</ele><time>2026-04-13T18:12:50.999Z</time></trkpt><trkpt lat="44.5312593873246" lon="0.9404999782584519"><ele>87.0</ele><time>2026-04-13T18:12:51.999Z</time></trkpt><trkpt lat="44.531072727913106" lon="0.9404458766188675"><ele>88.0</ele><time>2026-04-13T18:12:52.999Z</time></trkpt><trkpt lat="44.530888019110854" lon="0.940389884405319"><ele>89.0</ele><time>2026-04-13T18:12:53.999Z</time></trkpt><trkpt lat="44.53072056165251" lon="0.9402887486804153"><ele>90.0</ele><time>2026-04-13T18:12:54.999Z</time></trkpt><trkpt lat="44.530550739301894" lon="0.9402012059470666"><ele>89.66666666666667</ele><time>2026-04-13T18:12:55.999Z</time></trkpt><trkpt lat="44.53038780674598" lon="0.9400875569603698"><ele>89.33333333333334</ele><time>2026-04-13T18:12:56.999Z</time></trkpt><trkpt lat="44.53021886333026" lon="0.9399655343220996"><ele>89.0</ele><time>2026-04-13T18:12:57.999Z</time></trkpt><trkpt lat="44.530048348501914" lon="0.9398629013937566"><ele>89.66666666666667</ele><time>2026-04-13T18:12:58.999Z</time></trkpt><trkpt lat="44.52987031658491" lon="0.9397637954015183"><ele>90.33333333333333</ele><time>2026-04-13T18:12:59.999Z</time></trkpt><trkpt lat="44.52969871978206" lon="0.9396759397938973"><ele>91.0</ele><time>2026-04-13T18:13:00.999Z</time></trkpt><trkpt lat="44.52951436719106" lon="0.9395969477634328"><ele>91.66666666666666</ele><time>2026-04-13T18:13:01.999Z</time></trkpt><trkpt lat="44.52933459228992" lon="0.9395233964758994"><ele>92.33333333333333</ele><time>2026-04-13T18:13:02.999Z</time></trkpt><trkpt lat="44.52915961540732" lon="0.9394520360308654"><ele>93.0</ele><time>2026-04-13T18:13:03.999Z</time></trkpt><trkpt lat="44.528978188095095" lon="0.9393847274252423"><ele>93.0</ele><time>2026-04-13T18:13:04.999Z</time></trkpt><trkpt lat="44.52880311291927" lon="0.9393052313308758"><ele>93.0</ele><time>2026-04-13T18:13:05.999Z</time></trkpt><trkpt lat="44.528620332861664" lon="0.9392269694267256"><ele>93.0</ele><time>2026-04-13T18:13:06.999Z</time></trkpt><trkpt lat="44.528437503633725" lon="0.9391577598187881"><ele>93.66666666666667</ele><time>2026-04-13T18:13:07.999Z</time></trkpt><trkpt lat="44.528282450343205" lon="0.9390860186414122"><ele>94.33333333333334</ele><time>2026-04-13T18:13:08.999Z</time></trkpt><trkpt lat="44.52813032585124" lon="0.9390276947810162"><ele>95.0</ele><time>2026-04-13T18:13:09.999Z</time></trkpt><trkpt lat="44.52799297328" lon="0.9389785951372558"><ele>94.6</ele><time>2026-04-13T18:13:10.999Z</time></trkpt><trkpt lat="44.527880553159505" lon="0.9389420483695368"><ele>94.2</ele><time>2026-04-13T18:13:11.999Z</time></trkpt><trkpt lat="44.527793088512894" lon="0.9389162251332336"><ele>93.80000000000001</ele><time>2026-04-13T18:13:12.999Z</time></trkpt><trkpt lat="44.52772887649859" lon="0.9388957299174748"><ele>93.4</ele><time>2026-04-13T18:13:13.999Z</time></trkpt><trkpt lat="44.5276506309929" lon="0.9388752290215607"><ele>93.0</ele><time>2026-04-13T18:13:15.999Z</time></trkpt><trkpt lat="44.527509343896824" lon="0.9388247410320966"><ele>93.0</ele><time>2026-04-13T18:13:17.999Z</time></trkpt><trkpt lat="44.527404542256924" lon="0.9387654769856069"><ele>93.0</ele><time>2026-04-13T18:13:18.999Z</time></trkpt><trkpt lat="44.52729504866449" lon="0.9386893725577565"><ele>93.0</ele><time>2026-04-13T18:13:19.999Z</time></trkpt><trkpt lat="44.52719063674917" lon="0.9386067588872713"><ele>93.0</ele><time>2026-04-13T18:13:20.999Z</time></trkpt><trkpt lat="44.52706754022421" lon="0.9384903998311915"><ele>92.33333333333333</ele><time>2026-04-13T18:13:21.999Z</time></trkpt><trkpt lat="44.52693983991425" lon="0.9383881370419591"><ele>91.66666666666666</ele><time>2026-04-13T18:13:22.999Z</time></trkpt><trkpt lat="44.526797291654844" lon="0.9382768440149585"><ele>91.0</ele><time>2026-04-13T18:13:23.999Z</time></trkpt><trkpt lat="44.52666400419127" lon="0.9381607931913801"><ele>91.0</ele><time>2026-04-13T18:13:24.999Z</time></trkpt><trkpt lat="44.52650901973546" lon="0.9380683603234448"><ele>91.0</ele><time>2026-04-13T18:13:25.999Z</time></trkpt><trkpt lat="44.526351494624365" lon="0.9379844981120764"><ele>91.0</ele><time>2026-04-13T18:13:26.999Z</time></trkpt><trkpt lat="44.52618889343282" lon="0.9378779854724592"><ele>90.0</ele><time>2026-04-13T18:13:27.999Z</time></trkpt><trkpt lat="44.52603273386272" lon="0.9377848983644725"><ele>89.0</ele><time>2026-04-13T18:13:28.999Z</time></trkpt><trkpt lat="44.52587273406565" lon="0.9376998708238503"><ele>88.0</ele><time>2026-04-13T18:13:29.999Z</time></trkpt><trkpt lat="44.52570865891826" lon="0.9376064584836333"><ele>89.66666666666666</ele><time>2026-04-13T18:13:30.999Z</time></trkpt><trkpt lat="44.525544613667094" lon="0.9374934185321175"><ele>91.33333333333333</ele><time>2026-04-13T18:13:31.999Z</time></trkpt><trkpt lat="44.52538898220849" lon="0.9373835997367591"><ele>93.0</ele><time>2026-04-13T18:13:32.999Z</time></trkpt><trkpt lat="44.525233869349485" lon="0.9372792641532063"><ele>93.0</ele><time>2026-04-13T18:13:33.999Z</time></trkpt><trkpt lat="44.525077078291524" lon="0.937155302523194"><ele>93.0</ele><time>2026-04-13T18:13:34.999Z</time></trkpt><trkpt lat="44.52491520463294" lon="0.9370423932314849"><ele>93.0</ele><time>2026-04-13T18:13:35.999Z</time></trkpt><trkpt lat="44.52474222467846" lon="0.9369142025976583"><ele>93.0</ele><time>2026-04-13T18:13:36.999Z</time></trkpt><trkpt lat="44.5245819771091" lon="0.936772173349723"><ele>93.0</ele><time>2026-04-13T18:13:37.999Z</time></trkpt><trkpt lat="44.524402312789384" lon="0.9366685515762935"><ele>93.0</ele><time>2026-04-13T18:13:38.999Z</time></trkpt><trkpt lat="44.524223810575435" lon="0.9365666810017566"><ele>94.0</ele><time>2026-04-13T18:13:39.999Z</time></trkpt><trkpt lat="44.52404741347213" lon="0.9364680495193078"><ele>95.0</ele><time>2026-04-13T18:13:40.999Z</time></trkpt><trkpt lat="44.52388626800279" lon="0.9363615721186769"><ele>96.0</ele><time>2026-04-13T18:13:41.999Z</time></trkpt><trkpt lat="44.523707428713884" lon="0.9362931868507657"><ele>93.33333333333333</ele><time>2026-04-13T18:13:42.999Z</time></trkpt><trkpt lat="44.523521180315385" lon="0.9362322979806244"><ele>90.66666666666666</ele><time>2026-04-13T18:13:43.999Z</time></trkpt><trkpt lat="44.52333302734412" lon="0.9361905803025501"><ele>88.0</ele><time>2026-04-13T18:13:44.999Z</time></trkpt><trkpt lat="44.52314195346917" lon="0.9361844803131838"><ele>88.0</ele><time>2026-04-13T18:13:45.999Z</time></trkpt><trkpt lat="44.522940177005836" lon="0.9361649473569085"><ele>88.0</ele><time>2026-04-13T18:13:46.999Z</time></trkpt><trkpt lat="44.52274869160904" lon="0.9361527085748957"><ele>88.0</ele><time>2026-04-13T18:13:47.999Z</time></trkpt><trkpt lat="44.522553891027044" lon="0.9361230210616633"><ele>88.0</ele><time>2026-04-13T18:13:48.999Z</time></trkpt><trkpt lat="44.522373090834876" lon="0.9360660167751912"><ele>88.0</ele><time>2026-04-13T18:13:49.999Z</time></trkpt><trkpt lat="44.52217969949817" lon="0.93602064656076"><ele>88.0</ele><time>2026-04-13T18:13:50.999Z</time></trkpt><trkpt lat="44.521990557211744" lon="0.9359777208480077"><ele>88.0</ele><time>2026-04-13T18:13:51.999Z</time></trkpt><trkpt lat="44.521812578992325" lon="0.9359639133353999"><ele>88.0</ele><time>2026-04-13T18:13:52.999Z</time></trkpt><trkpt lat="44.52165042697742" lon="0.9359170261980666"><ele>88.0</ele><time>2026-04-13T18:13:53.999Z</time></trkpt><trkpt lat="44.521508387735956" lon="0.9358709619176073"><ele>88.25</ele><time>2026-04-13T18:13:54.999Z</time></trkpt><trkpt lat="44.521380042858034" lon="0.9357920510375592"><ele>88.5</ele><time>2026-04-13T18:13:55.999Z</time></trkpt><trkpt lat="44.52128993869244" lon="0.9356555889498366"><ele>88.75</ele><time>2026-04-13T18:13:56.999Z</time></trkpt><trkpt lat="44.52122471438318" lon="0.9355300929292776"><ele>89.0</ele><time>2026-04-13T18:13:57.999Z</time></trkpt><trkpt lat="44.52120075394438" lon="0.9353687903917943"><ele>89.0</ele><time>2026-04-13T18:13:58.999Z</time></trkpt><trkpt lat="44.521204170733846" lon="0.9351935259058112"><ele>89.0</ele><time>2026-04-13T18:13:59.999Z</time></trkpt><trkpt lat="44.52124124792753" lon="0.9349916083706731"><ele>89.0</ele><time>2026-04-13T18:14:00.999Z</time></trkpt><trkpt lat="44.52132040357074" lon="0.9348200724306656"><ele>89.0</ele><time>2026-04-13T18:14:01.999Z</time></trkpt><trkpt lat="44.521422030517144" lon="0.9346668109289011"><ele>91.0</ele><time>2026-04-13T18:14:02.999Z</time></trkpt><trkpt lat="44.52153712521011" lon="0.9344878276295786"><ele>93.0</ele><time>2026-04-13T18:14:03.999Z</time></trkpt><trkpt lat="44.521644831672674" lon="0.9342913436613501"><ele>95.0</ele><time>2026-04-13T18:14:04.999Z</time></trkpt><trkpt lat="44.52171599814063" lon="0.9340542545464269"><ele>95.0</ele><time>2026-04-13T18:14:05.999Z</time></trkpt><trkpt lat="44.52178204039105" lon="0.9338076962569221"><ele>95.0</ele><time>2026-04-13T18:14:06.999Z</time></trkpt><trkpt lat="44.52182052670047" lon="0.9335639016861474"><ele>95.0</ele><time>2026-04-13T18:14:07.999Z</time></trkpt><trkpt lat="44.521810870078596" lon="0.9333319748942617"><ele>93.66666666666667</ele><time>2026-04-13T18:14:08.999Z</time></trkpt><trkpt lat="44.5217629113248" lon="0.9330975611414843"><ele>92.33333333333333</ele><time>2026-04-13T18:14:09.999Z</time></trkpt><trkpt lat="44.52170143238041" lon="0.9328608982037111"><ele>91.0</ele><time>2026-04-13T18:14:10.999Z</time></trkpt><trkpt lat="44.52162166050765" lon="0.932623031309352"><ele>91.66666666666666</ele><time>2026-04-13T18:14:11.999Z</time></trkpt><trkpt lat="44.52154024161457" lon="0.9323928107712411"><ele>92.33333333333333</ele><time>2026-04-13T18:14:12.999Z</time></trkpt><trkpt lat="44.5214690745358" lon="0.9321795328245233"><ele>93.0</ele><time>2026-04-13T18:14:14Z</time></trkpt><trkpt lat="44.521376024525445" lon="0.9320183927792284"><ele>93.0</ele><time>2026-04-13T18:14:15Z</time></trkpt><trkpt lat="44.521257008523975" lon="0.9318976015093777"><ele>93.0</ele><time>2026-04-13T18:14:16Z</time></trkpt><trkpt lat="44.521117094977924" lon="0.9318204811829671"><ele>93.0</ele><time>2026-04-13T18:14:17Z</time></trkpt><trkpt lat="44.520968331589856" lon="0.931799374504146"><ele>93.0</ele><time>2026-04-13T18:14:18Z</time></trkpt><trkpt lat="44.52082869256082" lon="0.9318259740650313"><ele>91.33333333333333</ele><time>2026-04-13T18:14:19Z</time></trkpt><trkpt lat="44.52069695783587" lon="0.9319002004616065"><ele>89.66666666666666</ele><time>2026-04-13T18:14:20Z</time></trkpt><trkpt lat="44.52055506693865" lon="0.9319866713368747"><ele>88.0</ele><time>2026-04-13T18:14:21Z</time></trkpt><trkpt lat="44.52038311990542" lon="0.9320515262983431"><ele>88.0</ele><time>2026-04-13T18:14:22Z</time></trkpt><trkpt lat="44.5202255605329" lon="0.9321274515281994"><ele>88.0</ele><time>2026-04-13T18:14:23Z</time></trkpt><trkpt lat="44.52006073832176" lon="0.9322063242068387"><ele>88.0</ele><time>2026-04-13T18:14:24Z</time></trkpt><trkpt lat="44.519897012575534" lon="0.9322831411291354"><ele>88.0</ele><time>2026-04-13T18:14:25Z</time></trkpt><trkpt lat="44.51973284527687" lon="0.932372617209125"><ele>88.0</ele><time>2026-04-13T18:14:26Z</time></trkpt><trkpt lat="44.519577070017014" lon="0.9324843080109949"><ele>88.0</ele><time>2026-04-13T18:14:27Z</time></trkpt><trkpt lat="44.51941341364471" lon="0.9326153920166833"><ele>88.66666666666666</ele><time>2026-04-13T18:14:28Z</time></trkpt><trkpt lat="44.51925357533133" lon="0.9327468703986409"><ele>89.33333333333333</ele><time>2026-04-13T18:14:29Z</time></trkpt><trkpt lat="44.51910130466975" lon="0.9328698470035423"><ele>90.0</ele><time>2026-04-13T18:14:30Z</time></trkpt><trkpt lat="44.51895290319889" lon="0.9329815650644785"><ele>90.0</ele><time>2026-04-13T18:14:31Z</time></trkpt><trkpt lat="44.518795454168156" lon="0.933084623934462"><ele>90.0</ele><time>2026-04-13T18:14:32Z</time></trkpt><trkpt lat="44.51863538100582" lon="0.9331683345971095"><ele>90.0</ele><time>2026-04-13T18:14:33Z</time></trkpt><trkpt lat="44.51847597068279" lon="0.9332308407599411"><ele>90.4</ele><time>2026-04-13T18:14:33.999Z</time></trkpt><trkpt lat="44.518353809467726" lon="0.933276446781821"><ele>90.8</ele><time>2026-04-13T18:14:34.999Z</time></trkpt><trkpt lat="44.51827862643858" lon="0.9333030568729855"><ele>91.19999999999999</ele><time>2026-04-13T18:14:35.999Z</time></trkpt><trkpt lat="44.51821527591769" lon="0.9333255438859078"><ele>91.6</ele><time>2026-04-13T18:14:36.999Z</time></trkpt><trkpt lat="44.51809960195594" lon="0.9333666037278463"><ele>92.0</ele><time>2026-04-13T18:14:38.999Z</time></trkpt><trkpt lat="44.51802407782734" lon="0.9333934119098132"><ele>92.0</ele><time>2026-04-13T18:14:39.999Z</time></trkpt><trkpt lat="44.51794492477363" lon="0.9334207940422742"><ele>92.0</ele><time>2026-04-13T18:14:40.999Z</time></trkpt><trkpt lat="44.51786189289842" lon="0.933465660733009"><ele>92.0</ele><time>2026-04-13T18:14:41.999Z</time></trkpt><trkpt lat="44.5177737378304" lon="0.9334805910343009"><ele>92.0</ele><time>2026-04-13T18:14:42.999Z</time></trkpt><trkpt lat="44.51767060743411" lon="0.9335008946319061"><ele>92.0</ele><time>2026-04-13T18:14:43.999Z</time></trkpt><trkpt lat="44.51755095643455" lon="0.9334723202563605"><ele>92.8</ele><time>2026-04-13T18:14:44.999Z</time></trkpt><trkpt lat="44.517425739615035" lon="0.9334465113223095"><ele>93.6</ele><time>2026-04-13T18:14:45.999Z</time></trkpt><trkpt lat="44.51731055680478" lon="0.9334171641423933"><ele>94.39999999999999</ele><time>2026-04-13T18:14:46.999Z</time></trkpt><trkpt lat="44.517209926224865" lon="0.9334176604855056"><ele>95.19999999999999</ele><time>2026-04-13T18:14:47.999Z</time></trkpt><trkpt lat="44.517128811554606" lon="0.9333883684978976"><ele>96.0</ele><time>2026-04-13T18:14:48.999Z</time></trkpt><trkpt lat="44.51706629469933" lon="0.9333611439125513"><ele>95.75</ele><time>2026-04-13T18:14:49.999Z</time></trkpt><trkpt lat="44.51702812504484" lon="0.9336176909193605"><ele>95.5</ele><time>2026-04-13T18:14:52.999Z</time></trkpt><trkpt lat="44.517036072422876" lon="0.9337203267669113"><ele>95.25</ele><time>2026-04-13T18:14:53.999Z</time></trkpt><trkpt lat="44.51703826070739" lon="0.9338388689915931"><ele>95.0</ele><time>2026-04-13T18:14:54.999Z</time></trkpt><trkpt lat="44.51703433141897" lon="0.9339902509384644"><ele>95.0</ele><time>2026-04-13T18:14:55.999Z</time></trkpt><trkpt lat="44.51702874647435" lon="0.9341732928387044"><ele>95.0</ele><time>2026-04-13T18:14:56.999Z</time></trkpt><trkpt lat="44.51702260350857" lon="0.9343802097324991"><ele>95.0</ele><time>2026-04-13T18:14:57.999Z</time></trkpt><trkpt lat="44.51701794561629" lon="0.9346054132917191"><ele>95.0</ele><time>2026-04-13T18:14:58.999Z</time></trkpt><trkpt lat="44.517013375424675" lon="0.9348388001586062"><ele>92.5</ele><time>2026-04-13T18:14:59.999Z</time></trkpt><trkpt lat="44.516998684321855" lon="0.9350618238038629"><ele>90.0</ele><time>2026-04-13T18:15:00.999Z</time></trkpt><trkpt lat="44.51697324905632" lon="0.9352651899297655"><ele>87.5</ele><time>2026-04-13T18:15:01.999Z</time></trkpt><trkpt lat="44.516975230101444" lon="0.9354218596704361"><ele>85.0</ele><time>2026-04-13T18:15:02.999Z</time></trkpt><trkpt lat="44.51697974488846" lon="0.935561494413835"><ele>85.0</ele><time>2026-04-13T18:15:03.999Z</time></trkpt><trkpt lat="44.516981157604896" lon="0.9356996951119464"><ele>85.0</ele><time>2026-04-13T18:15:04.999Z</time></trkpt><trkpt lat="44.5169618343189" lon="0.935818583325232"><ele>85.0</ele><time>2026-04-13T18:15:05.999Z</time></trkpt><trkpt lat="44.51690892103088" lon="0.9359163161570313"><ele>85.0</ele><time>2026-04-13T18:15:06.999Z</time></trkpt><trkpt lat="44.516818820604264" lon="0.9359323165150458"><ele>85.0</ele><time>2026-04-13T18:15:07.999Z</time></trkpt><trkpt lat="44.51674819242357" lon="0.9359789210304881"><ele>85.0</ele><time>2026-04-13T18:15:08.999Z</time></trkpt><trkpt lat="44.51669302293489" lon="0.9360350555171021"><ele>83.75</ele><time>2026-04-13T18:15:09.999Z</time></trkpt><trkpt lat="44.51661578270477" lon="0.9360542250992999"><ele>82.5</ele><time>2026-04-13T18:15:11.999Z</time></trkpt><trkpt lat="44.51668163516665" lon="0.9362876959433588"><ele>81.25</ele><time>2026-04-13T18:15:13.999Z</time></trkpt><trkpt lat="44.51668184988938" lon="0.9364207068795688"><ele>80.0</ele><time>2026-04-13T18:15:15.999Z</time></trkpt><trkpt lat="44.516663195185124" lon="0.9365740875804353"><ele>80.0</ele><time>2026-04-13T18:15:17.999Z</time></trkpt><trkpt lat="44.51659624745888" lon="0.9366069720684932"><ele>80.0</ele><time>2026-04-13T18:15:18.999Z</time></trkpt><trkpt lat="44.516499106191134" lon="0.9366060507056334"><ele>80.0</ele><time>2026-04-13T18:15:19.999Z</time></trkpt><trkpt lat="44.516381919032646" lon="0.9365617368764135"><ele>80.0</ele><time>2026-04-13T18:15:20.999Z</time></trkpt><trkpt lat="44.51625658216595" lon="0.9365270006620545"><ele>80.0</ele><time>2026-04-13T18:15:21.999Z</time></trkpt><trkpt lat="44.51611058649373" lon="0.9365002013161497"><ele>80.0</ele><time>2026-04-13T18:15:22.999Z</time></trkpt><trkpt lat="44.51597460147287" lon="0.936498851657704"><ele>80.0</ele><time>2026-04-13T18:15:23.999Z</time></trkpt><trkpt lat="44.51582618092908" lon="0.9365185010841814"><ele>80.0</ele><time>2026-04-13T18:15:24.999Z</time></trkpt><trkpt lat="44.51566640393312" lon="0.9365531858131948"><ele>80.0</ele><time>2026-04-13T18:15:25.999Z</time></trkpt><trkpt lat="44.51550729420892" lon="0.9365785953460782"><ele>80.66666666666667</ele><time>2026-04-13T18:15:26.999Z</time></trkpt><trkpt lat="44.51535027540107" lon="0.936610925752064"><ele>81.33333333333333</ele><time>2026-04-13T18:15:27.999Z</time></trkpt><trkpt lat="44.51518546046777" lon="0.9366577644952533"><ele>82.0</ele><time>2026-04-13T18:15:28.999Z</time></trkpt><trkpt lat="44.51500196813583" lon="0.9366982692356138"><ele>80.66666666666666</ele><time>2026-04-13T18:15:29.999Z</time></trkpt><trkpt lat="44.51483018372527" lon="0.9367366814878273"><ele>79.33333333333333</ele><time>2026-04-13T18:15:30.999Z</time></trkpt><trkpt lat="44.514687089909756" lon="0.9367733121559163"><ele>78.0</ele><time>2026-04-13T18:15:31.999Z</time></trkpt><trkpt lat="44.51453621245953" lon="0.9367992732159168"><ele>78.0</ele><time>2026-04-13T18:15:32.999Z</time></trkpt><trkpt lat="44.514398294854175" lon="0.9368417695692305"><ele>78.0</ele><time>2026-04-13T18:15:33.999Z</time></trkpt><trkpt lat="44.5142715227068" lon="0.9368735945624542"><ele>78.0</ele><time>2026-04-13T18:15:34.999Z</time></trkpt><trkpt lat="44.514151804477386" lon="0.9368935138501928"><ele>78.0</ele><time>2026-04-13T18:15:35.999Z</time></trkpt><trkpt lat="44.51400873987146" lon="0.9369141370430606"><ele>78.0</ele><time>2026-04-13T18:15:36.999Z</time></trkpt><trkpt lat="44.5138751807897" lon="0.9369750657982114"><ele>78.0</ele><time>2026-04-13T18:15:37.999Z</time></trkpt><trkpt lat="44.51375796910474" lon="0.9370257166805694"><ele>78.0</ele><time>2026-04-13T18:15:38.999Z</time></trkpt><trkpt lat="44.51362588629671" lon="0.9370715296998483"><ele>78.0</ele><time>2026-04-13T18:15:39.999Z</time></trkpt><trkpt lat="44.513490040465086" lon="0.9371249805565156"><ele>78.33333333333333</ele><time>2026-04-13T18:15:40.999Z</time></trkpt><trkpt lat="44.51334691190179" lon="0.9371826416420277"><ele>78.66666666666666</ele><time>2026-04-13T18:15:41.999Z</time></trkpt><trkpt lat="44.513197486535226" lon="0.9372677657535688"><ele>79.0</ele><time>2026-04-13T18:15:42.999Z</time></trkpt><trkpt lat="44.51304504566546" lon="0.9373524869740104"><ele>79.66666666666666</ele><time>2026-04-13T18:15:43.999Z</time></trkpt><trkpt lat="44.51287310122712" lon="0.9374313996515824"><ele>80.33333333333333</ele><time>2026-04-13T18:15:44.999Z</time></trkpt><trkpt lat="44.51270839671678" lon="0.9375106362751244"><ele>81.0</ele><time>2026-04-13T18:15:45.999Z</time></trkpt><trkpt lat="44.51253012190528" lon="0.9375928459207931"><ele>81.0</ele><time>2026-04-13T18:15:46.999Z</time></trkpt><trkpt lat="44.51238197634191" lon="0.9376884726827832"><ele>81.0</ele><time>2026-04-13T18:15:47.999Z</time></trkpt><trkpt lat="44.51220594050889" lon="0.9377555476383717"><ele>81.0</ele><time>2026-04-13T18:15:48.999Z</time></trkpt><trkpt lat="44.51202788808452" lon="0.9378401364178651"><ele>81.0</ele><time>2026-04-13T18:15:49.999Z</time></trkpt><trkpt lat="44.511880161068994" lon="0.9379262027830807"><ele>81.0</ele><time>2026-04-13T18:15:50.999Z</time></trkpt><trkpt lat="44.51174341541326" lon="0.9379911978706758"><ele>81.0</ele><time>2026-04-13T18:15:51.999Z</time></trkpt><trkpt lat="44.5116349570338" lon="0.9380868241934538"><ele>81.0</ele><time>2026-04-13T18:15:52.999Z</time></trkpt><trkpt lat="44.51154014230784" lon="0.9381914470145196"><ele>81.0</ele><time>2026-04-13T18:15:53.999Z</time></trkpt><trkpt lat="44.511469747821664" lon="0.938288924743447"><ele>81.0</ele><time>2026-04-13T18:15:54.999Z</time></trkpt><trkpt lat="44.511359626912316" lon="0.9383715792095588"><ele>81.0</ele><time>2026-04-13T18:15:55.999Z</time></trkpt><trkpt lat="44.51122332946019" lon="0.9384048248071588"><ele>81.0</ele><time>2026-04-13T18:15:56.999Z</time></trkpt><trkpt lat="44.51108493899127" lon="0.9384406598227055"><ele>80.75</ele><time>2026-04-13T18:15:57.999Z</time></trkpt><trkpt lat="44.51095684751851" lon="0.9384764047091011"><ele>80.5</ele><time>2026-04-13T18:15:58.999Z</time></trkpt><trkpt lat="44.510810041360706" lon="0.9385377506155888"><ele>80.25</ele><time>2026-04-13T18:15:59.999Z</time></trkpt><trkpt lat="44.510674910796865" lon="0.9386251105750489"><ele>80.0</ele><time>2026-04-13T18:16:00.999Z</time></trkpt><trkpt lat="44.51052825887133" lon="0.9387306646607954"><ele>79.66666666666667</ele><time>2026-04-13T18:16:01.999Z</time></trkpt><trkpt lat="44.5103929205956" lon="0.938833523416753"><ele>79.33333333333333</ele><time>2026-04-13T18:16:02.999Z</time></trkpt><trkpt lat="44.51025471549914" lon="0.9389392320976595"><ele>79.0</ele><time>2026-04-13T18:16:03.999Z</time></trkpt><trkpt lat="44.51010151235516" lon="0.9390555388017844"><ele>79.0</ele><time>2026-04-13T18:16:04.999Z</time></trkpt><trkpt lat="44.50996311000406" lon="0.9391553619427252"><ele>79.0</ele><time>2026-04-13T18:16:05.999Z</time></trkpt><trkpt lat="44.509824209132276" lon="0.9392493383792249"><ele>79.0</ele><time>2026-04-13T18:16:07Z</time></trkpt><trkpt lat="44.5096760689838" lon="0.9393517200890206"><ele>79.0</ele><time>2026-04-13T18:16:08Z</time></trkpt><trkpt lat="44.50953952564564" lon="0.9394614154439752"><ele>79.0</ele><time>2026-04-13T18:16:09Z</time></trkpt><trkpt lat="44.50940769388234" lon="0.9395742483252295"><ele>79.0</ele><time>2026-04-13T18:16:10Z</time></trkpt><trkpt lat="44.50927489711051" lon="0.9396776324800398"><ele>79.0</ele><time>2026-04-13T18:16:11Z</time></trkpt><trkpt lat="44.50914742708263" lon="0.9397892428767111"><ele>79.0</ele><time>2026-04-13T18:16:12Z</time></trkpt><trkpt lat="44.50899764627256" lon="0.9398754558596282"><ele>79.0</ele><time>2026-04-13T18:16:13Z</time></trkpt><trkpt lat="44.508859557417274" lon="0.9399939253064674"><ele>79.0</ele><time>2026-04-13T18:16:14Z</time></trkpt><trkpt lat="44.50871754593342" lon="0.9400953620846636"><ele>79.0</ele><time>2026-04-13T18:16:15Z</time></trkpt><trkpt lat="44.5085810945125" lon="0.9402053402158113"><ele>79.0</ele><time>2026-04-13T18:16:16Z</time></trkpt><trkpt lat="44.50843395444834" lon="0.9402937477450458"><ele>79.0</ele><time>2026-04-13T18:16:17Z</time></trkpt><trkpt lat="44.508298006694275" lon="0.9404287922994428"><ele>79.0</ele><time>2026-04-13T18:16:18Z</time></trkpt><trkpt lat="44.50814211984406" lon="0.9405469268932527"><ele>79.0</ele><time>2026-04-13T18:16:19Z</time></trkpt><trkpt lat="44.50798234264521" lon="0.9406640324828307"><ele>79.66666666666666</ele><time>2026-04-13T18:16:20Z</time></trkpt><trkpt lat="44.50783300745891" lon="0.9407944670920719"><ele>80.33333333333333</ele><time>2026-04-13T18:16:21Z</time></trkpt><trkpt lat="44.50767549321448" lon="0.9409031697931036"><ele>81.0</ele><time>2026-04-13T18:16:22Z</time></trkpt><trkpt lat="44.50754988302202" lon="0.9409905758150454"><ele>81.0</ele><time>2026-04-13T18:16:23Z</time></trkpt><trkpt lat="44.50744757335985" lon="0.941059793149602"><ele>81.0</ele><time>2026-04-13T18:16:24Z</time></trkpt><trkpt lat="44.50735645315123" lon="0.9411312892473368"><ele>81.0</ele><time>2026-04-13T18:16:25Z</time></trkpt><trkpt lat="44.50727763485892" lon="0.9411969618760874"><ele>81.0</ele><time>2026-04-13T18:16:26Z</time></trkpt><trkpt lat="44.50722202503518" lon="0.9412387876841708"><ele>81.0</ele><time>2026-04-13T18:16:27Z</time></trkpt><trkpt lat="44.50716798612717" lon="0.9413095900692459"><ele>81.0</ele><time>2026-04-13T18:16:29Z</time></trkpt><trkpt lat="44.50714097924576" lon="0.9414016122336152"><ele>80.8</ele><time>2026-04-13T18:16:31Z</time></trkpt><trkpt lat="44.507038748749636" lon="0.9414312231999611"><ele>80.6</ele><time>2026-04-13T18:16:33Z</time></trkpt><trkpt lat="44.50692763289367" lon="0.9414715228087518"><ele>80.4</ele><time>2026-04-13T18:16:35Z</time></trkpt><trkpt lat="44.50682709296082" lon="0.9414942034317416"><ele>80.2</ele><time>2026-04-13T18:16:37Z</time></trkpt><trkpt lat="44.506739452977236" lon="0.9415227131572484"><ele>80.0</ele><time>2026-04-13T18:16:39Z</time></trkpt><trkpt lat="44.5066316243078" lon="0.9415173287996481"><ele>80.0</ele><time>2026-04-13T18:16:41Z</time></trkpt><trkpt lat="44.506514723302196" lon="0.9415361928609975"><ele>80.0</ele><time>2026-04-13T18:16:43Z</time></trkpt><trkpt lat="44.5063859164653" lon="0.9415540872226572"><ele>80.0</ele><time>2026-04-13T18:16:45Z</time></trkpt><trkpt lat="44.50631121797537" lon="0.9415567943828426"><ele>80.0</ele><time>2026-04-13T18:16:46Z</time></trkpt><trkpt lat="44.506230768110456" lon="0.9415574158020995"><ele>80.0</ele><time>2026-04-13T18:16:47Z</time></trkpt><trkpt lat="44.50612475446344" lon="0.9415666615701813"><ele>79.5</ele><time>2026-04-13T18:16:48Z</time></trkpt><trkpt lat="44.506002190136485" lon="0.9415930229477726"><ele>79.0</ele><time>2026-04-13T18:16:49Z</time></trkpt><trkpt lat="44.505861716028825" lon="0.9416490913638969"><ele>78.5</ele><time>2026-04-13T18:16:50Z</time></trkpt><trkpt lat="44.50569621841054" lon="0.9416994896659133"><ele>78.0</ele><time>2026-04-13T18:16:51Z</time></trkpt><trkpt lat="44.50554864481819" lon="0.9416734978344127"><ele>77.66666666666667</ele><time>2026-04-13T18:16:52Z</time></trkpt><trkpt lat="44.505384180007326" lon="0.9416865238827503"><ele>77.33333333333334</ele><time>2026-04-13T18:16:53Z</time></trkpt><trkpt lat="44.505206690017204" lon="0.9417135960865219"><ele>77.0</ele><time>2026-04-13T18:16:54Z</time></trkpt><trkpt lat="44.50503329324076" lon="0.9417222732660954"><ele>76.66666666666667</ele><time>2026-04-13T18:16:55Z</time></trkpt><trkpt lat="44.50486441511417" lon="0.9417238634349989"><ele>76.33333333333333</ele><time>2026-04-13T18:16:56Z</time></trkpt><trkpt lat="44.50467547406524" lon="0.9417430241030772"><ele>76.0</ele><time>2026-04-13T18:16:57Z</time></trkpt><trkpt lat="44.50447761083089" lon="0.9417578409396649"><ele>75.66666666666666</ele><time>2026-04-13T18:16:58Z</time></trkpt><trkpt lat="44.50430163052387" lon="0.9417606956801188"><ele>75.33333333333333</ele><time>2026-04-13T18:16:59Z</time></trkpt><trkpt lat="44.50410709312386" lon="0.9417813696128308"><ele>75.0</ele><time>2026-04-13T18:17:00Z</time></trkpt><trkpt lat="44.50391113907934" lon="0.9417948457747648"><ele>75.0</ele><time>2026-04-13T18:17:01Z</time></trkpt><trkpt lat="44.50371863084042" lon="0.9418245518691307"><ele>75.0</ele><time>2026-04-13T18:17:02Z</time></trkpt><trkpt lat="44.503524049799324" lon="0.9418378789261852"><ele>75.0</ele><time>2026-04-13T18:17:02.999Z</time></trkpt><trkpt lat="44.5033254653593" lon="0.9418604913559664"><ele>75.0</ele><time>2026-04-13T18:17:03.999Z</time></trkpt><trkpt lat="44.50313126221472" lon="0.9418722651794535"><ele>75.0</ele><time>2026-04-13T18:17:04.999Z</time></trkpt><trkpt lat="44.50294827295411" lon="0.941871265640797"><ele>75.0</ele><time>2026-04-13T18:17:05.999Z</time></trkpt><trkpt lat="44.50276052442198" lon="0.9418789164803366"><ele>75.33333333333333</ele><time>2026-04-13T18:17:06.999Z</time></trkpt><trkpt lat="44.50260714207527" lon="0.9419033541872267"><ele>75.66666666666666</ele><time>2026-04-13T18:17:07.999Z</time></trkpt><trkpt lat="44.50245848585748" lon="0.9419196780305826"><ele>76.0</ele><time>2026-04-13T18:17:08.999Z</time></trkpt><trkpt lat="44.50229085737427" lon="0.9419214642285453"><ele>76.0</ele><time>2026-04-13T18:17:09.999Z</time></trkpt><trkpt lat="44.502129240771474" lon="0.9419253662621705"><ele>76.0</ele><time>2026-04-13T18:17:10.999Z</time></trkpt><trkpt lat="44.501965563696295" lon="0.9419466589304688"><ele>76.0</ele><time>2026-04-13T18:17:11.999Z</time></trkpt><trkpt lat="44.50181287983804" lon="0.9419873147871184"><ele>76.75</ele><time>2026-04-13T18:17:12.999Z</time></trkpt><trkpt lat="44.50165102344407" lon="0.9420336320421167"><ele>77.5</ele><time>2026-04-13T18:17:13.999Z</time></trkpt><trkpt lat="44.50151493079551" lon="0.9420559753023812"><ele>78.25</ele><time>2026-04-13T18:17:14.999Z</time></trkpt><trkpt lat="44.50139379237535" lon="0.9420913860361566"><ele>79.0</ele><time>2026-04-13T18:17:15.999Z</time></trkpt><trkpt lat="44.5012779134225" lon="0.9420923493733615"><ele>78.5</ele><time>2026-04-13T18:17:16.999Z</time></trkpt><trkpt lat="44.501179012750754" lon="0.9420927039590652"><ele>78.0</ele><time>2026-04-13T18:17:17.999Z</time></trkpt><trkpt lat="44.5010658483378" lon="0.9421148385838097"><ele>77.5</ele><time>2026-04-13T18:17:18.999Z</time></trkpt><trkpt lat="44.500930482322765" lon="0.9421673303190711"><ele>77.0</ele><time>2026-04-13T18:17:19.999Z</time></trkpt><trkpt lat="44.500799491201875" lon="0.9421928354609961"><ele>77.0</ele><time>2026-04-13T18:17:20.999Z</time></trkpt><trkpt lat="44.50065443547669" lon="0.9421903535981285"><ele>77.0</ele><time>2026-04-13T18:17:21.999Z</time></trkpt><trkpt lat="44.50052466221755" lon="0.9421816357958075"><ele>77.0</ele><time>2026-04-13T18:17:22.999Z</time></trkpt><trkpt lat="44.50039744173869" lon="0.9421678007613152"><ele>77.0</ele><time>2026-04-13T18:17:23.999Z</time></trkpt><trkpt lat="44.50027977932426" lon="0.9421514422973429"><ele>76.5</ele><time>2026-04-13T18:17:24.999Z</time></trkpt><trkpt lat="44.50017035642253" lon="0.942116401325646"><ele>76.0</ele><time>2026-04-13T18:17:25.999Z</time></trkpt><trkpt lat="44.50005817820766" lon="0.9420704609023255"><ele>75.5</ele><time>2026-04-13T18:17:26.999Z</time></trkpt><trkpt lat="44.49992246095809" lon="0.9420392775519396"><ele>75.0</ele><time>2026-04-13T18:17:27.999Z</time></trkpt><trkpt lat="44.4997799878174" lon="0.9420702520362265"><ele>75.0</ele><time>2026-04-13T18:17:28.999Z</time></trkpt><trkpt lat="44.49963269279081" lon="0.9420922242474769"><ele>75.0</ele><time>2026-04-13T18:17:29.999Z</time></trkpt><trkpt lat="44.499460015461075" lon="0.9421230265663225"><ele>75.0</ele><time>2026-04-13T18:17:30.999Z</time></trkpt><trkpt lat="44.499284597251176" lon="0.9421511620624077"><ele>74.5</ele><time>2026-04-13T18:17:31.999Z</time></trkpt><trkpt lat="44.4991403548065" lon="0.942195328500113"><ele>74.0</ele><time>2026-04-13T18:17:32.999Z</time></trkpt><trkpt lat="44.49901979935195" lon="0.9421559027112435"><ele>73.5</ele><time>2026-04-13T18:17:33.999Z</time></trkpt><trkpt lat="44.498894310688215" lon="0.9421574935362026"><ele>73.0</ele><time>2026-04-13T18:17:34.999Z</time></trkpt><trkpt lat="44.49875822100971" lon="0.9421595632736298"><ele>73.0</ele><time>2026-04-13T18:17:35.999Z</time></trkpt><trkpt lat="44.49864463449686" lon="0.9421709499758205"><ele>73.0</ele><time>2026-04-13T18:17:36.999Z</time></trkpt><trkpt lat="44.49850437523035" lon="0.9421846978033706"><ele>73.0</ele><time>2026-04-13T18:17:37.999Z</time></trkpt><trkpt lat="44.4983991889919" lon="0.9421894062898453"><ele>73.0</ele><time>2026-04-13T18:17:38.999Z</time></trkpt><trkpt lat="44.49826467392721" lon="0.9422183525806412"><ele>73.0</ele><time>2026-04-13T18:17:39.999Z</time></trkpt><trkpt lat="44.498136837636984" lon="0.9422681733816083"><ele>73.0</ele><time>2026-04-13T18:17:40.999Z</time></trkpt><trkpt lat="44.49803400772815" lon="0.9423301531666955"><ele>73.0</ele><time>2026-04-13T18:17:41.999Z</time></trkpt><trkpt lat="44.497955378637286" lon="0.9423631007056459"><ele>73.0</ele><time>2026-04-13T18:17:42.999Z</time></trkpt><trkpt lat="44.49786857257518" lon="0.942302272976549"><ele>73.0</ele><time>2026-04-13T18:17:44.999Z</time></trkpt><trkpt lat="44.49783938789285" lon="0.9422015168577951"><ele>73.2</ele><time>2026-04-13T18:17:45.999Z</time></trkpt><trkpt lat="44.49783323994029" lon="0.9420749082734072"><ele>73.4</ele><time>2026-04-13T18:17:46.999Z</time></trkpt><trkpt lat="44.49782480744883" lon="0.9419327327787126"><ele>73.60000000000001</ele><time>2026-04-13T18:17:47.999Z</time></trkpt><trkpt lat="44.49780698766291" lon="0.9417848061366672"><ele>73.8</ele><time>2026-04-13T18:17:48.999Z</time></trkpt><trkpt lat="44.497794511807726" lon="0.9416108944656773"><ele>74.0</ele><time>2026-04-13T18:17:49.999Z</time></trkpt><trkpt lat="44.497778980395644" lon="0.9414342312862254"><ele>76.0</ele><time>2026-04-13T18:17:50.999Z</time></trkpt><trkpt lat="44.49776472274154" lon="0.9412564186153806"><ele>78.0</ele><time>2026-04-13T18:17:51.999Z</time></trkpt><trkpt lat="44.4977397166284" lon="0.9410685712767473"><ele>80.0</ele><time>2026-04-13T18:17:52.999Z</time></trkpt><trkpt lat="44.497688715569275" lon="0.9408953465883322"><ele>82.0</ele><time>2026-04-13T18:17:53.999Z</time></trkpt><trkpt lat="44.49759478714651" lon="0.9407403055581548"><ele>83.33333333333333</ele><time>2026-04-13T18:17:54.999Z</time></trkpt><trkpt lat="44.497494622566194" lon="0.9405711012976977"><ele>84.66666666666667</ele><time>2026-04-13T18:17:55.999Z</time></trkpt><trkpt lat="44.497384286371656" lon="0.9404091550674808"><ele>86.0</ele><time>2026-04-13T18:17:56.999Z</time></trkpt><trkpt lat="44.49728228185659" lon="0.9402378799438372"><ele>86.0</ele><time>2026-04-13T18:17:57.999Z</time></trkpt><trkpt lat="44.49717289587381" lon="0.9400835282759087"><ele>86.0</ele><time>2026-04-13T18:17:58.999Z</time></trkpt><trkpt lat="44.49710099016657" lon="0.9399345114068653"><ele>86.0</ele><time>2026-04-13T18:17:59.999Z</time></trkpt><trkpt lat="44.49704956734922" lon="0.9398494125346677"><ele>86.0</ele><time>2026-04-13T18:18:00.999Z</time></trkpt><trkpt lat="44.49699794432513" lon="0.939778927876587"><ele>86.0</ele><time>2026-04-13T18:18:08.999Z</time></trkpt><trkpt lat="44.49687107795137" lon="0.9398917477002505"><ele>86.6</ele><time>2026-04-13T18:18:09.999Z</time></trkpt><trkpt lat="44.49678631999374" lon="0.9399445751527922"><ele>87.19999999999999</ele><time>2026-04-13T18:18:10.999Z</time></trkpt><trkpt lat="44.496682274284865" lon="0.9399928586322164"><ele>87.80000000000001</ele><time>2026-04-13T18:18:11.999Z</time></trkpt><trkpt lat="44.496580504719766" lon="0.9400523753689566"><ele>88.4</ele><time>2026-04-13T18:18:13Z</time></trkpt><trkpt lat="44.496467093469924" lon="0.9401401770902141"><ele>89.0</ele><time>2026-04-13T18:18:14Z</time></trkpt><trkpt lat="44.49635955917326" lon="0.9402289459651424"><ele>91.75</ele><time>2026-04-13T18:18:15Z</time></trkpt><trkpt lat="44.496235349400614" lon="0.9402775732693945"><ele>94.5</ele><time>2026-04-13T18:18:16Z</time></trkpt><trkpt lat="44.49610807268078" lon="0.9403603588778958"><ele>97.25</ele><time>2026-04-13T18:18:17Z</time></trkpt><trkpt lat="44.495977568591364" lon="0.9404395717039972"><ele>100.0</ele><time>2026-04-13T18:18:18Z</time></trkpt><trkpt lat="44.49584858524034" lon="0.9405138929740139"><ele>100.0</ele><time>2026-04-13T18:18:19Z</time></trkpt><trkpt lat="44.495719754925105" lon="0.9405909617317182"><ele>100.0</ele><time>2026-04-13T18:18:20Z</time></trkpt><trkpt lat="44.49560233001621" lon="0.9406594811600578"><ele>100.0</ele><time>2026-04-13T18:18:21Z</time></trkpt><trkpt lat="44.495489373279064" lon="0.9407175127004813"><ele>100.0</ele><time>2026-04-13T18:18:22Z</time></trkpt><trkpt lat="44.495396326221076" lon="0.940751213735296"><ele>101.66666666666667</ele><time>2026-04-13T18:18:23Z</time></trkpt><trkpt lat="44.49531179523768" lon="0.940751639159838"><ele>103.33333333333334</ele><time>2026-04-13T18:18:24Z</time></trkpt><trkpt lat="44.49523539413119" lon="0.9407399884824929"><ele>105.0</ele><time>2026-04-13T18:18:25Z</time></trkpt><trkpt lat="44.49516581225349" lon="0.9406947453243821"><ele>106.66666666666666</ele><time>2026-04-13T18:18:26Z</time></trkpt><trkpt lat="44.49509371330529" lon="0.940635236304709"><ele>108.33333333333333</ele><time>2026-04-13T18:18:27Z</time></trkpt><trkpt lat="44.495013059620206" lon="0.9405732107379295"><ele>110.0</ele><time>2026-04-13T18:18:28Z</time></trkpt><trkpt lat="44.49495216998226" lon="0.9405296142917751"><ele>110.0</ele><time>2026-04-13T18:18:29Z</time></trkpt><trkpt lat="44.49490413399542" lon="0.9404649872665591"><ele>110.0</ele><time>2026-04-13T18:18:30Z</time></trkpt><trkpt lat="44.494990806139526" lon="0.9402985532432925"><ele>110.0</ele><time>2026-04-13T18:18:31Z</time></trkpt><trkpt lat="44.49499830783734" lon="0.9401767510524258"><ele>110.0</ele><time>2026-04-13T18:18:32Z</time></trkpt><trkpt lat="44.4949739216902" lon="0.940082853265496"><ele>110.0</ele><time>2026-04-13T18:18:33Z</time></trkpt><trkpt lat="44.49496902442121" lon="0.9399381331534689"><ele>110.6</ele><time>2026-04-13T18:18:34Z</time></trkpt><trkpt lat="44.49497748832227" lon="0.9398112704971245"><ele>111.2</ele><time>2026-04-13T18:18:35Z</time></trkpt><trkpt lat="44.49499795961861" lon="0.9396758735994922"><ele>111.80000000000001</ele><time>2026-04-13T18:18:36Z</time></trkpt><trkpt lat="44.4950676775339" lon="0.939569912953965"><ele>112.4</ele><time>2026-04-13T18:18:37Z</time></trkpt><trkpt lat="44.49511894794745" lon="0.9394405046111572"><ele>113.0</ele><time>2026-04-13T18:18:38Z</time></trkpt><trkpt lat="44.49516942351604" lon="0.9393154774430338"><ele>113.75</ele><time>2026-04-13T18:18:39Z</time></trkpt><trkpt lat="44.49520519779388" lon="0.9391778616235996"><ele>114.5</ele><time>2026-04-13T18:18:40Z</time></trkpt><trkpt lat="44.495225836966355" lon="0.9390292041618326"><ele>115.25</ele><time>2026-04-13T18:18:41Z</time></trkpt><trkpt lat="44.49521295651393" lon="0.9388603434352293"><ele>116.0</ele><time>2026-04-13T18:18:42Z</time></trkpt><trkpt lat="44.495193101207526" lon="0.9386921659604698"><ele>116.0</ele><time>2026-04-13T18:18:43Z</time></trkpt><trkpt lat="44.49516307157706" lon="0.9385028772293326"><ele>116.0</ele><time>2026-04-13T18:18:44Z</time></trkpt><trkpt lat="44.49516042080837" lon="0.9383071957550184"><ele>116.0</ele><time>2026-04-13T18:18:45Z</time></trkpt><trkpt lat="44.49518856448237" lon="0.9381571673190063"><ele>116.0</ele><time>2026-04-13T18:18:46Z</time></trkpt><trkpt lat="44.49524106179382" lon="0.9380474662653864"><ele>116.5</ele><time>2026-04-13T18:18:47Z</time></trkpt><trkpt lat="44.495312378222536" lon="0.9379436915895711"><ele>117.0</ele><time>2026-04-13T18:18:48Z</time></trkpt><trkpt lat="44.495414343145725" lon="0.9378808664334859"><ele>117.5</ele><time>2026-04-13T18:18:49Z</time></trkpt><trkpt lat="44.49550298736618" lon="0.9377738900180121"><ele>118.0</ele><time>2026-04-13T18:18:50Z</time></trkpt><trkpt lat="44.495621734893206" lon="0.9377009016236574"><ele>118.0</ele><time>2026-04-13T18:18:51Z</time></trkpt><trkpt lat="44.49574945674408" lon="0.9375897150144116"><ele>118.0</ele><time>2026-04-13T18:18:52Z</time></trkpt><trkpt lat="44.49587487045493" lon="0.9374756332141774"><ele>118.0</ele><time>2026-04-13T18:18:53Z</time></trkpt><trkpt lat="44.495999894803354" lon="0.9373575258826845"><ele>119.33333333333334</ele><time>2026-04-13T18:18:54Z</time></trkpt><trkpt lat="44.49614227497966" lon="0.9372439352848795"><ele>120.66666666666666</ele><time>2026-04-13T18:18:55Z</time></trkpt><trkpt lat="44.49628033868833" lon="0.9371170105852232"><ele>122.0</ele><time>2026-04-13T18:18:56Z</time></trkpt><trkpt lat="44.49642027974533" lon="0.936982314591233"><ele>122.33333333333333</ele><time>2026-04-13T18:18:57Z</time></trkpt><trkpt lat="44.496555535771975" lon="0.936836078812696"><ele>122.66666666666666</ele><time>2026-04-13T18:18:58Z</time></trkpt><trkpt lat="44.49669813440297" lon="0.9366878930239948"><ele>123.0</ele><time>2026-04-13T18:18:59Z</time></trkpt><trkpt lat="44.49683107243699" lon="0.9365271060067875"><ele>123.66666666666666</ele><time>2026-04-13T18:19:00Z</time></trkpt><trkpt lat="44.496957394758304" lon="0.9363578712977566"><ele>124.33333333333333</ele><time>2026-04-13T18:19:01Z</time></trkpt><trkpt lat="44.497077077070294" lon="0.9361668029323974"><ele>125.0</ele><time>2026-04-13T18:19:02Z</time></trkpt><trkpt lat="44.49719450675404" lon="0.9359605213609073"><ele>124.66666666666666</ele><time>2026-04-13T18:19:03Z</time></trkpt><trkpt lat="44.497306632676114" lon="0.9357486907810233"><ele>124.33333333333334</ele><time>2026-04-13T18:19:04Z</time></trkpt><trkpt lat="44.49741121396863" lon="0.9355596920035647"><ele>124.0</ele><time>2026-04-13T18:19:05Z</time></trkpt><trkpt lat="44.497525811427785" lon="0.9353668401816161"><ele>124.0</ele><time>2026-04-13T18:19:06Z</time></trkpt><trkpt lat="44.497643010655025" lon="0.9351716921506888"><ele>124.0</ele><time>2026-04-13T18:19:07Z</time></trkpt><trkpt lat="44.49777362192528" lon="0.9349668253479073"><ele>124.0</ele><time>2026-04-13T18:19:08Z</time></trkpt><trkpt lat="44.497881198129384" lon="0.9347712844183805"><ele>124.33333333333334</ele><time>2026-04-13T18:19:09Z</time></trkpt><trkpt lat="44.49798454122133" lon="0.9345829249485134"><ele>124.66666666666666</ele><time>2026-04-13T18:19:10Z</time></trkpt><trkpt lat="44.498077629992366" lon="0.9343865684417428"><ele>125.0</ele><time>2026-04-13T18:19:11Z</time></trkpt><trkpt lat="44.4981775801941" lon="0.9341729927090237"><ele>125.33333333333333</ele><time>2026-04-13T18:19:12Z</time></trkpt><trkpt lat="44.49826570035303" lon="0.9339459845130829"><ele>125.66666666666666</ele><time>2026-04-13T18:19:13Z</time></trkpt><trkpt lat="44.49834116400749" lon="0.9337206754681093"><ele>126.0</ele><time>2026-04-13T18:19:14Z</time></trkpt><trkpt lat="44.498424450071994" lon="0.9334836773501969"><ele>126.33333333333334</ele><time>2026-04-13T18:19:15Z</time></trkpt><trkpt lat="44.4985054182482" lon="0.9332642580283879"><ele>126.66666666666667</ele><time>2026-04-13T18:19:16Z</time></trkpt><trkpt lat="44.49862697947976" lon="0.9330987730104608"><ele>127.0</ele><time>2026-04-13T18:19:17Z</time></trkpt><trkpt lat="44.498765466180274" lon="0.9329389947165054"><ele>125.66666666666667</ele><time>2026-04-13T18:19:17.999Z</time></trkpt><trkpt lat="44.49890714288487" lon="0.9327798792395408"><ele>124.33333333333334</ele><time>2026-04-13T18:19:18.999Z</time></trkpt><trkpt lat="44.49905680547126" lon="0.9326117949318468"><ele>123.0</ele><time>2026-04-13T18:19:19.999Z</time></trkpt><trkpt lat="44.499201985405605" lon="0.9324493462051328"><ele>123.0</ele><time>2026-04-13T18:19:20.999Z</time></trkpt><trkpt lat="44.499345016433445" lon="0.9322895750038575"><ele>123.0</ele><time>2026-04-13T18:19:21.999Z</time></trkpt><trkpt lat="44.499492572857534" lon="0.932124250047368"><ele>123.0</ele><time>2026-04-13T18:19:22.999Z</time></trkpt><trkpt lat="44.499637311657466" lon="0.9319593650082276"><ele>123.0</ele><time>2026-04-13T18:19:23.999Z</time></trkpt><trkpt lat="44.49978322222868" lon="0.9317931451164774"><ele>123.0</ele><time>2026-04-13T18:19:24.999Z</time></trkpt><trkpt lat="44.49992308313754" lon="0.9316351923539453"><ele>123.0</ele><time>2026-04-13T18:19:25.999Z</time></trkpt><trkpt lat="44.5000718045073" lon="0.9314684936659545"><ele>124.0</ele><time>2026-04-13T18:19:26.999Z</time></trkpt><trkpt lat="44.500216184189725" lon="0.9313066614927721"><ele>125.0</ele><time>2026-04-13T18:19:27.999Z</time></trkpt><trkpt lat="44.50036577274466" lon="0.931136672130291"><ele>126.0</ele><time>2026-04-13T18:19:28.999Z</time></trkpt><trkpt lat="44.50049903349576" lon="0.9309776797082491"><ele>127.66666666666666</ele><time>2026-04-13T18:19:29.999Z</time></trkpt><trkpt lat="44.50060231188938" lon="0.9307988628766491"><ele>129.33333333333331</ele><time>2026-04-13T18:19:30.999Z</time></trkpt><trkpt lat="44.50071870436238" lon="0.9306274597297536"><ele>131.0</ele><time>2026-04-13T18:19:31.999Z</time></trkpt><trkpt lat="44.50081238597684" lon="0.9304111409996331"><ele>131.0</ele><time>2026-04-13T18:19:32.999Z</time></trkpt><trkpt lat="44.500896711041705" lon="0.9302005643250907"><ele>131.0</ele><time>2026-04-13T18:19:33.999Z</time></trkpt><trkpt lat="44.50097585580369" lon="0.9299964241082335"><ele>131.0</ele><time>2026-04-13T18:19:34.999Z</time></trkpt><trkpt lat="44.50105600022948" lon="0.9297903162741703"><ele>132.66666666666666</ele><time>2026-04-13T18:19:35.999Z</time></trkpt><trkpt lat="44.501142348868754" lon="0.9295733870772355"><ele>134.33333333333334</ele><time>2026-04-13T18:19:36.999Z</time></trkpt><trkpt lat="44.501227821954544" lon="0.9293552018345027"><ele>136.0</ele><time>2026-04-13T18:19:37.999Z</time></trkpt><trkpt lat="44.50130884532751" lon="0.9291401197834894"><ele>136.66666666666669</ele><time>2026-04-13T18:19:38.999Z</time></trkpt><trkpt lat="44.501375961730325" lon="0.9289117660574817"><ele>137.33333333333334</ele><time>2026-04-13T18:19:39.999Z</time></trkpt><trkpt lat="44.5014429891995" lon="0.9286835940948865"><ele>138.0</ele><time>2026-04-13T18:19:40.999Z</time></trkpt><trkpt lat="44.50149991802104" lon="0.9284516520119014"><ele>139.0</ele><time>2026-04-13T18:19:41.999Z</time></trkpt><trkpt lat="44.50155346306921" lon="0.9282073459771794"><ele>140.0</ele><time>2026-04-13T18:19:42.999Z</time></trkpt><trkpt lat="44.501626930228234" lon="0.9279767521805918"><ele>141.0</ele><time>2026-04-13T18:19:43.999Z</time></trkpt><trkpt lat="44.50166640336439" lon="0.927758383287723"><ele>141.33333333333334</ele><time>2026-04-13T18:19:44.999Z</time></trkpt><trkpt lat="44.50173814495187" lon="0.9275372643137358"><ele>141.66666666666669</ele><time>2026-04-13T18:19:45.999Z</time></trkpt><trkpt lat="44.50178077455169" lon="0.9273057542093068"><ele>142.0</ele><time>2026-04-13T18:19:46.999Z</time></trkpt><trkpt lat="44.501845297513164" lon="0.927078452956731"><ele>142.0</ele><time>2026-04-13T18:19:47.999Z</time></trkpt><trkpt lat="44.50190595229056" lon="0.9268398806022915"><ele>142.0</ele><time>2026-04-13T18:19:48.999Z</time></trkpt><trkpt lat="44.50196529754115" lon="0.9265978417526083"><ele>142.0</ele><time>2026-04-13T18:19:49.999Z</time></trkpt><trkpt lat="44.50202818856768" lon="0.9263701484015024"><ele>141.33333333333334</ele><time>2026-04-13T18:19:50.999Z</time></trkpt><trkpt lat="44.50209186221098" lon="0.9261564466813818"><ele>140.66666666666666</ele><time>2026-04-13T18:19:51.999Z</time></trkpt><trkpt lat="44.50214931810725" lon="0.925881247125307"><ele>140.0</ele><time>2026-04-13T18:19:52.999Z</time></trkpt><trkpt lat="44.50217904614466" lon="0.9256258958800441"><ele>140.0</ele><time>2026-04-13T18:19:53.999Z</time></trkpt><trkpt lat="44.50222270426547" lon="0.9253717889801787"><ele>140.0</ele><time>2026-04-13T18:19:54.999Z</time></trkpt><trkpt lat="44.50227856051533" lon="0.9251262615542171"><ele>140.0</ele><time>2026-04-13T18:19:55.999Z</time></trkpt><trkpt lat="44.50232088489859" lon="0.924870631022399"><ele>140.66666666666666</ele><time>2026-04-13T18:19:56.999Z</time></trkpt><trkpt lat="44.502358775768606" lon="0.9246105380661788"><ele>141.33333333333334</ele><time>2026-04-13T18:19:57.999Z</time></trkpt><trkpt lat="44.50237203701179" lon="0.9243641969341682"><ele>142.0</ele><time>2026-04-13T18:19:58.999Z</time></trkpt><trkpt lat="44.5023983210425" lon="0.9241065750406874"><ele>144.0</ele><time>2026-04-13T18:19:59.999Z</time></trkpt><trkpt lat="44.50241605934693" lon="0.9238723523798895"><ele>146.0</ele><time>2026-04-13T18:20:00.999Z</time></trkpt><trkpt lat="44.50246727815796" lon="0.9236569406339199"><ele>148.0</ele><time>2026-04-13T18:20:01.999Z</time></trkpt><trkpt lat="44.5025067958233" lon="0.9234320179042586"><ele>148.66666666666669</ele><time>2026-04-13T18:20:02.999Z</time></trkpt><trkpt lat="44.50254898557395" lon="0.9231952352114736"><ele>149.33333333333334</ele><time>2026-04-13T18:20:03.999Z</time></trkpt><trkpt lat="44.50258528615812" lon="0.9229340403769258"><ele>150.0</ele><time>2026-04-13T18:20:04.999Z</time></trkpt><trkpt lat="44.50263911115454" lon="0.9227288928971624"><ele>149.8</ele><time>2026-04-13T18:20:05.999Z</time></trkpt><trkpt lat="44.50265805326317" lon="0.9225599277592803"><ele>149.6</ele><time>2026-04-13T18:20:06.999Z</time></trkpt><trkpt lat="44.502690197544105" lon="0.9224285854079066"><ele>149.4</ele><time>2026-04-13T18:20:07.999Z</time></trkpt><trkpt lat="44.50271521926985" lon="0.9223262475377886"><ele>149.2</ele><time>2026-04-13T18:20:08.999Z</time></trkpt><trkpt lat="44.50274097895374" lon="0.9221788608098549"><ele>149.0</ele><time>2026-04-13T18:20:10.999Z</time></trkpt><trkpt lat="44.502762316882276" lon="0.9220764252367674"><ele>149.0</ele><time>2026-04-13T18:20:12.999Z</time></trkpt><trkpt lat="44.50272095325071" lon="0.9219639390382389"><ele>149.0</ele><time>2026-04-13T18:20:15.999Z</time></trkpt><trkpt lat="44.50262757301746" lon="0.9218653184471133"><ele>149.0</ele><time>2026-04-13T18:20:17.999Z</time></trkpt><trkpt lat="44.50257511975804" lon="0.9217990533594606"><ele>149.0</ele><time>2026-04-13T18:20:19Z</time></trkpt><trkpt lat="44.50252423389354" lon="0.9216982825204335"><ele>149.0</ele><time>2026-04-13T18:20:20Z</time></trkpt><trkpt lat="44.50244346690991" lon="0.9215991433083568"><ele>148.5</ele><time>2026-04-13T18:20:21Z</time></trkpt><trkpt lat="44.502361813682825" lon="0.9214982337064807"><ele>148.0</ele><time>2026-04-13T18:20:22Z</time></trkpt><trkpt lat="44.50230509122232" lon="0.9214174882811036"><ele>147.5</ele><time>2026-04-13T18:20:23Z</time></trkpt><trkpt lat="44.502239294394286" lon="0.921305811808162"><ele>147.0</ele><time>2026-04-13T18:20:25Z</time></trkpt><trkpt lat="44.50207746813024" lon="0.9213873514051448"><ele>148.5</ele><time>2026-04-13T18:20:29Z</time></trkpt><trkpt lat="44.50199622592683" lon="0.9215003522733969"><ele>150.0</ele><time>2026-04-13T18:20:30Z</time></trkpt><trkpt lat="44.50191310701346" lon="0.9216189437547865"><ele>151.5</ele><time>2026-04-13T18:20:31Z</time></trkpt><trkpt lat="44.50182557435295" lon="0.9217438326227183"><ele>153.0</ele><time>2026-04-13T18:20:32Z</time></trkpt><trkpt lat="44.50173631830617" lon="0.9219056726383342"><ele>153.0</ele><time>2026-04-13T18:20:33Z</time></trkpt><trkpt lat="44.50161932176657" lon="0.9220492428702443"><ele>153.0</ele><time>2026-04-13T18:20:34Z</time></trkpt><trkpt lat="44.501499661088516" lon="0.9222044655735232"><ele>153.0</ele><time>2026-04-13T18:20:35Z</time></trkpt><trkpt lat="44.50135492621029" lon="0.9223103576161092"><ele>152.66666666666666</ele><time>2026-04-13T18:20:36Z</time></trkpt><trkpt lat="44.50119901579502" lon="0.9223928855893411"><ele>152.33333333333331</ele><time>2026-04-13T18:20:37Z</time></trkpt><trkpt lat="44.50103244369446" lon="0.9224502641137204"><ele>152.0</ele><time>2026-04-13T18:20:38Z</time></trkpt><trkpt lat="44.500858929162426" lon="0.9224937912898662"><ele>152.0</ele><time>2026-04-13T18:20:39Z</time></trkpt><trkpt lat="44.50068536696428" lon="0.9225117545692452"><ele>152.0</ele><time>2026-04-13T18:20:40Z</time></trkpt><trkpt lat="44.5005206567012" lon="0.9225308771774474"><ele>152.0</ele><time>2026-04-13T18:20:41Z</time></trkpt><trkpt lat="44.50037403324727" lon="0.9225274257069336"><ele>152.0</ele><time>2026-04-13T18:20:42Z</time></trkpt><trkpt lat="44.50023096547158" lon="0.922516847051931"><ele>152.0</ele><time>2026-04-13T18:20:43Z</time></trkpt><trkpt lat="44.500092173391245" lon="0.9225753632896625"><ele>152.0</ele><time>2026-04-13T18:20:44Z</time></trkpt><trkpt lat="44.49994783476507" lon="0.922654307079941"><ele>152.0</ele><time>2026-04-13T18:20:45Z</time></trkpt><trkpt lat="44.49981162504309" lon="0.9227681248617842"><ele>150.0</ele><time>2026-04-13T18:20:46Z</time></trkpt><trkpt lat="44.49967023398271" lon="0.9229140920386736"><ele>148.0</ele><time>2026-04-13T18:20:47Z</time></trkpt><trkpt lat="44.49953923542013" lon="0.9230697292995204"><ele>146.0</ele><time>2026-04-13T18:20:48Z</time></trkpt><trkpt lat="44.49940854560784" lon="0.9232357051413534"><ele>145.33333333333331</ele><time>2026-04-13T18:20:49Z</time></trkpt><trkpt lat="44.49927072649648" lon="0.9233955265662314"><ele>144.66666666666666</ele><time>2026-04-13T18:20:50Z</time></trkpt><trkpt lat="44.49912194020217" lon="0.9235395878313406"><ele>144.0</ele><time>2026-04-13T18:20:51Z</time></trkpt><trkpt lat="44.49898364307572" lon="0.9237003983531614"><ele>144.33333333333334</ele><time>2026-04-13T18:20:52Z</time></trkpt><trkpt lat="44.49883444339377" lon="0.9238738862930607"><ele>144.66666666666669</ele><time>2026-04-13T18:20:53Z</time></trkpt><trkpt lat="44.49869335043159" lon="0.9240720818270636"><ele>145.0</ele><time>2026-04-13T18:20:54Z</time></trkpt><trkpt lat="44.49853454082732" lon="0.9242493297962703"><ele>142.0</ele><time>2026-04-13T18:20:55Z</time></trkpt><trkpt lat="44.498385701641354" lon="0.9244381699158268"><ele>139.0</ele><time>2026-04-13T18:20:56Z</time></trkpt><trkpt lat="44.49824360344268" lon="0.9246070473640302"><ele>136.0</ele><time>2026-04-13T18:20:57Z</time></trkpt><trkpt lat="44.498098552016735" lon="0.9247607556840685"><ele>136.0</ele><time>2026-04-13T18:20:58Z</time></trkpt><trkpt lat="44.49794043475141" lon="0.9249237100795982"><ele>136.0</ele><time>2026-04-13T18:20:59Z</time></trkpt><trkpt lat="44.497785639862265" lon="0.9250891956426673"><ele>136.0</ele><time>2026-04-13T18:21:00Z</time></trkpt><trkpt lat="44.497640908833596" lon="0.9252755057971719"><ele>136.33333333333334</ele><time>2026-04-13T18:21:01Z</time></trkpt><trkpt lat="44.49752709415076" lon="0.9254421730217025"><ele>136.66666666666666</ele><time>2026-04-13T18:21:02Z</time></trkpt><trkpt lat="44.49742588364541" lon="0.9255993909089166"><ele>137.0</ele><time>2026-04-13T18:21:03Z</time></trkpt><trkpt lat="44.497325713424296" lon="0.9257544093182686"><ele>135.66666666666666</ele><time>2026-04-13T18:21:04Z</time></trkpt><trkpt lat="44.49721475348883" lon="0.9259026458835194"><ele>134.33333333333334</ele><time>2026-04-13T18:21:05Z</time></trkpt><trkpt lat="44.49708642807394" lon="0.926055312812118"><ele>133.0</ele><time>2026-04-13T18:21:06Z</time></trkpt><trkpt lat="44.49695263114984" lon="0.9262028604461333"><ele>133.0</ele><time>2026-04-13T18:21:07Z</time></trkpt><trkpt lat="44.496818828643846" lon="0.9263666919730346"><ele>133.0</ele><time>2026-04-13T18:21:08Z</time></trkpt><trkpt lat="44.496685610109765" lon="0.9264987780917611"><ele>133.0</ele><time>2026-04-13T18:21:09Z</time></trkpt><trkpt lat="44.49655506082064" lon="0.9266050330448443"><ele>133.0</ele><time>2026-04-13T18:21:10Z</time></trkpt><trkpt lat="44.4964013028669" lon="0.9267110306588519"><ele>133.0</ele><time>2026-04-13T18:21:11Z</time></trkpt><trkpt lat="44.496233704778575" lon="0.9267990083298244"><ele>133.0</ele><time>2026-04-13T18:21:12Z</time></trkpt><trkpt lat="44.496052300373506" lon="0.9268593334204293"><ele>132.0</ele><time>2026-04-13T18:21:13Z</time></trkpt><trkpt lat="44.49586785625285" lon="0.9269212588326627"><ele>131.0</ele><time>2026-04-13T18:21:14Z</time></trkpt><trkpt lat="44.49567794034367" lon="0.9269891486661643"><ele>130.0</ele><time>2026-04-13T18:21:15Z</time></trkpt><trkpt lat="44.49548545871787" lon="0.9269956495247352"><ele>130.66666666666669</ele><time>2026-04-13T18:21:16Z</time></trkpt><trkpt lat="44.49528978195504" lon="0.9270037925880743"><ele>131.33333333333334</ele><time>2026-04-13T18:21:17Z</time></trkpt><trkpt lat="44.49510205624945" lon="0.9270191545193142"><ele>132.0</ele><time>2026-04-13T18:21:18Z</time></trkpt><trkpt lat="44.49493785958577" lon="0.9270314823856345"><ele>132.0</ele><time>2026-04-13T18:21:19Z</time></trkpt><trkpt lat="44.49478902784418" lon="0.9270876106736119"><ele>132.0</ele><time>2026-04-13T18:21:20Z</time></trkpt><trkpt lat="44.49464464249728" lon="0.9271887467661084"><ele>132.0</ele><time>2026-04-13T18:21:21Z</time></trkpt><trkpt lat="44.49451449615209" lon="0.9273379676412303"><ele>132.33333333333334</ele><time>2026-04-13T18:21:22Z</time></trkpt><trkpt lat="44.494398999654685" lon="0.9275096827396796"><ele>132.66666666666669</ele><time>2026-04-13T18:21:23Z</time></trkpt><trkpt lat="44.49427916439474" lon="0.9277031607209225"><ele>133.0</ele><time>2026-04-13T18:21:24Z</time></trkpt><trkpt lat="44.494167815925934" lon="0.9278978374113345"><ele>133.0</ele><time>2026-04-13T18:21:25Z</time></trkpt><trkpt lat="44.49407104413576" lon="0.9281134559710732"><ele>133.0</ele><time>2026-04-13T18:21:26Z</time></trkpt><trkpt lat="44.49395703776432" lon="0.9283223067487082"><ele>133.0</ele><time>2026-04-13T18:21:27Z</time></trkpt><trkpt lat="44.493853997238375" lon="0.9285400789389439"><ele>132.33333333333334</ele><time>2026-04-13T18:21:28Z</time></trkpt><trkpt lat="44.4937468798655" lon="0.9287531994593269"><ele>131.66666666666666</ele><time>2026-04-13T18:21:29Z</time></trkpt><trkpt lat="44.49362373926243" lon="0.9289590389280479"><ele>131.0</ele><time>2026-04-13T18:21:30Z</time></trkpt><trkpt lat="44.49351496042593" lon="0.9291491748228984"><ele>131.66666666666666</ele><time>2026-04-13T18:21:31Z</time></trkpt><trkpt lat="44.49340733883951" lon="0.9293554361230795"><ele>132.33333333333334</ele><time>2026-04-13T18:21:32Z</time></trkpt><trkpt lat="44.49327655029401" lon="0.9295337506597174"><ele>133.0</ele><time>2026-04-13T18:21:33Z</time></trkpt><trkpt lat="44.493153643349864" lon="0.9297061423179251"><ele>133.0</ele><time>2026-04-13T18:21:34Z</time></trkpt><trkpt lat="44.49300398517163" lon="0.9298753069621069"><ele>133.0</ele><time>2026-04-13T18:21:35Z</time></trkpt><trkpt lat="44.492856227951115" lon="0.9300463146757855"><ele>133.0</ele><time>2026-04-13T18:21:36Z</time></trkpt><trkpt lat="44.49271337377673" lon="0.9301989504355461"><ele>132.0</ele><time>2026-04-13T18:21:36.999Z</time></trkpt><trkpt lat="44.49255014064886" lon="0.9303666748284264"><ele>131.0</ele><time>2026-04-13T18:21:37.999Z</time></trkpt><trkpt lat="44.49239270852558" lon="0.9305269867236009"><ele>130.0</ele><time>2026-04-13T18:21:38.999Z</time></trkpt><trkpt lat="44.49223636721658" lon="0.9306798930925627"><ele>130.33333333333334</ele><time>2026-04-13T18:21:39.999Z</time></trkpt><trkpt lat="44.49208295919405" lon="0.930815515025308"><ele>130.66666666666666</ele><time>2026-04-13T18:21:40.999Z</time></trkpt><trkpt lat="44.491958379535916" lon="0.930955047117703"><ele>131.0</ele><time>2026-04-13T18:21:41.999Z</time></trkpt><trkpt lat="44.49182500098082" lon="0.9311017798997884"><ele>130.0</ele><time>2026-04-13T18:21:42.999Z</time></trkpt><trkpt lat="44.491707650434456" lon="0.9312842118273306"><ele>129.0</ele><time>2026-04-13T18:21:43.999Z</time></trkpt><trkpt lat="44.491578981595495" lon="0.9314772714272637"><ele>128.0</ele><time>2026-04-13T18:21:44.999Z</time></trkpt><trkpt lat="44.49146535116697" lon="0.9316906903574205"><ele>129.33333333333331</ele><time>2026-04-13T18:21:45.999Z</time></trkpt><trkpt lat="44.49134384888221" lon="0.9318994928355397"><ele>130.66666666666666</ele><time>2026-04-13T18:21:46.999Z</time></trkpt><trkpt lat="44.49122517698793" lon="0.9321201487852979"><ele>132.0</ele><time>2026-04-13T18:21:47.999Z</time></trkpt><trkpt lat="44.491120370709204" lon="0.9323484533532258"><ele>131.33333333333334</ele><time>2026-04-13T18:21:48.999Z</time></trkpt><trkpt lat="44.49103512106249" lon="0.9325995594357955"><ele>130.66666666666669</ele><time>2026-04-13T18:21:49.999Z</time></trkpt><trkpt lat="44.49096418449484" lon="0.9328541635446387"><ele>130.0</ele><time>2026-04-13T18:21:50.999Z</time></trkpt><trkpt lat="44.49089109835588" lon="0.9331067850553958"><ele>130.0</ele><time>2026-04-13T18:21:51.999Z</time></trkpt><trkpt lat="44.49081654402098" lon="0.9333627354716264"><ele>130.0</ele><time>2026-04-13T18:21:52.999Z</time></trkpt><trkpt lat="44.49072647615931" lon="0.9336006000937359"><ele>130.0</ele><time>2026-04-13T18:21:53.999Z</time></trkpt><trkpt lat="44.490654547594" lon="0.9338292115988853"><ele>130.0</ele><time>2026-04-13T18:21:54.999Z</time></trkpt><trkpt lat="44.49059552706801" lon="0.9339941851006184"><ele>130.0</ele><time>2026-04-13T18:21:55.999Z</time></trkpt><trkpt lat="44.49052037906205" lon="0.9341299951232565"><ele>130.0</ele><time>2026-04-13T18:21:56.999Z</time></trkpt><trkpt lat="44.49043172399564" lon="0.9342293927947597"><ele>130.0</ele><time>2026-04-13T18:21:57.999Z</time></trkpt><trkpt lat="44.4903142296862" lon="0.9342900744544148"><ele>130.0</ele><time>2026-04-13T18:21:58.999Z</time></trkpt><trkpt lat="44.490182002842566" lon="0.9343635916997524"><ele>130.0</ele><time>2026-04-13T18:21:59.999Z</time></trkpt><trkpt lat="44.49004206367674" lon="0.934443046874901"><ele>130.0</ele><time>2026-04-13T18:22:00.999Z</time></trkpt><trkpt lat="44.48991127818446" lon="0.9345231633974254"><ele>130.0</ele><time>2026-04-13T18:22:01.999Z</time></trkpt><trkpt lat="44.48980211611157" lon="0.9346233989211173"><ele>130.0</ele><time>2026-04-13T18:22:02.999Z</time></trkpt><trkpt lat="44.48970903991176" lon="0.9347067272214189"><ele>130.0</ele><time>2026-04-13T18:22:03.999Z</time></trkpt><trkpt lat="44.48964566543686" lon="0.9348248178855625"><ele>130.0</ele><time>2026-04-13T18:22:04.999Z</time></trkpt><trkpt lat="44.48962531448074" lon="0.934964040022028"><ele>130.0</ele><time>2026-04-13T18:22:05.999Z</time></trkpt><trkpt lat="44.48964694395818" lon="0.9351205864367698"><ele>130.0</ele><time>2026-04-13T18:22:06.999Z</time></trkpt><trkpt lat="44.489703673116736" lon="0.9352859529041883"><ele>128.25</ele><time>2026-04-13T18:22:07.999Z</time></trkpt><trkpt lat="44.48977549822325" lon="0.935453006052224"><ele>126.5</ele><time>2026-04-13T18:22:08.999Z</time></trkpt><trkpt lat="44.48983169165516" lon="0.9356543009785245"><ele>124.75</ele><time>2026-04-13T18:22:09.999Z</time></trkpt><trkpt lat="44.48991248628333" lon="0.93584099744287"><ele>123.0</ele><time>2026-04-13T18:22:10.999Z</time></trkpt><trkpt lat="44.489985178914466" lon="0.936044166186632"><ele>122.33333333333334</ele><time>2026-04-13T18:22:11.999Z</time></trkpt><trkpt lat="44.49004368393443" lon="0.9362662670808345"><ele>121.66666666666667</ele><time>2026-04-13T18:22:12.999Z</time></trkpt><trkpt lat="44.49012524636493" lon="0.9364864566659806"><ele>121.0</ele><time>2026-04-13T18:22:13.999Z</time></trkpt><trkpt lat="44.490228682619374" lon="0.9366959086455732"><ele>121.0</ele><time>2026-04-13T18:22:14.999Z</time></trkpt><trkpt lat="44.49032603292932" lon="0.9368673537104297"><ele>121.0</ele><time>2026-04-13T18:22:15.999Z</time></trkpt><trkpt lat="44.490441988881116" lon="0.9370362095228436"><ele>121.0</ele><time>2026-04-13T18:22:16.999Z</time></trkpt><trkpt lat="44.49054825483915" lon="0.9372376064791407"><ele>120.66666666666667</ele><time>2026-04-13T18:22:17.999Z</time></trkpt><trkpt lat="44.49068763376286" lon="0.9374063931465805"><ele>120.33333333333334</ele><time>2026-04-13T18:22:18.999Z</time></trkpt><trkpt lat="44.4907960849715" lon="0.9375835067200834"><ele>120.0</ele><time>2026-04-13T18:22:19.999Z</time></trkpt><trkpt lat="44.490910475425096" lon="0.9377290296928897"><ele>120.0</ele><time>2026-04-13T18:22:20.999Z</time></trkpt><trkpt lat="44.49100260291713" lon="0.9378902442445369"><ele>120.0</ele><time>2026-04-13T18:22:21.999Z</time></trkpt><trkpt lat="44.4910652355986" lon="0.9380615974769936"><ele>120.0</ele><time>2026-04-13T18:22:22.999Z</time></trkpt><trkpt lat="44.491121384367034" lon="0.9382675423230451"><ele>120.0</ele><time>2026-04-13T18:22:23.999Z</time></trkpt><trkpt lat="44.4911669982519" lon="0.9384917914144179"><ele>120.33333333333334</ele><time>2026-04-13T18:22:25Z</time></trkpt><trkpt lat="44.491207321822486" lon="0.9387246000975362"><ele>120.66666666666667</ele><time>2026-04-13T18:22:26Z</time></trkpt><trkpt lat="44.49126083528274" lon="0.9389683864608029"><ele>121.0</ele><time>2026-04-13T18:22:27Z</time></trkpt><trkpt lat="44.49128943280149" lon="0.9391726472359101"><ele>117.0</ele><time>2026-04-13T18:22:28Z</time></trkpt><trkpt lat="44.491291099508736" lon="0.9394159726707528"><ele>113.0</ele><time>2026-04-13T18:22:29Z</time></trkpt><trkpt lat="44.49130852140386" lon="0.9396604997219751"><ele>109.0</ele><time>2026-04-13T18:22:30Z</time></trkpt><trkpt lat="44.491333980478814" lon="0.9398895282057423"><ele>109.0</ele><time>2026-04-13T18:22:31Z</time></trkpt><trkpt lat="44.49135446375947" lon="0.9401212804001268"><ele>109.0</ele><time>2026-04-13T18:22:32Z</time></trkpt><trkpt lat="44.49136420335024" lon="0.940338873268154"><ele>109.0</ele><time>2026-04-13T18:22:33Z</time></trkpt><trkpt lat="44.491375221734884" lon="0.9405071655598797"><ele>109.0</ele><time>2026-04-13T18:22:34Z</time></trkpt><trkpt lat="44.49138449850258" lon="0.9406677087236944"><ele>109.00000000000001</ele><time>2026-04-13T18:22:35Z</time></trkpt><trkpt lat="44.49138833752881" lon="0.9408083580042474"><ele>109.0</ele><time>2026-04-13T18:22:36Z</time></trkpt><trkpt lat="44.49139089908339" lon="0.9409229817469581"><ele>109.0</ele><time>2026-04-13T18:22:37Z</time></trkpt><trkpt lat="44.491411428441324" lon="0.9410282284154677"><ele>109.0</ele><time>2026-04-13T18:22:38Z</time></trkpt><trkpt lat="44.49142963050177" lon="0.9411293186868345"><ele>109.00000000000001</ele><time>2026-04-13T18:22:39Z</time></trkpt><trkpt lat="44.491422937121655" lon="0.9412249165275774"><ele>109.0</ele><time>2026-04-13T18:22:40Z</time></trkpt><trkpt lat="44.49140304641296" lon="0.9413199720373271"><ele>108.50000000000001</ele><time>2026-04-13T18:22:41Z</time></trkpt><trkpt lat="44.49139100011276" lon="0.941415082706001"><ele>108.0</ele><time>2026-04-13T18:22:42Z</time></trkpt><trkpt lat="44.49137453872343" lon="0.9415122177694742"><ele>107.5</ele><time>2026-04-13T18:22:43Z</time></trkpt><trkpt lat="44.491331794759596" lon="0.9416071732198202"><ele>107.0</ele><time>2026-04-13T18:22:44Z</time></trkpt><trkpt lat="44.4913090136027" lon="0.9416984352097222"><ele>106.50000000000001</ele><time>2026-04-13T18:22:45Z</time></trkpt><trkpt lat="44.49126785756157" lon="0.9418383103142991"><ele>106.0</ele><time>2026-04-13T18:22:47Z</time></trkpt><trkpt lat="44.491239585491144" lon="0.9419197693008448"><ele>106.0</ele><time>2026-04-13T18:22:50Z</time></trkpt><trkpt lat="44.49143088117381" lon="0.9419478432224023"><ele>106.0</ele><time>2026-04-13T18:24:17.999Z</time></trkpt><trkpt lat="44.4913648466024" lon="0.9419419427809365"><ele>106.0</ele><time>2026-04-13T18:27:58.999Z</time></trkpt><trkpt lat="44.491394958500514" lon="0.9418151155122946"><ele>106.0</ele><time>2026-04-13T18:29:06Z</time></trkpt><trkpt lat="44.49130573314126" lon="0.9412738122054761"><ele>106.0</ele><time>2026-04-13T18:29:09Z</time></trkpt><trkpt lat="44.49128064036466" lon="0.9411757030516233"><ele>106.0</ele><time>2026-04-13T18:29:11Z</time></trkpt><trkpt lat="44.49148070115191" lon="0.9413488448041359"><ele>106.0</ele><time>2026-04-13T18:29:18.021Z</time></trkpt><trkpt lat="44.491345109873244" lon="0.9419230699464586"><ele>105.00000000000001</ele><time>2026-04-13T18:29:32.016Z</time></trkpt><trkpt lat="44.491414114755166" lon="0.9418925571399434"><ele>104.0</ele><time>2026-04-13T18:30:17Z</time></trkpt><trkpt lat="44.49135861698142" lon="0.9418408744858779"><ele>103.0</ele><time>2026-04-13T18:36:47.999Z</time></trkpt><trkpt lat="44.491285279958625" lon="0.9418990475970299"><ele>102.0</ele><time>2026-04-13T18:36:53.999Z</time></trkpt><trkpt lat="44.49140756666172" lon="0.9419444678100839"><ele>101.00000000000001</ele><time>2026-04-13T18:38:24.999Z</time></trkpt><trkpt lat="44.49137132065571" lon="0.9418641072332357"><ele>100.0</ele><time>2026-04-13T18:39:48.999Z</time></trkpt><trkpt lat="44.49131339048274" lon="0.9419038365002822"><ele>100.0</ele><time>2026-04-13T18:39:54.999Z</time></trkpt></trkseg></trk></gpx>